<?xml version="1.0" encoding="UTF-8" standalone="no" ?>
<gpx xmlns="http://www.topografix.com/GPX/1/1" xmlns:xsi="http://www.w3.org/2001/XMLSchema-instance" xsi:schemaLocation="http://www.topografix.com/GPX/1/1 http://www.topografix.com/GPX/1/1/gpx.xsd" version="1.1" creator="VisuGPX - https://www.visugpx.com">
  <metadata>
    <name>oberbergen</name>
    <desc><![CDATA[ rando a oberbergen kaisersthul]]></desc>
  </metadata>
  <trk>
    <name><![CDATA[ACTIVE LOG 010]]></name>
    <trkseg>
      <trkpt lat="48.09604" lon="7.66449">
        <ele>264.9805908</ele>
        <time>2010-09-15T07:34:47Z</time>
      </trkpt>
      <trkpt lat="48.09601" lon="7.66446">
        <ele>264.4998779</ele>
        <time>2010-09-15T07:35:41Z</time>
      </trkpt>
      <trkpt lat="48.09601" lon="7.66446">
        <ele>264.4998779</ele>
        <time>2010-09-15T07:35:48Z</time>
      </trkpt>
      <trkpt lat="48.09598" lon="7.66446">
        <ele>265.9418945</ele>
        <time>2010-09-15T07:36:04Z</time>
      </trkpt>
      <trkpt lat="48.09597" lon="7.66455">
        <ele>266.9031982</ele>
        <time>2010-09-15T07:36:13Z</time>
      </trkpt>
      <trkpt lat="48.09598" lon="7.66456">
        <ele>267.3839111</ele>
        <time>2010-09-15T07:36:14Z</time>
      </trkpt>
      <trkpt lat="48.09601" lon="7.66468">
        <ele>267.3839111</ele>
        <time>2010-09-15T07:36:40Z</time>
      </trkpt>
      <trkpt lat="48.09606" lon="7.6648">
        <ele>269.7871094</ele>
        <time>2010-09-15T07:36:56Z</time>
      </trkpt>
      <trkpt lat="48.09597" lon="7.6649">
        <ele>272.1904297</ele>
        <time>2010-09-15T07:38:03Z</time>
      </trkpt>
      <trkpt lat="48.09588" lon="7.66491">
        <ele>275.0744629</ele>
        <time>2010-09-15T07:38:14Z</time>
      </trkpt>
      <trkpt lat="48.09578" lon="7.66496">
        <ele>276.0356445</ele>
        <time>2010-09-15T07:38:25Z</time>
      </trkpt>
      <trkpt lat="48.09571" lon="7.66501">
        <ele>276.0356445</ele>
        <time>2010-09-15T07:38:34Z</time>
      </trkpt>
      <trkpt lat="48.09565" lon="7.66512">
        <ele>277.4776611</ele>
        <time>2010-09-15T07:38:46Z</time>
      </trkpt>
      <trkpt lat="48.09559" lon="7.66522">
        <ele>279.8808594</ele>
        <time>2010-09-15T07:38:57Z</time>
      </trkpt>
      <trkpt lat="48.09579" lon="7.66517">
        <ele>286.6102295</ele>
        <time>2010-09-15T07:39:40Z</time>
      </trkpt>
      <trkpt lat="48.09585" lon="7.66518">
        <ele>289.0135498</ele>
        <time>2010-09-15T07:39:51Z</time>
      </trkpt>
      <trkpt lat="48.09593" lon="7.6652">
        <ele>289.0135498</ele>
        <time>2010-09-15T07:40:01Z</time>
      </trkpt>
      <trkpt lat="48.09599" lon="7.66522">
        <ele>289.9748535</ele>
        <time>2010-09-15T07:40:10Z</time>
      </trkpt>
      <trkpt lat="48.09604" lon="7.6653">
        <ele>289.9748535</ele>
        <time>2010-09-15T07:40:20Z</time>
      </trkpt>
      <trkpt lat="48.0959" lon="7.66541">
        <ele>295.2619629</ele>
        <time>2010-09-15T07:40:43Z</time>
      </trkpt>
      <trkpt lat="48.09586" lon="7.66548">
        <ele>297.1846924</ele>
        <time>2010-09-15T07:40:54Z</time>
      </trkpt>
      <trkpt lat="48.09583" lon="7.66559">
        <ele>299.1072998</ele>
        <time>2010-09-15T07:41:06Z</time>
      </trkpt>
      <trkpt lat="48.0958" lon="7.66572">
        <ele>301.991333</ele>
        <time>2010-09-15T07:41:21Z</time>
      </trkpt>
      <trkpt lat="48.09578" lon="7.66583">
        <ele>303.4332275</ele>
        <time>2010-09-15T07:41:34Z</time>
      </trkpt>
      <trkpt lat="48.09578" lon="7.66592">
        <ele>304.8752441</ele>
        <time>2010-09-15T07:41:43Z</time>
      </trkpt>
      <trkpt lat="48.09576" lon="7.66604">
        <ele>306.3172607</ele>
        <time>2010-09-15T07:41:58Z</time>
      </trkpt>
      <trkpt lat="48.09575" lon="7.66615">
        <ele>309.2011719</ele>
        <time>2010-09-15T07:42:11Z</time>
      </trkpt>
      <trkpt lat="48.09576" lon="7.66624">
        <ele>311.1237793</ele>
        <time>2010-09-15T07:42:22Z</time>
      </trkpt>
      <trkpt lat="48.09577" lon="7.66633">
        <ele>312.5657959</ele>
        <time>2010-09-15T07:42:33Z</time>
      </trkpt>
      <trkpt lat="48.0958" lon="7.6664">
        <ele>314.9691162</ele>
        <time>2010-09-15T07:42:42Z</time>
      </trkpt>
      <trkpt lat="48.09582" lon="7.66648">
        <ele>315.9304199</ele>
        <time>2010-09-15T07:42:53Z</time>
      </trkpt>
      <trkpt lat="48.09583" lon="7.66657">
        <ele>317.3724365</ele>
        <time>2010-09-15T07:43:04Z</time>
      </trkpt>
      <trkpt lat="48.09582" lon="7.66671">
        <ele>318.8143311</ele>
        <time>2010-09-15T07:43:18Z</time>
      </trkpt>
      <trkpt lat="48.09583" lon="7.66683">
        <ele>320.7370605</ele>
        <time>2010-09-15T07:43:30Z</time>
      </trkpt>
      <trkpt lat="48.09586" lon="7.66693">
        <ele>322.659668</ele>
        <time>2010-09-15T07:43:40Z</time>
      </trkpt>
      <trkpt lat="48.09587" lon="7.66706">
        <ele>323.6209717</ele>
        <time>2010-09-15T07:43:53Z</time>
      </trkpt>
      <trkpt lat="48.09587" lon="7.66719">
        <ele>325.0629883</ele>
        <time>2010-09-15T07:44:05Z</time>
      </trkpt>
      <trkpt lat="48.09587" lon="7.66732">
        <ele>326.9855957</ele>
        <time>2010-09-15T07:44:17Z</time>
      </trkpt>
      <trkpt lat="48.09587" lon="7.66744">
        <ele>328.4276123</ele>
        <time>2010-09-15T07:44:36Z</time>
      </trkpt>
      <trkpt lat="48.09584" lon="7.66761">
        <ele>330.3502197</ele>
        <time>2010-09-15T07:44:50Z</time>
      </trkpt>
      <trkpt lat="48.09582" lon="7.66768">
        <ele>331.3115234</ele>
        <time>2010-09-15T07:44:59Z</time>
      </trkpt>
      <trkpt lat="48.0958" lon="7.66776">
        <ele>331.7921143</ele>
        <time>2010-09-15T07:45:07Z</time>
      </trkpt>
      <trkpt lat="48.09583" lon="7.66787">
        <ele>333.2341309</ele>
        <time>2010-09-15T07:45:18Z</time>
      </trkpt>
      <trkpt lat="48.09591" lon="7.66797">
        <ele>334.6761475</ele>
        <time>2010-09-15T07:45:30Z</time>
      </trkpt>
      <trkpt lat="48.09592" lon="7.668">
        <ele>335.1567383</ele>
        <time>2010-09-15T07:45:33Z</time>
      </trkpt>
      <trkpt lat="48.09594" lon="7.66809">
        <ele>335.6373291</ele>
        <time>2010-09-15T07:45:40Z</time>
      </trkpt>
      <trkpt lat="48.09594" lon="7.66815">
        <ele>336.1181641</ele>
        <time>2010-09-15T07:45:44Z</time>
      </trkpt>
      <trkpt lat="48.09589" lon="7.66833">
        <ele>336.1181641</ele>
        <time>2010-09-15T07:45:58Z</time>
      </trkpt>
      <trkpt lat="48.09587" lon="7.66839">
        <ele>335.1567383</ele>
        <time>2010-09-15T07:46:03Z</time>
      </trkpt>
      <trkpt lat="48.09583" lon="7.66842">
        <ele>335.6373291</ele>
        <time>2010-09-15T07:46:07Z</time>
      </trkpt>
      <trkpt lat="48.09579" lon="7.66853">
        <ele>335.6373291</ele>
        <time>2010-09-15T07:46:16Z</time>
      </trkpt>
      <trkpt lat="48.09574" lon="7.66864">
        <ele>336.1181641</ele>
        <time>2010-09-15T07:46:27Z</time>
      </trkpt>
      <trkpt lat="48.09576" lon="7.66864">
        <ele>336.1181641</ele>
        <time>2010-09-15T07:46:42Z</time>
      </trkpt>
      <trkpt lat="48.09574" lon="7.66868">
        <ele>336.598877</ele>
        <time>2010-09-15T07:46:54Z</time>
      </trkpt>
      <trkpt lat="48.09571" lon="7.66879">
        <ele>337.0794678</ele>
        <time>2010-09-15T07:47:03Z</time>
      </trkpt>
      <trkpt lat="48.09567" lon="7.66889">
        <ele>337.0794678</ele>
        <time>2010-09-15T07:47:11Z</time>
      </trkpt>
      <trkpt lat="48.09563" lon="7.66905">
        <ele>338.5214844</ele>
        <time>2010-09-15T07:47:23Z</time>
      </trkpt>
      <trkpt lat="48.09561" lon="7.66918">
        <ele>341.8859863</ele>
        <time>2010-09-15T07:47:34Z</time>
      </trkpt>
      <trkpt lat="48.09555" lon="7.66923">
        <ele>342.84729</ele>
        <time>2010-09-15T07:47:44Z</time>
      </trkpt>
      <trkpt lat="48.0955" lon="7.66931">
        <ele>343.3278809</ele>
        <time>2010-09-15T07:47:55Z</time>
      </trkpt>
      <trkpt lat="48.09543" lon="7.66936">
        <ele>345.2506104</ele>
        <time>2010-09-15T07:48:06Z</time>
      </trkpt>
      <trkpt lat="48.09537" lon="7.66944">
        <ele>346.2120361</ele>
        <time>2010-09-15T07:48:18Z</time>
      </trkpt>
      <trkpt lat="48.09533" lon="7.66952">
        <ele>350.057251</ele>
        <time>2010-09-15T07:48:28Z</time>
      </trkpt>
      <trkpt lat="48.09527" lon="7.66959">
        <ele>352.4605713</ele>
        <time>2010-09-15T07:48:39Z</time>
      </trkpt>
      <trkpt lat="48.0952" lon="7.66964">
        <ele>352.4605713</ele>
        <time>2010-09-15T07:48:51Z</time>
      </trkpt>
      <trkpt lat="48.09514" lon="7.66968">
        <ele>353.421875</ele>
        <time>2010-09-15T07:49:02Z</time>
      </trkpt>
      <trkpt lat="48.09507" lon="7.66972">
        <ele>355.3444824</ele>
        <time>2010-09-15T07:49:14Z</time>
      </trkpt>
      <trkpt lat="48.09496" lon="7.66977">
        <ele>357.7478027</ele>
        <time>2010-09-15T07:49:30Z</time>
      </trkpt>
      <trkpt lat="48.09492" lon="7.6698">
        <ele>357.7478027</ele>
        <time>2010-09-15T07:49:35Z</time>
      </trkpt>
      <trkpt lat="48.09491" lon="7.66981">
        <ele>357.7478027</ele>
        <time>2010-09-15T07:49:43Z</time>
      </trkpt>
      <trkpt lat="48.09488" lon="7.66982">
        <ele>357.7478027</ele>
        <time>2010-09-15T07:49:56Z</time>
      </trkpt>
      <trkpt lat="48.09488" lon="7.66983">
        <ele>357.2670898</ele>
        <time>2010-09-15T07:50:06Z</time>
      </trkpt>
      <trkpt lat="48.09483" lon="7.66986">
        <ele>358.2283936</ele>
        <time>2010-09-15T07:50:18Z</time>
      </trkpt>
      <trkpt lat="48.09476" lon="7.66989">
        <ele>359.1896973</ele>
        <time>2010-09-15T07:50:28Z</time>
      </trkpt>
      <trkpt lat="48.09467" lon="7.66996">
        <ele>360.151123</ele>
        <time>2010-09-15T07:50:41Z</time>
      </trkpt>
      <trkpt lat="48.0946" lon="7.67004">
        <ele>361.5931396</ele>
        <time>2010-09-15T07:50:53Z</time>
      </trkpt>
      <trkpt lat="48.09461" lon="7.67006">
        <ele>361.1124268</ele>
        <time>2010-09-15T07:51:00Z</time>
      </trkpt>
      <trkpt lat="48.09462" lon="7.67006">
        <ele>360.6317139</ele>
        <time>2010-09-15T07:51:09Z</time>
      </trkpt>
      <trkpt lat="48.09462" lon="7.67007">
        <ele>360.6317139</ele>
        <time>2010-09-15T07:51:21Z</time>
      </trkpt>
      <trkpt lat="48.09463" lon="7.67006">
        <ele>361.5931396</ele>
        <time>2010-09-15T07:51:52Z</time>
      </trkpt>
      <trkpt lat="48.09467" lon="7.67007">
        <ele>362.0737305</ele>
        <time>2010-09-15T07:51:59Z</time>
      </trkpt>
      <trkpt lat="48.0947" lon="7.67008">
        <ele>363.5157471</ele>
        <time>2010-09-15T07:52:07Z</time>
      </trkpt>
      <trkpt lat="48.09474" lon="7.6701">
        <ele>364.9576416</ele>
        <time>2010-09-15T07:52:15Z</time>
      </trkpt>
      <trkpt lat="48.09482" lon="7.67019">
        <ele>368.3222656</ele>
        <time>2010-09-15T07:52:28Z</time>
      </trkpt>
      <trkpt lat="48.09487" lon="7.67026">
        <ele>370.244873</ele>
        <time>2010-09-15T07:52:37Z</time>
      </trkpt>
      <trkpt lat="48.09492" lon="7.67036">
        <ele>372.6481934</ele>
        <time>2010-09-15T07:52:49Z</time>
      </trkpt>
      <trkpt lat="48.09498" lon="7.67045">
        <ele>373.6094971</ele>
        <time>2010-09-15T07:53:00Z</time>
      </trkpt>
      <trkpt lat="48.09502" lon="7.67051">
        <ele>376.4935303</ele>
        <time>2010-09-15T07:53:08Z</time>
      </trkpt>
      <trkpt lat="48.09505" lon="7.67056">
        <ele>377.9354248</ele>
        <time>2010-09-15T07:53:14Z</time>
      </trkpt>
      <trkpt lat="48.0951" lon="7.67063">
        <ele>378.4161377</ele>
        <time>2010-09-15T07:53:24Z</time>
      </trkpt>
      <trkpt lat="48.09512" lon="7.67072">
        <ele>380.3387451</ele>
        <time>2010-09-15T07:53:34Z</time>
      </trkpt>
      <trkpt lat="48.09516" lon="7.67078">
        <ele>384.184082</ele>
        <time>2010-09-15T07:53:44Z</time>
      </trkpt>
      <trkpt lat="48.09516" lon="7.67079">
        <ele>384.6647949</ele>
        <time>2010-09-15T07:53:46Z</time>
      </trkpt>
      <trkpt lat="48.09519" lon="7.67084">
        <ele>386.1066895</ele>
        <time>2010-09-15T07:53:52Z</time>
      </trkpt>
      <trkpt lat="48.09523" lon="7.67091">
        <ele>389.9519043</ele>
        <time>2010-09-15T07:54:03Z</time>
      </trkpt>
      <trkpt lat="48.09523" lon="7.67092">
        <ele>389.4711914</ele>
        <time>2010-09-15T07:54:04Z</time>
      </trkpt>
      <trkpt lat="48.09525" lon="7.67094">
        <ele>390.913208</ele>
        <time>2010-09-15T07:54:08Z</time>
      </trkpt>
      <trkpt lat="48.09527" lon="7.67096">
        <ele>392.8359375</ele>
        <time>2010-09-15T07:54:11Z</time>
      </trkpt>
      <trkpt lat="48.09532" lon="7.67102">
        <ele>395.7198486</ele>
        <time>2010-09-15T07:54:20Z</time>
      </trkpt>
      <trkpt lat="48.09536" lon="7.67108">
        <ele>394.7585449</ele>
        <time>2010-09-15T07:54:29Z</time>
      </trkpt>
      <trkpt lat="48.09538" lon="7.67115">
        <ele>396.6811523</ele>
        <time>2010-09-15T07:54:36Z</time>
      </trkpt>
      <trkpt lat="48.09542" lon="7.67125">
        <ele>398.6037598</ele>
        <time>2010-09-15T07:54:47Z</time>
      </trkpt>
      <trkpt lat="48.09546" lon="7.67136">
        <ele>400.5264893</ele>
        <time>2010-09-15T07:55:00Z</time>
      </trkpt>
      <trkpt lat="48.0955" lon="7.67148">
        <ele>402.4490967</ele>
        <time>2010-09-15T07:55:12Z</time>
      </trkpt>
      <trkpt lat="48.09551" lon="7.67159">
        <ele>402.4490967</ele>
        <time>2010-09-15T07:55:22Z</time>
      </trkpt>
      <trkpt lat="48.09552" lon="7.67172">
        <ele>404.3717041</ele>
        <time>2010-09-15T07:55:33Z</time>
      </trkpt>
      <trkpt lat="48.09553" lon="7.67181">
        <ele>405.3330078</ele>
        <time>2010-09-15T07:55:41Z</time>
      </trkpt>
      <trkpt lat="48.09554" lon="7.67194">
        <ele>405.3330078</ele>
        <time>2010-09-15T07:55:52Z</time>
      </trkpt>
      <trkpt lat="48.09555" lon="7.67209">
        <ele>407.7363281</ele>
        <time>2010-09-15T07:56:04Z</time>
      </trkpt>
      <trkpt lat="48.09554" lon="7.67217">
        <ele>404.8522949</ele>
        <time>2010-09-15T07:56:10Z</time>
      </trkpt>
      <trkpt lat="48.09553" lon="7.67235">
        <ele>406.2943115</ele>
        <time>2010-09-15T07:56:22Z</time>
      </trkpt>
      <trkpt lat="48.09552" lon="7.67243">
        <ele>408.217041</ele>
        <time>2010-09-15T07:56:28Z</time>
      </trkpt>
      <trkpt lat="48.09551" lon="7.6726">
        <ele>409.6590576</ele>
        <time>2010-09-15T07:56:41Z</time>
      </trkpt>
      <trkpt lat="48.09551" lon="7.67261">
        <ele>409.6590576</ele>
        <time>2010-09-15T07:56:42Z</time>
      </trkpt>
      <trkpt lat="48.09549" lon="7.67277">
        <ele>410.1396484</ele>
        <time>2010-09-15T07:56:55Z</time>
      </trkpt>
      <trkpt lat="48.09546" lon="7.67291">
        <ele>411.581665</ele>
        <time>2010-09-15T07:57:07Z</time>
      </trkpt>
      <trkpt lat="48.09544" lon="7.67303">
        <ele>411.581665</ele>
        <time>2010-09-15T07:57:20Z</time>
      </trkpt>
      <trkpt lat="48.09542" lon="7.67313">
        <ele>413.5042725</ele>
        <time>2010-09-15T07:57:32Z</time>
      </trkpt>
      <trkpt lat="48.09542" lon="7.6732">
        <ele>416.8688965</ele>
        <time>2010-09-15T07:57:41Z</time>
      </trkpt>
      <trkpt lat="48.09541" lon="7.67321">
        <ele>416.8688965</ele>
        <time>2010-09-15T07:57:42Z</time>
      </trkpt>
      <trkpt lat="48.09539" lon="7.6733">
        <ele>417.8302002</ele>
        <time>2010-09-15T07:57:54Z</time>
      </trkpt>
      <trkpt lat="48.09537" lon="7.6734">
        <ele>420.7141113</ele>
        <time>2010-09-15T07:58:07Z</time>
      </trkpt>
      <trkpt lat="48.09535" lon="7.67345">
        <ele>423.5980225</ele>
        <time>2010-09-15T07:58:14Z</time>
      </trkpt>
      <trkpt lat="48.09535" lon="7.67346">
        <ele>423.5980225</ele>
        <time>2010-09-15T07:58:15Z</time>
      </trkpt>
      <trkpt lat="48.09532" lon="7.67359">
        <ele>423.1174316</ele>
        <time>2010-09-15T07:58:29Z</time>
      </trkpt>
      <trkpt lat="48.09527" lon="7.67371">
        <ele>423.5980225</ele>
        <time>2010-09-15T07:58:42Z</time>
      </trkpt>
      <trkpt lat="48.09527" lon="7.67374">
        <ele>424.0787354</ele>
        <time>2010-09-15T07:59:01Z</time>
      </trkpt>
      <trkpt lat="48.09527" lon="7.67376">
        <ele>421.675415</ele>
        <time>2010-09-15T07:59:12Z</time>
      </trkpt>
      <trkpt lat="48.09527" lon="7.67386">
        <ele>421.1948242</ele>
        <time>2010-09-15T07:59:21Z</time>
      </trkpt>
      <trkpt lat="48.09526" lon="7.67397">
        <ele>418.7915039</ele>
        <time>2010-09-15T07:59:31Z</time>
      </trkpt>
      <trkpt lat="48.09528" lon="7.67407">
        <ele>417.3496094</ele>
        <time>2010-09-15T07:59:40Z</time>
      </trkpt>
      <trkpt lat="48.09529" lon="7.6742">
        <ele>415.9074707</ele>
        <time>2010-09-15T07:59:51Z</time>
      </trkpt>
      <trkpt lat="48.09531" lon="7.67433">
        <ele>413.9848633</ele>
        <time>2010-09-15T08:00:02Z</time>
      </trkpt>
      <trkpt lat="48.09532" lon="7.67434">
        <ele>414.4654541</ele>
        <time>2010-09-15T08:00:03Z</time>
      </trkpt>
      <trkpt lat="48.09536" lon="7.67449">
        <ele>412.5428467</ele>
        <time>2010-09-15T08:00:14Z</time>
      </trkpt>
      <trkpt lat="48.09534" lon="7.67463">
        <ele>410.1396484</ele>
        <time>2010-09-15T08:00:25Z</time>
      </trkpt>
      <trkpt lat="48.09533" lon="7.67478">
        <ele>408.217041</ele>
        <time>2010-09-15T08:00:35Z</time>
      </trkpt>
      <trkpt lat="48.09534" lon="7.67492">
        <ele>407.7363281</ele>
        <time>2010-09-15T08:00:45Z</time>
      </trkpt>
      <trkpt lat="48.09535" lon="7.67511">
        <ele>406.2943115</ele>
        <time>2010-09-15T08:00:59Z</time>
      </trkpt>
      <trkpt lat="48.09535" lon="7.67515">
        <ele>406.7749023</ele>
        <time>2010-09-15T08:01:02Z</time>
      </trkpt>
      <trkpt lat="48.09536" lon="7.6752">
        <ele>406.7749023</ele>
        <time>2010-09-15T08:01:06Z</time>
      </trkpt>
      <trkpt lat="48.09538" lon="7.67532">
        <ele>408.6976318</ele>
        <time>2010-09-15T08:01:14Z</time>
      </trkpt>
      <trkpt lat="48.0954" lon="7.67547">
        <ele>407.7363281</ele>
        <time>2010-09-15T08:01:24Z</time>
      </trkpt>
      <trkpt lat="48.09542" lon="7.67559">
        <ele>405.8137207</ele>
        <time>2010-09-15T08:01:34Z</time>
      </trkpt>
      <trkpt lat="48.09543" lon="7.67568">
        <ele>406.2943115</ele>
        <time>2010-09-15T08:01:42Z</time>
      </trkpt>
      <trkpt lat="48.09545" lon="7.67582">
        <ele>407.2556152</ele>
        <time>2010-09-15T08:01:53Z</time>
      </trkpt>
      <trkpt lat="48.09549" lon="7.67597">
        <ele>409.1783447</ele>
        <time>2010-09-15T08:02:05Z</time>
      </trkpt>
      <trkpt lat="48.09554" lon="7.6761">
        <ele>411.581665</ele>
        <time>2010-09-15T08:02:18Z</time>
      </trkpt>
      <trkpt lat="48.09556" lon="7.67616">
        <ele>414.4654541</ele>
        <time>2010-09-15T08:02:25Z</time>
      </trkpt>
      <trkpt lat="48.09556" lon="7.67617">
        <ele>414.4654541</ele>
        <time>2010-09-15T08:02:26Z</time>
      </trkpt>
      <trkpt lat="48.0956" lon="7.67628">
        <ele>416.3881836</ele>
        <time>2010-09-15T08:02:37Z</time>
      </trkpt>
      <trkpt lat="48.0956" lon="7.6763">
        <ele>417.3496094</ele>
        <time>2010-09-15T08:02:39Z</time>
      </trkpt>
      <trkpt lat="48.09563" lon="7.6764">
        <ele>420.7141113</ele>
        <time>2010-09-15T08:02:51Z</time>
      </trkpt>
      <trkpt lat="48.09566" lon="7.67649">
        <ele>422.1560059</ele>
        <time>2010-09-15T08:03:02Z</time>
      </trkpt>
      <trkpt lat="48.09567" lon="7.67655">
        <ele>424.5594482</ele>
        <time>2010-09-15T08:03:09Z</time>
      </trkpt>
      <trkpt lat="48.09569" lon="7.67663">
        <ele>425.0401611</ele>
        <time>2010-09-15T08:03:19Z</time>
      </trkpt>
      <trkpt lat="48.09571" lon="7.67668">
        <ele>425.520752</ele>
        <time>2010-09-15T08:03:28Z</time>
      </trkpt>
      <trkpt lat="48.09572" lon="7.6767">
        <ele>426.9627686</ele>
        <time>2010-09-15T08:03:31Z</time>
      </trkpt>
      <trkpt lat="48.09575" lon="7.67676">
        <ele>428.885376</ele>
        <time>2010-09-15T08:03:41Z</time>
      </trkpt>
      <trkpt lat="48.09578" lon="7.67682">
        <ele>430.3272705</ele>
        <time>2010-09-15T08:03:52Z</time>
      </trkpt>
      <trkpt lat="48.09581" lon="7.67687">
        <ele>433.2113037</ele>
        <time>2010-09-15T08:04:01Z</time>
      </trkpt>
      <trkpt lat="48.09584" lon="7.67692">
        <ele>434.6533203</ele>
        <time>2010-09-15T08:04:10Z</time>
      </trkpt>
      <trkpt lat="48.09587" lon="7.67697">
        <ele>438.979126</ele>
        <time>2010-09-15T08:04:18Z</time>
      </trkpt>
      <trkpt lat="48.09587" lon="7.67699">
        <ele>438.0178223</ele>
        <time>2010-09-15T08:04:19Z</time>
      </trkpt>
      <trkpt lat="48.09588" lon="7.67701">
        <ele>440.9018555</ele>
        <time>2010-09-15T08:04:22Z</time>
      </trkpt>
      <trkpt lat="48.0959" lon="7.67709">
        <ele>439.4597168</ele>
        <time>2010-09-15T08:04:31Z</time>
      </trkpt>
      <trkpt lat="48.0959" lon="7.67714">
        <ele>440.9018555</ele>
        <time>2010-09-15T08:04:37Z</time>
      </trkpt>
      <trkpt lat="48.09588" lon="7.67725">
        <ele>441.8631592</ele>
        <time>2010-09-15T08:04:48Z</time>
      </trkpt>
      <trkpt lat="48.09585" lon="7.67732">
        <ele>442.8244629</ele>
        <time>2010-09-15T08:06:07Z</time>
      </trkpt>
      <trkpt lat="48.09585" lon="7.67733">
        <ele>443.3050537</ele>
        <time>2010-09-15T08:06:08Z</time>
      </trkpt>
      <trkpt lat="48.09579" lon="7.67746">
        <ele>443.7857666</ele>
        <time>2010-09-15T08:06:17Z</time>
      </trkpt>
      <trkpt lat="48.09576" lon="7.67752">
        <ele>443.7857666</ele>
        <time>2010-09-15T08:06:21Z</time>
      </trkpt>
      <trkpt lat="48.09573" lon="7.67758">
        <ele>443.3050537</ele>
        <time>2010-09-15T08:06:25Z</time>
      </trkpt>
      <trkpt lat="48.0957" lon="7.67766">
        <ele>440.9018555</ele>
        <time>2010-09-15T08:06:31Z</time>
      </trkpt>
      <trkpt lat="48.09569" lon="7.67769">
        <ele>438.979126</ele>
        <time>2010-09-15T08:06:33Z</time>
      </trkpt>
      <trkpt lat="48.09566" lon="7.67782">
        <ele>438.979126</ele>
        <time>2010-09-15T08:06:41Z</time>
      </trkpt>
      <trkpt lat="48.09564" lon="7.67786">
        <ele>437.0565186</ele>
        <time>2010-09-15T08:06:44Z</time>
      </trkpt>
      <trkpt lat="48.09564" lon="7.67788">
        <ele>437.0565186</ele>
        <time>2010-09-15T08:06:45Z</time>
      </trkpt>
      <trkpt lat="48.09562" lon="7.67799">
        <ele>434.1726074</ele>
        <time>2010-09-15T08:06:52Z</time>
      </trkpt>
      <trkpt lat="48.09557" lon="7.67816">
        <ele>432.25</ele>
        <time>2010-09-15T08:07:03Z</time>
      </trkpt>
      <trkpt lat="48.09552" lon="7.67835">
        <ele>432.25</ele>
        <time>2010-09-15T08:07:15Z</time>
      </trkpt>
      <trkpt lat="48.09547" lon="7.67854">
        <ele>432.7307129</ele>
        <time>2010-09-15T08:07:27Z</time>
      </trkpt>
      <trkpt lat="48.09543" lon="7.67873">
        <ele>431.2885742</ele>
        <time>2010-09-15T08:07:40Z</time>
      </trkpt>
      <trkpt lat="48.09541" lon="7.67888">
        <ele>433.6918945</ele>
        <time>2010-09-15T08:07:51Z</time>
      </trkpt>
      <trkpt lat="48.09539" lon="7.67895">
        <ele>436.0952148</ele>
        <time>2010-09-15T08:07:56Z</time>
      </trkpt>
      <trkpt lat="48.09538" lon="7.6791">
        <ele>437.0565186</ele>
        <time>2010-09-15T08:08:06Z</time>
      </trkpt>
      <trkpt lat="48.09537" lon="7.67927">
        <ele>438.979126</ele>
        <time>2010-09-15T08:08:19Z</time>
      </trkpt>
      <trkpt lat="48.09537" lon="7.67943">
        <ele>441.3824463</ele>
        <time>2010-09-15T08:08:30Z</time>
      </trkpt>
      <trkpt lat="48.09539" lon="7.67959">
        <ele>438.979126</ele>
        <time>2010-09-15T08:08:40Z</time>
      </trkpt>
      <trkpt lat="48.0954" lon="7.67966">
        <ele>438.979126</ele>
        <time>2010-09-15T08:08:48Z</time>
      </trkpt>
      <trkpt lat="48.09541" lon="7.67982">
        <ele>435.614502</ele>
        <time>2010-09-15T08:08:58Z</time>
      </trkpt>
      <trkpt lat="48.09541" lon="7.68003">
        <ele>435.614502</ele>
        <time>2010-09-15T08:09:09Z</time>
      </trkpt>
      <trkpt lat="48.09543" lon="7.68019">
        <ele>435.614502</ele>
        <time>2010-09-15T08:09:18Z</time>
      </trkpt>
      <trkpt lat="48.09546" lon="7.68042">
        <ele>436.5759277</ele>
        <time>2010-09-15T08:09:31Z</time>
      </trkpt>
      <trkpt lat="48.09552" lon="7.6806">
        <ele>434.6533203</ele>
        <time>2010-09-15T08:09:43Z</time>
      </trkpt>
      <trkpt lat="48.0956" lon="7.68077">
        <ele>433.2113037</ele>
        <time>2010-09-15T08:09:54Z</time>
      </trkpt>
      <trkpt lat="48.09561" lon="7.68078">
        <ele>433.2113037</ele>
        <time>2010-09-15T08:09:55Z</time>
      </trkpt>
      <trkpt lat="48.09568" lon="7.68086">
        <ele>433.2113037</ele>
        <time>2010-09-15T08:10:03Z</time>
      </trkpt>
      <trkpt lat="48.09573" lon="7.68088">
        <ele>432.7307129</ele>
        <time>2010-09-15T08:10:07Z</time>
      </trkpt>
      <trkpt lat="48.09586" lon="7.68094">
        <ele>432.25</ele>
        <time>2010-09-15T08:10:19Z</time>
      </trkpt>
      <trkpt lat="48.09598" lon="7.68099">
        <ele>431.769165</ele>
        <time>2010-09-15T08:10:30Z</time>
      </trkpt>
      <trkpt lat="48.09601" lon="7.681">
        <ele>432.25</ele>
        <time>2010-09-15T08:10:33Z</time>
      </trkpt>
      <trkpt lat="48.0961" lon="7.68105">
        <ele>432.7307129</ele>
        <time>2010-09-15T08:10:43Z</time>
      </trkpt>
      <trkpt lat="48.09621" lon="7.68116">
        <ele>433.6918945</ele>
        <time>2010-09-15T08:10:55Z</time>
      </trkpt>
      <trkpt lat="48.09626" lon="7.68122">
        <ele>434.6533203</ele>
        <time>2010-09-15T08:11:00Z</time>
      </trkpt>
      <trkpt lat="48.0963" lon="7.68128">
        <ele>435.614502</ele>
        <time>2010-09-15T08:11:06Z</time>
      </trkpt>
      <trkpt lat="48.09633" lon="7.68132">
        <ele>438.979126</ele>
        <time>2010-09-15T08:11:10Z</time>
      </trkpt>
      <trkpt lat="48.09634" lon="7.68133">
        <ele>438.979126</ele>
        <time>2010-09-15T08:11:11Z</time>
      </trkpt>
      <trkpt lat="48.09637" lon="7.68138">
        <ele>438.0178223</ele>
        <time>2010-09-15T08:11:15Z</time>
      </trkpt>
      <trkpt lat="48.09644" lon="7.68151">
        <ele>438.0178223</ele>
        <time>2010-09-15T08:11:26Z</time>
      </trkpt>
      <trkpt lat="48.09653" lon="7.68164">
        <ele>436.0952148</ele>
        <time>2010-09-15T08:11:37Z</time>
      </trkpt>
      <trkpt lat="48.09661" lon="7.68175">
        <ele>434.1726074</ele>
        <time>2010-09-15T08:11:47Z</time>
      </trkpt>
      <trkpt lat="48.09671" lon="7.68186">
        <ele>433.2113037</ele>
        <time>2010-09-15T08:11:59Z</time>
      </trkpt>
      <trkpt lat="48.09676" lon="7.6819">
        <ele>434.6533203</ele>
        <time>2010-09-15T08:12:04Z</time>
      </trkpt>
      <trkpt lat="48.09681" lon="7.68194">
        <ele>434.6533203</ele>
        <time>2010-09-15T08:12:10Z</time>
      </trkpt>
      <trkpt lat="48.09685" lon="7.68197">
        <ele>433.6918945</ele>
        <time>2010-09-15T08:12:16Z</time>
      </trkpt>
      <trkpt lat="48.09694" lon="7.68202">
        <ele>434.1726074</ele>
        <time>2010-09-15T08:12:26Z</time>
      </trkpt>
      <trkpt lat="48.09695" lon="7.68202">
        <ele>434.1726074</ele>
        <time>2010-09-15T08:12:27Z</time>
      </trkpt>
      <trkpt lat="48.09707" lon="7.68206">
        <ele>435.1339111</ele>
        <time>2010-09-15T08:12:40Z</time>
      </trkpt>
      <trkpt lat="48.0971" lon="7.68207">
        <ele>433.2113037</ele>
        <time>2010-09-15T08:12:43Z</time>
      </trkpt>
      <trkpt lat="48.09721" lon="7.68209">
        <ele>433.6918945</ele>
        <time>2010-09-15T08:12:54Z</time>
      </trkpt>
      <trkpt lat="48.09728" lon="7.6821">
        <ele>438.0178223</ele>
        <time>2010-09-15T08:13:02Z</time>
      </trkpt>
      <trkpt lat="48.09732" lon="7.68211">
        <ele>434.6533203</ele>
        <time>2010-09-15T08:13:06Z</time>
      </trkpt>
      <trkpt lat="48.09735" lon="7.68211">
        <ele>436.0952148</ele>
        <time>2010-09-15T08:13:09Z</time>
      </trkpt>
      <trkpt lat="48.09741" lon="7.68214">
        <ele>434.6533203</ele>
        <time>2010-09-15T08:13:17Z</time>
      </trkpt>
      <trkpt lat="48.09747" lon="7.6822">
        <ele>434.1726074</ele>
        <time>2010-09-15T08:13:28Z</time>
      </trkpt>
      <trkpt lat="48.0975" lon="7.68227">
        <ele>431.769165</ele>
        <time>2010-09-15T08:13:38Z</time>
      </trkpt>
      <trkpt lat="48.09751" lon="7.68234">
        <ele>430.3272705</ele>
        <time>2010-09-15T08:13:45Z</time>
      </trkpt>
      <trkpt lat="48.09753" lon="7.68244">
        <ele>428.885376</ele>
        <time>2010-09-15T08:13:56Z</time>
      </trkpt>
      <trkpt lat="48.09754" lon="7.68246">
        <ele>426.9627686</ele>
        <time>2010-09-15T08:14:04Z</time>
      </trkpt>
      <trkpt lat="48.09755" lon="7.68253">
        <ele>424.5594482</ele>
        <time>2010-09-15T08:14:12Z</time>
      </trkpt>
      <trkpt lat="48.09757" lon="7.68256">
        <ele>423.5980225</ele>
        <time>2010-09-15T08:14:16Z</time>
      </trkpt>
      <trkpt lat="48.0976" lon="7.68268">
        <ele>421.675415</ele>
        <time>2010-09-15T08:14:28Z</time>
      </trkpt>
      <trkpt lat="48.09762" lon="7.68278">
        <ele>420.7141113</ele>
        <time>2010-09-15T08:14:38Z</time>
      </trkpt>
      <trkpt lat="48.09765" lon="7.68287">
        <ele>419.2722168</ele>
        <time>2010-09-15T08:14:48Z</time>
      </trkpt>
      <trkpt lat="48.09768" lon="7.68298">
        <ele>420.2333984</ele>
        <time>2010-09-15T08:14:58Z</time>
      </trkpt>
      <trkpt lat="48.0977" lon="7.68306">
        <ele>416.8688965</ele>
        <time>2010-09-15T08:15:05Z</time>
      </trkpt>
      <trkpt lat="48.09771" lon="7.68307">
        <ele>416.3881836</ele>
        <time>2010-09-15T08:15:06Z</time>
      </trkpt>
      <trkpt lat="48.09773" lon="7.68314">
        <ele>415.4268799</ele>
        <time>2010-09-15T08:15:12Z</time>
      </trkpt>
      <trkpt lat="48.09779" lon="7.6833">
        <ele>416.8688965</ele>
        <time>2010-09-15T08:15:25Z</time>
      </trkpt>
      <trkpt lat="48.09783" lon="7.68345">
        <ele>416.3881836</ele>
        <time>2010-09-15T08:15:36Z</time>
      </trkpt>
      <trkpt lat="48.09785" lon="7.68351">
        <ele>413.5042725</ele>
        <time>2010-09-15T08:15:45Z</time>
      </trkpt>
      <trkpt lat="48.09789" lon="7.68367">
        <ele>411.581665</ele>
        <time>2010-09-15T08:15:56Z</time>
      </trkpt>
      <trkpt lat="48.09793" lon="7.68381">
        <ele>409.1783447</ele>
        <time>2010-09-15T08:16:06Z</time>
      </trkpt>
      <trkpt lat="48.09797" lon="7.68393">
        <ele>409.6590576</ele>
        <time>2010-09-15T08:16:16Z</time>
      </trkpt>
      <trkpt lat="48.09797" lon="7.68394">
        <ele>408.6976318</ele>
        <time>2010-09-15T08:16:17Z</time>
      </trkpt>
      <trkpt lat="48.09803" lon="7.68414">
        <ele>408.6976318</ele>
        <time>2010-09-15T08:16:31Z</time>
      </trkpt>
      <trkpt lat="48.09806" lon="7.68429">
        <ele>408.217041</ele>
        <time>2010-09-15T08:16:41Z</time>
      </trkpt>
      <trkpt lat="48.09809" lon="7.68439">
        <ele>405.8137207</ele>
        <time>2010-09-15T08:16:49Z</time>
      </trkpt>
      <trkpt lat="48.09811" lon="7.6845">
        <ele>405.8137207</ele>
        <time>2010-09-15T08:16:56Z</time>
      </trkpt>
      <trkpt lat="48.09814" lon="7.68461">
        <ele>403.4104004</ele>
        <time>2010-09-15T08:17:04Z</time>
      </trkpt>
      <trkpt lat="48.09819" lon="7.68475">
        <ele>401.9685059</ele>
        <time>2010-09-15T08:17:16Z</time>
      </trkpt>
      <trkpt lat="48.09825" lon="7.68488">
        <ele>400.0458984</ele>
        <time>2010-09-15T08:17:29Z</time>
      </trkpt>
      <trkpt lat="48.0983" lon="7.68497">
        <ele>398.6037598</ele>
        <time>2010-09-15T08:17:39Z</time>
      </trkpt>
      <trkpt lat="48.09835" lon="7.68506">
        <ele>396.6811523</ele>
        <time>2010-09-15T08:17:49Z</time>
      </trkpt>
      <trkpt lat="48.09842" lon="7.68516">
        <ele>395.2391357</ele>
        <time>2010-09-15T08:18:00Z</time>
      </trkpt>
      <trkpt lat="48.09846" lon="7.68547">
        <ele>391.8745117</ele>
        <time>2010-09-15T08:20:44Z</time>
      </trkpt>
      <trkpt lat="48.0985" lon="7.68594">
        <ele>399.5650635</ele>
        <time>2010-09-15T08:22:13Z</time>
      </trkpt>
      <trkpt lat="48.09856" lon="7.68608">
        <ele>402.9296875</ele>
        <time>2010-09-15T08:22:28Z</time>
      </trkpt>
      <trkpt lat="48.09862" lon="7.68617">
        <ele>405.3330078</ele>
        <time>2010-09-15T08:22:38Z</time>
      </trkpt>
      <trkpt lat="48.09864" lon="7.68621">
        <ele>404.8522949</ele>
        <time>2010-09-15T08:22:42Z</time>
      </trkpt>
      <trkpt lat="48.09874" lon="7.68635">
        <ele>405.3330078</ele>
        <time>2010-09-15T08:22:56Z</time>
      </trkpt>
      <trkpt lat="48.09883" lon="7.68658">
        <ele>403.4104004</ele>
        <time>2010-09-15T08:23:15Z</time>
      </trkpt>
      <trkpt lat="48.09888" lon="7.68675">
        <ele>402.4490967</ele>
        <time>2010-09-15T08:23:27Z</time>
      </trkpt>
      <trkpt lat="48.09891" lon="7.6869">
        <ele>401.487793</ele>
        <time>2010-09-15T08:23:38Z</time>
      </trkpt>
      <trkpt lat="48.09895" lon="7.68702">
        <ele>400.0458984</ele>
        <time>2010-09-15T08:23:47Z</time>
      </trkpt>
      <trkpt lat="48.09899" lon="7.68723">
        <ele>401.0070801</ele>
        <time>2010-09-15T08:24:00Z</time>
      </trkpt>
      <trkpt lat="48.09904" lon="7.68745">
        <ele>400.5264893</ele>
        <time>2010-09-15T08:24:15Z</time>
      </trkpt>
      <trkpt lat="48.09907" lon="7.68762">
        <ele>402.9296875</ele>
        <time>2010-09-15T08:24:27Z</time>
      </trkpt>
      <trkpt lat="48.09911" lon="7.68774">
        <ele>402.9296875</ele>
        <time>2010-09-15T08:24:38Z</time>
      </trkpt>
      <trkpt lat="48.09916" lon="7.68787">
        <ele>405.3330078</ele>
        <time>2010-09-15T08:24:49Z</time>
      </trkpt>
      <trkpt lat="48.0992" lon="7.68801">
        <ele>407.7363281</ele>
        <time>2010-09-15T08:25:01Z</time>
      </trkpt>
      <trkpt lat="48.09924" lon="7.68809">
        <ele>409.6590576</ele>
        <time>2010-09-15T08:25:09Z</time>
      </trkpt>
      <trkpt lat="48.09926" lon="7.68812">
        <ele>408.217041</ele>
        <time>2010-09-15T08:25:11Z</time>
      </trkpt>
      <trkpt lat="48.09934" lon="7.68823">
        <ele>408.217041</ele>
        <time>2010-09-15T08:25:24Z</time>
      </trkpt>
      <trkpt lat="48.09942" lon="7.68832">
        <ele>404.8522949</ele>
        <time>2010-09-15T08:25:35Z</time>
      </trkpt>
      <trkpt lat="48.09942" lon="7.68833">
        <ele>404.8522949</ele>
        <time>2010-09-15T08:25:36Z</time>
      </trkpt>
      <trkpt lat="48.0995" lon="7.68849">
        <ele>402.9296875</ele>
        <time>2010-09-15T08:25:50Z</time>
      </trkpt>
      <trkpt lat="48.09956" lon="7.68863">
        <ele>402.9296875</ele>
        <time>2010-09-15T08:26:00Z</time>
      </trkpt>
      <trkpt lat="48.09964" lon="7.68872">
        <ele>401.9685059</ele>
        <time>2010-09-15T08:26:10Z</time>
      </trkpt>
      <trkpt lat="48.09964" lon="7.68872">
        <ele>401.9685059</ele>
        <time>2010-09-15T08:26:20Z</time>
      </trkpt>
      <trkpt lat="48.09964" lon="7.68872">
        <ele>401.487793</ele>
        <time>2010-09-15T08:26:34Z</time>
      </trkpt>
      <trkpt lat="48.09966" lon="7.68876">
        <ele>401.9685059</ele>
        <time>2010-09-15T08:29:07Z</time>
      </trkpt>
      <trkpt lat="48.09965" lon="7.68882">
        <ele>402.4490967</ele>
        <time>2010-09-15T08:29:12Z</time>
      </trkpt>
      <trkpt lat="48.09967" lon="7.68901">
        <ele>402.4490967</ele>
        <time>2010-09-15T08:29:24Z</time>
      </trkpt>
      <trkpt lat="48.09968" lon="7.68909">
        <ele>401.9685059</ele>
        <time>2010-09-15T08:29:33Z</time>
      </trkpt>
      <trkpt lat="48.09968" lon="7.68913">
        <ele>403.4104004</ele>
        <time>2010-09-15T08:29:36Z</time>
      </trkpt>
      <trkpt lat="48.09969" lon="7.68935">
        <ele>401.9685059</ele>
        <time>2010-09-15T08:29:48Z</time>
      </trkpt>
      <trkpt lat="48.0997" lon="7.68955">
        <ele>402.9296875</ele>
        <time>2010-09-15T08:30:00Z</time>
      </trkpt>
      <trkpt lat="48.09969" lon="7.68971">
        <ele>403.4104004</ele>
        <time>2010-09-15T08:30:11Z</time>
      </trkpt>
      <trkpt lat="48.09968" lon="7.68991">
        <ele>404.3717041</ele>
        <time>2010-09-15T08:30:24Z</time>
      </trkpt>
      <trkpt lat="48.09966" lon="7.69008">
        <ele>404.3717041</ele>
        <time>2010-09-15T08:30:36Z</time>
      </trkpt>
      <trkpt lat="48.09962" lon="7.69022">
        <ele>407.7363281</ele>
        <time>2010-09-15T08:30:47Z</time>
      </trkpt>
      <trkpt lat="48.09962" lon="7.69028">
        <ele>407.2556152</ele>
        <time>2010-09-15T08:30:51Z</time>
      </trkpt>
      <trkpt lat="48.09963" lon="7.69049">
        <ele>408.217041</ele>
        <time>2010-09-15T08:31:05Z</time>
      </trkpt>
      <trkpt lat="48.09961" lon="7.69065">
        <ele>408.217041</ele>
        <time>2010-09-15T08:31:16Z</time>
      </trkpt>
      <trkpt lat="48.09959" lon="7.69082">
        <ele>410.6202393</ele>
        <time>2010-09-15T08:31:28Z</time>
      </trkpt>
      <trkpt lat="48.09956" lon="7.69096">
        <ele>412.0622559</ele>
        <time>2010-09-15T08:31:39Z</time>
      </trkpt>
      <trkpt lat="48.09954" lon="7.69111">
        <ele>413.9848633</ele>
        <time>2010-09-15T08:31:51Z</time>
      </trkpt>
      <trkpt lat="48.09954" lon="7.69127">
        <ele>414.946167</ele>
        <time>2010-09-15T08:32:02Z</time>
      </trkpt>
      <trkpt lat="48.09954" lon="7.69145">
        <ele>415.4268799</ele>
        <time>2010-09-15T08:32:14Z</time>
      </trkpt>
      <trkpt lat="48.09954" lon="7.69164">
        <ele>415.9074707</ele>
        <time>2010-09-15T08:32:26Z</time>
      </trkpt>
      <trkpt lat="48.09953" lon="7.69184">
        <ele>415.4268799</ele>
        <time>2010-09-15T08:32:39Z</time>
      </trkpt>
      <trkpt lat="48.09951" lon="7.69205">
        <ele>416.3881836</ele>
        <time>2010-09-15T08:32:53Z</time>
      </trkpt>
      <trkpt lat="48.09948" lon="7.6922">
        <ele>417.8302002</ele>
        <time>2010-09-15T08:33:04Z</time>
      </trkpt>
      <trkpt lat="48.09947" lon="7.69226">
        <ele>417.3496094</ele>
        <time>2010-09-15T08:33:14Z</time>
      </trkpt>
      <trkpt lat="48.09947" lon="7.69235">
        <ele>417.8302002</ele>
        <time>2010-09-15T08:33:21Z</time>
      </trkpt>
      <trkpt lat="48.09946" lon="7.69251">
        <ele>418.310791</ele>
        <time>2010-09-15T08:33:31Z</time>
      </trkpt>
      <trkpt lat="48.09945" lon="7.69267">
        <ele>417.8302002</ele>
        <time>2010-09-15T08:33:41Z</time>
      </trkpt>
      <trkpt lat="48.09943" lon="7.69285">
        <ele>418.310791</ele>
        <time>2010-09-15T08:33:53Z</time>
      </trkpt>
      <trkpt lat="48.09939" lon="7.69309">
        <ele>419.2722168</ele>
        <time>2010-09-15T08:34:08Z</time>
      </trkpt>
      <trkpt lat="48.09935" lon="7.69326">
        <ele>418.7915039</ele>
        <time>2010-09-15T08:34:20Z</time>
      </trkpt>
      <trkpt lat="48.09928" lon="7.6934">
        <ele>420.2333984</ele>
        <time>2010-09-15T08:34:32Z</time>
      </trkpt>
      <trkpt lat="48.09926" lon="7.69342">
        <ele>420.2333984</ele>
        <time>2010-09-15T08:34:34Z</time>
      </trkpt>
      <trkpt lat="48.09917" lon="7.69355">
        <ele>421.675415</ele>
        <time>2010-09-15T08:34:46Z</time>
      </trkpt>
      <trkpt lat="48.09911" lon="7.69371">
        <ele>421.675415</ele>
        <time>2010-09-15T08:34:57Z</time>
      </trkpt>
      <trkpt lat="48.09907" lon="7.6939">
        <ele>422.6367188</ele>
        <time>2010-09-15T08:35:09Z</time>
      </trkpt>
      <trkpt lat="48.09905" lon="7.6941">
        <ele>422.1560059</ele>
        <time>2010-09-15T08:35:21Z</time>
      </trkpt>
      <trkpt lat="48.09905" lon="7.69426">
        <ele>422.1560059</ele>
        <time>2010-09-15T08:35:30Z</time>
      </trkpt>
      <trkpt lat="48.099" lon="7.6944">
        <ele>421.1948242</ele>
        <time>2010-09-15T08:35:40Z</time>
      </trkpt>
      <trkpt lat="48.09893" lon="7.69453">
        <ele>421.675415</ele>
        <time>2010-09-15T08:35:51Z</time>
      </trkpt>
      <trkpt lat="48.09884" lon="7.69463">
        <ele>422.1560059</ele>
        <time>2010-09-15T08:36:02Z</time>
      </trkpt>
      <trkpt lat="48.09872" lon="7.69473">
        <ele>423.1174316</ele>
        <time>2010-09-15T08:36:14Z</time>
      </trkpt>
      <trkpt lat="48.09861" lon="7.69482">
        <ele>424.5594482</ele>
        <time>2010-09-15T08:36:25Z</time>
      </trkpt>
      <trkpt lat="48.0985" lon="7.69489">
        <ele>424.5594482</ele>
        <time>2010-09-15T08:36:37Z</time>
      </trkpt>
      <trkpt lat="48.09839" lon="7.69496">
        <ele>424.5594482</ele>
        <time>2010-09-15T08:36:48Z</time>
      </trkpt>
      <trkpt lat="48.09827" lon="7.69504">
        <ele>426.0013428</ele>
        <time>2010-09-15T08:37:01Z</time>
      </trkpt>
      <trkpt lat="48.09821" lon="7.69508">
        <ele>425.520752</ele>
        <time>2010-09-15T08:37:09Z</time>
      </trkpt>
      <trkpt lat="48.09818" lon="7.69511">
        <ele>426.4820557</ele>
        <time>2010-09-15T08:37:12Z</time>
      </trkpt>
      <trkpt lat="48.09807" lon="7.6952">
        <ele>425.520752</ele>
        <time>2010-09-15T08:37:24Z</time>
      </trkpt>
      <trkpt lat="48.09798" lon="7.69529">
        <ele>426.4820557</ele>
        <time>2010-09-15T08:37:34Z</time>
      </trkpt>
      <trkpt lat="48.09789" lon="7.6954">
        <ele>426.4820557</ele>
        <time>2010-09-15T08:37:46Z</time>
      </trkpt>
      <trkpt lat="48.09781" lon="7.69553">
        <ele>427.4433594</ele>
        <time>2010-09-15T08:37:59Z</time>
      </trkpt>
      <trkpt lat="48.09774" lon="7.69569">
        <ele>428.4046631</ele>
        <time>2010-09-15T08:38:11Z</time>
      </trkpt>
      <trkpt lat="48.0977" lon="7.69586">
        <ele>429.3659668</ele>
        <time>2010-09-15T08:38:24Z</time>
      </trkpt>
      <trkpt lat="48.09767" lon="7.69601">
        <ele>432.7307129</ele>
        <time>2010-09-15T08:38:35Z</time>
      </trkpt>
      <trkpt lat="48.09769" lon="7.69622">
        <ele>434.1726074</ele>
        <time>2010-09-15T08:39:06Z</time>
      </trkpt>
      <trkpt lat="48.09771" lon="7.69631">
        <ele>435.1339111</ele>
        <time>2010-09-15T08:38:58Z</time>
      </trkpt>
      <trkpt lat="48.09772" lon="7.69636">
        <ele>437.5371094</ele>
        <time>2010-09-15T08:39:02Z</time>
      </trkpt>
      <trkpt lat="48.09775" lon="7.6965">
        <ele>437.5371094</ele>
        <time>2010-09-15T08:39:13Z</time>
      </trkpt>
      <trkpt lat="48.09795" lon="7.69652">
        <ele>438.979126</ele>
        <time>2010-09-15T08:42:47Z</time>
      </trkpt>
      <trkpt lat="48.09808" lon="7.69651">
        <ele>440.4212646</ele>
        <time>2010-09-15T08:43:01Z</time>
      </trkpt>
      <trkpt lat="48.09821" lon="7.69652">
        <ele>442.3438721</ele>
        <time>2010-09-15T08:43:14Z</time>
      </trkpt>
      <trkpt lat="48.09834" lon="7.69655">
        <ele>444.2664795</ele>
        <time>2010-09-15T08:43:27Z</time>
      </trkpt>
      <trkpt lat="48.09845" lon="7.69657">
        <ele>445.708374</ele>
        <time>2010-09-15T08:43:38Z</time>
      </trkpt>
      <trkpt lat="48.09856" lon="7.6966">
        <ele>446.1890869</ele>
        <time>2010-09-15T08:43:49Z</time>
      </trkpt>
      <trkpt lat="48.09871" lon="7.69662">
        <ele>445.708374</ele>
        <time>2010-09-15T08:44:03Z</time>
      </trkpt>
      <trkpt lat="48.09885" lon="7.69661">
        <ele>446.6696777</ele>
        <time>2010-09-15T08:44:47Z</time>
      </trkpt>
      <trkpt lat="48.09893" lon="7.69658">
        <ele>448.1118164</ele>
        <time>2010-09-15T08:46:03Z</time>
      </trkpt>
      <trkpt lat="48.09894" lon="7.69658">
        <ele>448.5924072</ele>
        <time>2010-09-15T08:46:10Z</time>
      </trkpt>
      <trkpt lat="48.09901" lon="7.69658">
        <ele>448.1118164</ele>
        <time>2010-09-15T08:46:17Z</time>
      </trkpt>
      <trkpt lat="48.09915" lon="7.69661">
        <ele>449.5537109</ele>
        <time>2010-09-15T08:46:30Z</time>
      </trkpt>
      <trkpt lat="48.09931" lon="7.69661">
        <ele>449.5537109</ele>
        <time>2010-09-15T08:46:44Z</time>
      </trkpt>
      <trkpt lat="48.09944" lon="7.69662">
        <ele>450.0344238</ele>
        <time>2010-09-15T08:46:56Z</time>
      </trkpt>
      <trkpt lat="48.09958" lon="7.69664">
        <ele>451.9570313</ele>
        <time>2010-09-15T08:47:09Z</time>
      </trkpt>
      <trkpt lat="48.09966" lon="7.69665">
        <ele>450.9956055</ele>
        <time>2010-09-15T08:47:18Z</time>
      </trkpt>
      <trkpt lat="48.09975" lon="7.69666">
        <ele>452.4376221</ele>
        <time>2010-09-15T08:47:28Z</time>
      </trkpt>
      <trkpt lat="48.09986" lon="7.69667">
        <ele>453.8796387</ele>
        <time>2010-09-15T08:47:40Z</time>
      </trkpt>
      <trkpt lat="48.09988" lon="7.69668">
        <ele>453.8796387</ele>
        <time>2010-09-15T08:47:42Z</time>
      </trkpt>
      <trkpt lat="48.09991" lon="7.69669">
        <ele>453.8796387</ele>
        <time>2010-09-15T08:47:45Z</time>
      </trkpt>
      <trkpt lat="48.09996" lon="7.69671">
        <ele>458.2055664</ele>
        <time>2010-09-15T08:47:51Z</time>
      </trkpt>
      <trkpt lat="48.10007" lon="7.69673">
        <ele>459.1668701</ele>
        <time>2010-09-15T08:48:03Z</time>
      </trkpt>
      <trkpt lat="48.10015" lon="7.69675">
        <ele>459.647583</ele>
        <time>2010-09-15T08:48:12Z</time>
      </trkpt>
      <trkpt lat="48.10023" lon="7.69678">
        <ele>462.5313721</ele>
        <time>2010-09-15T08:48:22Z</time>
      </trkpt>
      <trkpt lat="48.10024" lon="7.69678">
        <ele>462.5313721</ele>
        <time>2010-09-15T08:48:23Z</time>
      </trkpt>
      <trkpt lat="48.10032" lon="7.69679">
        <ele>464.9348145</ele>
        <time>2010-09-15T08:48:33Z</time>
      </trkpt>
      <trkpt lat="48.1004" lon="7.69682">
        <ele>467.3381348</ele>
        <time>2010-09-15T08:48:43Z</time>
      </trkpt>
      <trkpt lat="48.10041" lon="7.69682">
        <ele>467.3381348</ele>
        <time>2010-09-15T08:48:44Z</time>
      </trkpt>
      <trkpt lat="48.10043" lon="7.69683">
        <ele>468.2993164</ele>
        <time>2010-09-15T08:48:47Z</time>
      </trkpt>
      <trkpt lat="48.10053" lon="7.69686">
        <ele>468.7800293</ele>
        <time>2010-09-15T08:48:59Z</time>
      </trkpt>
      <trkpt lat="48.10065" lon="7.69689">
        <ele>469.741333</ele>
        <time>2010-09-15T08:49:13Z</time>
      </trkpt>
      <trkpt lat="48.10074" lon="7.69691">
        <ele>472.6253662</ele>
        <time>2010-09-15T08:49:24Z</time>
      </trkpt>
      <trkpt lat="48.10081" lon="7.69693">
        <ele>470.7026367</ele>
        <time>2010-09-15T08:49:32Z</time>
      </trkpt>
      <trkpt lat="48.10086" lon="7.69694">
        <ele>474.0672607</ele>
        <time>2010-09-15T08:49:37Z</time>
      </trkpt>
      <trkpt lat="48.10095" lon="7.69696">
        <ele>473.1060791</ele>
        <time>2010-09-15T08:49:47Z</time>
      </trkpt>
      <trkpt lat="48.10102" lon="7.69698">
        <ele>473.1060791</ele>
        <time>2010-09-15T08:49:56Z</time>
      </trkpt>
      <trkpt lat="48.10111" lon="7.69701">
        <ele>472.1446533</ele>
        <time>2010-09-15T08:50:07Z</time>
      </trkpt>
      <trkpt lat="48.1012" lon="7.69704">
        <ele>470.7026367</ele>
        <time>2010-09-15T08:50:18Z</time>
      </trkpt>
      <trkpt lat="48.10129" lon="7.69706">
        <ele>470.2219238</ele>
        <time>2010-09-15T08:50:29Z</time>
      </trkpt>
      <trkpt lat="48.10139" lon="7.69708">
        <ele>469.741333</ele>
        <time>2010-09-15T08:50:42Z</time>
      </trkpt>
      <trkpt lat="48.10146" lon="7.69709">
        <ele>468.7800293</ele>
        <time>2010-09-15T08:50:50Z</time>
      </trkpt>
      <trkpt lat="48.1015" lon="7.69709">
        <ele>466.376709</ele>
        <time>2010-09-15T08:50:55Z</time>
      </trkpt>
      <trkpt lat="48.10159" lon="7.69711">
        <ele>466.8574219</ele>
        <time>2010-09-15T08:51:06Z</time>
      </trkpt>
      <trkpt lat="48.10169" lon="7.69713">
        <ele>464.9348145</ele>
        <time>2010-09-15T08:51:17Z</time>
      </trkpt>
      <trkpt lat="48.10171" lon="7.69714">
        <ele>463.9733887</ele>
        <time>2010-09-15T08:51:19Z</time>
      </trkpt>
      <trkpt lat="48.1018" lon="7.69715">
        <ele>461.5701904</ele>
        <time>2010-09-15T08:51:29Z</time>
      </trkpt>
      <trkpt lat="48.1019" lon="7.69717">
        <ele>460.6087646</ele>
        <time>2010-09-15T08:51:41Z</time>
      </trkpt>
      <trkpt lat="48.10202" lon="7.6972">
        <ele>458.2055664</ele>
        <time>2010-09-15T08:51:54Z</time>
      </trkpt>
      <trkpt lat="48.10212" lon="7.69722">
        <ele>456.7635498</ele>
        <time>2010-09-15T08:52:04Z</time>
      </trkpt>
      <trkpt lat="48.10218" lon="7.69722">
        <ele>453.8796387</ele>
        <time>2010-09-15T08:52:10Z</time>
      </trkpt>
      <trkpt lat="48.10228" lon="7.69725">
        <ele>454.3602295</ele>
        <time>2010-09-15T08:52:21Z</time>
      </trkpt>
      <trkpt lat="48.10239" lon="7.69727">
        <ele>454.8408203</ele>
        <time>2010-09-15T08:52:32Z</time>
      </trkpt>
      <trkpt lat="48.10255" lon="7.69729">
        <ele>455.8022461</ele>
        <time>2010-09-15T08:52:46Z</time>
      </trkpt>
      <trkpt lat="48.10261" lon="7.6973">
        <ele>456.7635498</ele>
        <time>2010-09-15T08:52:52Z</time>
      </trkpt>
      <trkpt lat="48.10271" lon="7.6973">
        <ele>456.282959</ele>
        <time>2010-09-15T08:53:02Z</time>
      </trkpt>
      <trkpt lat="48.10284" lon="7.69732">
        <ele>458.6861572</ele>
        <time>2010-09-15T08:53:15Z</time>
      </trkpt>
      <trkpt lat="48.10295" lon="7.69735">
        <ele>460.1281738</ele>
        <time>2010-09-15T08:53:26Z</time>
      </trkpt>
      <trkpt lat="48.10305" lon="7.69739">
        <ele>459.647583</ele>
        <time>2010-09-15T08:53:37Z</time>
      </trkpt>
      <trkpt lat="48.10323" lon="7.69746">
        <ele>460.6087646</ele>
        <time>2010-09-15T08:53:55Z</time>
      </trkpt>
      <trkpt lat="48.10332" lon="7.69748">
        <ele>461.0894775</ele>
        <time>2010-09-15T08:54:04Z</time>
      </trkpt>
      <trkpt lat="48.10338" lon="7.69751">
        <ele>461.0894775</ele>
        <time>2010-09-15T08:54:13Z</time>
      </trkpt>
      <trkpt lat="48.10346" lon="7.69752">
        <ele>459.647583</ele>
        <time>2010-09-15T08:54:43Z</time>
      </trkpt>
      <trkpt lat="48.10355" lon="7.69756">
        <ele>459.647583</ele>
        <time>2010-09-15T08:54:52Z</time>
      </trkpt>
      <trkpt lat="48.10355" lon="7.69755">
        <ele>459.647583</ele>
        <time>2010-09-15T08:54:57Z</time>
      </trkpt>
      <trkpt lat="48.10355" lon="7.69756">
        <ele>459.647583</ele>
        <time>2010-09-15T08:54:58Z</time>
      </trkpt>
      <trkpt lat="48.10363" lon="7.69761">
        <ele>458.2055664</ele>
        <time>2010-09-15T08:55:06Z</time>
      </trkpt>
      <trkpt lat="48.10375" lon="7.69768">
        <ele>454.8408203</ele>
        <time>2010-09-15T08:55:17Z</time>
      </trkpt>
      <trkpt lat="48.10376" lon="7.69769">
        <ele>455.3215332</ele>
        <time>2010-09-15T08:55:18Z</time>
      </trkpt>
      <trkpt lat="48.10381" lon="7.69773">
        <ele>455.8022461</ele>
        <time>2010-09-15T08:55:23Z</time>
      </trkpt>
      <trkpt lat="48.10382" lon="7.69774">
        <ele>455.8022461</ele>
        <time>2010-09-15T08:55:24Z</time>
      </trkpt>
      <trkpt lat="48.10424" lon="7.69809">
        <ele>456.282959</ele>
        <time>2010-09-15T08:56:26Z</time>
      </trkpt>
      <trkpt lat="48.1043" lon="7.69815">
        <ele>455.8022461</ele>
        <time>2010-09-15T08:56:34Z</time>
      </trkpt>
      <trkpt lat="48.10438" lon="7.69822">
        <ele>455.3215332</ele>
        <time>2010-09-15T08:56:43Z</time>
      </trkpt>
      <trkpt lat="48.10444" lon="7.69825">
        <ele>455.8022461</ele>
        <time>2010-09-15T08:56:50Z</time>
      </trkpt>
      <trkpt lat="48.10449" lon="7.6983">
        <ele>455.3215332</ele>
        <time>2010-09-15T08:56:59Z</time>
      </trkpt>
      <trkpt lat="48.10454" lon="7.69833">
        <ele>454.8408203</ele>
        <time>2010-09-15T08:57:08Z</time>
      </trkpt>
      <trkpt lat="48.10463" lon="7.69839">
        <ele>453.8796387</ele>
        <time>2010-09-15T08:57:18Z</time>
      </trkpt>
      <trkpt lat="48.10473" lon="7.69842">
        <ele>453.3989258</ele>
        <time>2010-09-15T08:57:29Z</time>
      </trkpt>
      <trkpt lat="48.10482" lon="7.69845">
        <ele>453.3989258</ele>
        <time>2010-09-15T08:57:38Z</time>
      </trkpt>
      <trkpt lat="48.1049" lon="7.69849">
        <ele>453.3989258</ele>
        <time>2010-09-15T08:57:48Z</time>
      </trkpt>
      <trkpt lat="48.10496" lon="7.69853">
        <ele>452.4376221</ele>
        <time>2010-09-15T08:57:55Z</time>
      </trkpt>
      <trkpt lat="48.10503" lon="7.69857">
        <ele>451.9570313</ele>
        <time>2010-09-15T08:58:02Z</time>
      </trkpt>
      <trkpt lat="48.10511" lon="7.69868">
        <ele>451.4763184</ele>
        <time>2010-09-15T08:58:12Z</time>
      </trkpt>
      <trkpt lat="48.10518" lon="7.69878">
        <ele>450.5150146</ele>
        <time>2010-09-15T08:58:23Z</time>
      </trkpt>
      <trkpt lat="48.10523" lon="7.69884">
        <ele>450.9956055</ele>
        <time>2010-09-15T08:58:31Z</time>
      </trkpt>
      <trkpt lat="48.10528" lon="7.69892">
        <ele>450.9956055</ele>
        <time>2010-09-15T08:58:38Z</time>
      </trkpt>
      <trkpt lat="48.10537" lon="7.69902">
        <ele>450.5150146</ele>
        <time>2010-09-15T08:58:49Z</time>
      </trkpt>
      <trkpt lat="48.1054" lon="7.69909">
        <ele>450.9956055</ele>
        <time>2010-09-15T08:58:58Z</time>
      </trkpt>
      <trkpt lat="48.10545" lon="7.69917">
        <ele>450.9956055</ele>
        <time>2010-09-15T08:59:06Z</time>
      </trkpt>
      <trkpt lat="48.10552" lon="7.6993">
        <ele>451.4763184</ele>
        <time>2010-09-15T08:59:18Z</time>
      </trkpt>
      <trkpt lat="48.10558" lon="7.69941">
        <ele>450.9956055</ele>
        <time>2010-09-15T08:59:28Z</time>
      </trkpt>
      <trkpt lat="48.10566" lon="7.69947">
        <ele>451.4763184</ele>
        <time>2010-09-15T08:59:38Z</time>
      </trkpt>
      <trkpt lat="48.10574" lon="7.69952">
        <ele>450.9956055</ele>
        <time>2010-09-15T08:59:44Z</time>
      </trkpt>
      <trkpt lat="48.10582" lon="7.69956">
        <ele>450.9956055</ele>
        <time>2010-09-15T08:59:54Z</time>
      </trkpt>
      <trkpt lat="48.10587" lon="7.69962">
        <ele>450.9956055</ele>
        <time>2010-09-15T09:00:02Z</time>
      </trkpt>
      <trkpt lat="48.10592" lon="7.69968">
        <ele>451.4763184</ele>
        <time>2010-09-15T09:00:09Z</time>
      </trkpt>
      <trkpt lat="48.106" lon="7.69979">
        <ele>450.0344238</ele>
        <time>2010-09-15T09:00:20Z</time>
      </trkpt>
      <trkpt lat="48.10612" lon="7.69987">
        <ele>449.5537109</ele>
        <time>2010-09-15T09:00:30Z</time>
      </trkpt>
      <trkpt lat="48.10626" lon="7.69994">
        <ele>449.072998</ele>
        <time>2010-09-15T09:00:41Z</time>
      </trkpt>
      <trkpt lat="48.10636" lon="7.69996">
        <ele>449.072998</ele>
        <time>2010-09-15T09:00:50Z</time>
      </trkpt>
      <trkpt lat="48.10647" lon="7.7">
        <ele>448.1118164</ele>
        <time>2010-09-15T09:01:00Z</time>
      </trkpt>
      <trkpt lat="48.10651" lon="7.70003">
        <ele>448.1118164</ele>
        <time>2010-09-15T09:01:06Z</time>
      </trkpt>
      <trkpt lat="48.10654" lon="7.70003">
        <ele>447.6309814</ele>
        <time>2010-09-15T09:01:09Z</time>
      </trkpt>
      <trkpt lat="48.10665" lon="7.7001">
        <ele>447.1502686</ele>
        <time>2010-09-15T09:01:20Z</time>
      </trkpt>
      <trkpt lat="48.10672" lon="7.70014">
        <ele>447.1502686</ele>
        <time>2010-09-15T09:01:29Z</time>
      </trkpt>
      <trkpt lat="48.1068" lon="7.70023">
        <ele>447.1502686</ele>
        <time>2010-09-15T09:01:39Z</time>
      </trkpt>
      <trkpt lat="48.10686" lon="7.70028">
        <ele>446.1890869</ele>
        <time>2010-09-15T09:01:48Z</time>
      </trkpt>
      <trkpt lat="48.10694" lon="7.70032">
        <ele>445.2276611</ele>
        <time>2010-09-15T09:01:58Z</time>
      </trkpt>
      <trkpt lat="48.10698" lon="7.70036">
        <ele>444.2664795</ele>
        <time>2010-09-15T09:02:08Z</time>
      </trkpt>
      <trkpt lat="48.10704" lon="7.70038">
        <ele>443.3050537</ele>
        <time>2010-09-15T09:02:17Z</time>
      </trkpt>
      <trkpt lat="48.10711" lon="7.70038">
        <ele>443.3050537</ele>
        <time>2010-09-15T09:02:25Z</time>
      </trkpt>
      <trkpt lat="48.10719" lon="7.70037">
        <ele>442.3438721</ele>
        <time>2010-09-15T09:02:33Z</time>
      </trkpt>
      <trkpt lat="48.1073" lon="7.70035">
        <ele>442.3438721</ele>
        <time>2010-09-15T09:02:43Z</time>
      </trkpt>
      <trkpt lat="48.10738" lon="7.70031">
        <ele>440.9018555</ele>
        <time>2010-09-15T09:02:53Z</time>
      </trkpt>
      <trkpt lat="48.10744" lon="7.7003">
        <ele>440.9018555</ele>
        <time>2010-09-15T09:03:01Z</time>
      </trkpt>
      <trkpt lat="48.10748" lon="7.70028">
        <ele>438.979126</ele>
        <time>2010-09-15T09:03:09Z</time>
      </trkpt>
      <trkpt lat="48.1076" lon="7.7003">
        <ele>438.0178223</ele>
        <time>2010-09-15T09:03:16Z</time>
      </trkpt>
      <trkpt lat="48.10766" lon="7.7003">
        <ele>438.0178223</ele>
        <time>2010-09-15T09:03:24Z</time>
      </trkpt>
      <trkpt lat="48.1078" lon="7.70022">
        <ele>438.4985352</ele>
        <time>2010-09-15T09:03:36Z</time>
      </trkpt>
      <trkpt lat="48.10782" lon="7.70021">
        <ele>439.4597168</ele>
        <time>2010-09-15T09:03:38Z</time>
      </trkpt>
      <trkpt lat="48.1079" lon="7.70011">
        <ele>441.3824463</ele>
        <time>2010-09-15T09:03:50Z</time>
      </trkpt>
      <trkpt lat="48.10795" lon="7.70006">
        <ele>441.8631592</ele>
        <time>2010-09-15T09:03:58Z</time>
      </trkpt>
      <trkpt lat="48.10798" lon="7.70004">
        <ele>442.3438721</ele>
        <time>2010-09-15T09:04:11Z</time>
      </trkpt>
      <trkpt lat="48.10809" lon="7.70009">
        <ele>442.8244629</ele>
        <time>2010-09-15T09:04:20Z</time>
      </trkpt>
      <trkpt lat="48.10815" lon="7.70008">
        <ele>443.7857666</ele>
        <time>2010-09-15T09:04:28Z</time>
      </trkpt>
      <trkpt lat="48.10822" lon="7.7001">
        <ele>444.2664795</ele>
        <time>2010-09-15T09:04:35Z</time>
      </trkpt>
      <trkpt lat="48.10832" lon="7.70011">
        <ele>445.2276611</ele>
        <time>2010-09-15T09:04:43Z</time>
      </trkpt>
      <trkpt lat="48.10839" lon="7.70011">
        <ele>446.1890869</ele>
        <time>2010-09-15T09:04:51Z</time>
      </trkpt>
      <trkpt lat="48.10847" lon="7.70014">
        <ele>445.708374</ele>
        <time>2010-09-15T09:05:00Z</time>
      </trkpt>
      <trkpt lat="48.10853" lon="7.70016">
        <ele>447.1502686</ele>
        <time>2010-09-15T09:05:10Z</time>
      </trkpt>
      <trkpt lat="48.10855" lon="7.70017">
        <ele>447.1502686</ele>
        <time>2010-09-15T09:05:18Z</time>
      </trkpt>
      <trkpt lat="48.10859" lon="7.70019">
        <ele>447.1502686</ele>
        <time>2010-09-15T09:05:25Z</time>
      </trkpt>
      <trkpt lat="48.10866" lon="7.70024">
        <ele>448.1118164</ele>
        <time>2010-09-15T09:05:33Z</time>
      </trkpt>
      <trkpt lat="48.10874" lon="7.70027">
        <ele>449.072998</ele>
        <time>2010-09-15T09:05:43Z</time>
      </trkpt>
      <trkpt lat="48.10881" lon="7.70032">
        <ele>449.5537109</ele>
        <time>2010-09-15T09:05:52Z</time>
      </trkpt>
      <trkpt lat="48.10889" lon="7.70035">
        <ele>450.5150146</ele>
        <time>2010-09-15T09:06:02Z</time>
      </trkpt>
      <trkpt lat="48.10895" lon="7.70037">
        <ele>450.9956055</ele>
        <time>2010-09-15T09:06:09Z</time>
      </trkpt>
      <trkpt lat="48.10901" lon="7.7004">
        <ele>451.9570313</ele>
        <time>2010-09-15T09:06:17Z</time>
      </trkpt>
      <trkpt lat="48.10905" lon="7.70043">
        <ele>452.9182129</ele>
        <time>2010-09-15T09:06:26Z</time>
      </trkpt>
      <trkpt lat="48.10915" lon="7.70044">
        <ele>452.9182129</ele>
        <time>2010-09-15T09:06:36Z</time>
      </trkpt>
      <trkpt lat="48.10926" lon="7.70045">
        <ele>454.3602295</ele>
        <time>2010-09-15T09:06:47Z</time>
      </trkpt>
      <trkpt lat="48.10932" lon="7.7005">
        <ele>456.282959</ele>
        <time>2010-09-15T09:06:56Z</time>
      </trkpt>
      <trkpt lat="48.1094" lon="7.70052">
        <ele>457.2442627</ele>
        <time>2010-09-15T09:07:07Z</time>
      </trkpt>
      <trkpt lat="48.10948" lon="7.70056">
        <ele>458.6861572</ele>
        <time>2010-09-15T09:07:16Z</time>
      </trkpt>
      <trkpt lat="48.10955" lon="7.70058">
        <ele>460.6087646</ele>
        <time>2010-09-15T09:07:26Z</time>
      </trkpt>
      <trkpt lat="48.10965" lon="7.70059">
        <ele>462.0507813</ele>
        <time>2010-09-15T09:07:35Z</time>
      </trkpt>
      <trkpt lat="48.10974" lon="7.7006">
        <ele>464.4541016</ele>
        <time>2010-09-15T09:07:45Z</time>
      </trkpt>
      <trkpt lat="48.10983" lon="7.70059">
        <ele>464.9348145</ele>
        <time>2010-09-15T09:07:56Z</time>
      </trkpt>
      <trkpt lat="48.10994" lon="7.70057">
        <ele>466.376709</ele>
        <time>2010-09-15T09:08:07Z</time>
      </trkpt>
      <trkpt lat="48.11" lon="7.70054">
        <ele>468.2993164</ele>
        <time>2010-09-15T09:08:15Z</time>
      </trkpt>
      <trkpt lat="48.11008" lon="7.70051">
        <ele>468.2993164</ele>
        <time>2010-09-15T09:08:25Z</time>
      </trkpt>
      <trkpt lat="48.11017" lon="7.70046">
        <ele>467.3381348</ele>
        <time>2010-09-15T09:08:35Z</time>
      </trkpt>
      <trkpt lat="48.11023" lon="7.70045">
        <ele>466.8574219</ele>
        <time>2010-09-15T09:08:42Z</time>
      </trkpt>
      <trkpt lat="48.11034" lon="7.70051">
        <ele>467.3381348</ele>
        <time>2010-09-15T09:08:51Z</time>
      </trkpt>
      <trkpt lat="48.11038" lon="7.70054">
        <ele>466.8574219</ele>
        <time>2010-09-15T09:08:59Z</time>
      </trkpt>
      <trkpt lat="48.11044" lon="7.70053">
        <ele>466.376709</ele>
        <time>2010-09-15T09:09:08Z</time>
      </trkpt>
      <trkpt lat="48.11054" lon="7.70049">
        <ele>466.8574219</ele>
        <time>2010-09-15T09:09:18Z</time>
      </trkpt>
      <trkpt lat="48.11057" lon="7.70049">
        <ele>466.8574219</ele>
        <time>2010-09-15T09:09:21Z</time>
      </trkpt>
      <trkpt lat="48.11065" lon="7.70048">
        <ele>466.8574219</ele>
        <time>2010-09-15T09:09:30Z</time>
      </trkpt>
      <trkpt lat="48.11076" lon="7.70048">
        <ele>468.2993164</ele>
        <time>2010-09-15T09:09:41Z</time>
      </trkpt>
      <trkpt lat="48.11083" lon="7.70044">
        <ele>468.2993164</ele>
        <time>2010-09-15T09:09:49Z</time>
      </trkpt>
      <trkpt lat="48.11089" lon="7.70038">
        <ele>468.2993164</ele>
        <time>2010-09-15T09:09:59Z</time>
      </trkpt>
      <trkpt lat="48.11093" lon="7.70031">
        <ele>467.3381348</ele>
        <time>2010-09-15T09:10:08Z</time>
      </trkpt>
      <trkpt lat="48.11101" lon="7.70023">
        <ele>467.8187256</ele>
        <time>2010-09-15T09:10:17Z</time>
      </trkpt>
      <trkpt lat="48.11112" lon="7.70016">
        <ele>465.8961182</ele>
        <time>2010-09-15T09:10:26Z</time>
      </trkpt>
      <trkpt lat="48.11124" lon="7.70009">
        <ele>464.4541016</ele>
        <time>2010-09-15T09:10:39Z</time>
      </trkpt>
      <trkpt lat="48.1113" lon="7.70001">
        <ele>464.9348145</ele>
        <time>2010-09-15T09:10:47Z</time>
      </trkpt>
      <trkpt lat="48.11137" lon="7.69993">
        <ele>464.9348145</ele>
        <time>2010-09-15T09:10:54Z</time>
      </trkpt>
      <trkpt lat="48.11147" lon="7.69981">
        <ele>464.9348145</ele>
        <time>2010-09-15T09:11:07Z</time>
      </trkpt>
      <trkpt lat="48.11153" lon="7.69974">
        <ele>464.4541016</ele>
        <time>2010-09-15T09:11:16Z</time>
      </trkpt>
      <trkpt lat="48.1116" lon="7.69964">
        <ele>465.4155273</ele>
        <time>2010-09-15T09:11:24Z</time>
      </trkpt>
      <trkpt lat="48.1117" lon="7.69943">
        <ele>466.376709</ele>
        <time>2010-09-15T09:13:07Z</time>
      </trkpt>
      <trkpt lat="48.11175" lon="7.69941">
        <ele>466.8574219</ele>
        <time>2010-09-15T09:13:15Z</time>
      </trkpt>
      <trkpt lat="48.11179" lon="7.69937">
        <ele>467.8187256</ele>
        <time>2010-09-15T09:13:23Z</time>
      </trkpt>
      <trkpt lat="48.11184" lon="7.6993">
        <ele>469.2607422</ele>
        <time>2010-09-15T09:13:33Z</time>
      </trkpt>
      <trkpt lat="48.11189" lon="7.69925">
        <ele>469.2607422</ele>
        <time>2010-09-15T09:13:41Z</time>
      </trkpt>
      <trkpt lat="48.112" lon="7.69922">
        <ele>467.8187256</ele>
        <time>2010-09-15T09:13:51Z</time>
      </trkpt>
      <trkpt lat="48.11207" lon="7.69916">
        <ele>467.8187256</ele>
        <time>2010-09-15T09:13:59Z</time>
      </trkpt>
      <trkpt lat="48.11214" lon="7.6991">
        <ele>467.8187256</ele>
        <time>2010-09-15T09:14:07Z</time>
      </trkpt>
      <trkpt lat="48.11225" lon="7.69905">
        <ele>466.376709</ele>
        <time>2010-09-15T09:14:16Z</time>
      </trkpt>
      <trkpt lat="48.11232" lon="7.69898">
        <ele>466.8574219</ele>
        <time>2010-09-15T09:14:26Z</time>
      </trkpt>
      <trkpt lat="48.11246" lon="7.69891">
        <ele>467.3381348</ele>
        <time>2010-09-15T09:14:46Z</time>
      </trkpt>
      <trkpt lat="48.11251" lon="7.6989">
        <ele>466.8574219</ele>
        <time>2010-09-15T09:14:55Z</time>
      </trkpt>
      <trkpt lat="48.11259" lon="7.69888">
        <ele>467.3381348</ele>
        <time>2010-09-15T09:15:11Z</time>
      </trkpt>
      <trkpt lat="48.11267" lon="7.69886">
        <ele>467.8187256</ele>
        <time>2010-09-15T09:15:35Z</time>
      </trkpt>
      <trkpt lat="48.11272" lon="7.69887">
        <ele>468.2993164</ele>
        <time>2010-09-15T09:15:52Z</time>
      </trkpt>
      <trkpt lat="48.11274" lon="7.69876">
        <ele>468.7800293</ele>
        <time>2010-09-15T09:16:55Z</time>
      </trkpt>
      <trkpt lat="48.11273" lon="7.69862">
        <ele>469.2607422</ele>
        <time>2010-09-15T09:17:06Z</time>
      </trkpt>
      <trkpt lat="48.11274" lon="7.69848">
        <ele>468.2993164</ele>
        <time>2010-09-15T09:17:15Z</time>
      </trkpt>
      <trkpt lat="48.11275" lon="7.69841">
        <ele>467.8187256</ele>
        <time>2010-09-15T09:17:21Z</time>
      </trkpt>
      <trkpt lat="48.11275" lon="7.69839">
        <ele>468.2993164</ele>
        <time>2010-09-15T09:17:22Z</time>
      </trkpt>
      <trkpt lat="48.11275" lon="7.69829">
        <ele>468.2993164</ele>
        <time>2010-09-15T09:17:28Z</time>
      </trkpt>
      <trkpt lat="48.11276" lon="7.69816">
        <ele>467.8187256</ele>
        <time>2010-09-15T09:17:37Z</time>
      </trkpt>
      <trkpt lat="48.11278" lon="7.69803">
        <ele>468.7800293</ele>
        <time>2010-09-15T09:17:46Z</time>
      </trkpt>
      <trkpt lat="48.11278" lon="7.69796">
        <ele>469.741333</ele>
        <time>2010-09-15T09:17:54Z</time>
      </trkpt>
      <trkpt lat="48.11279" lon="7.69786">
        <ele>470.2219238</ele>
        <time>2010-09-15T09:18:02Z</time>
      </trkpt>
      <trkpt lat="48.1128" lon="7.69777">
        <ele>471.6639404</ele>
        <time>2010-09-15T09:18:10Z</time>
      </trkpt>
      <trkpt lat="48.11278" lon="7.69764">
        <ele>472.1446533</ele>
        <time>2010-09-15T09:18:19Z</time>
      </trkpt>
      <trkpt lat="48.11279" lon="7.69753">
        <ele>472.6253662</ele>
        <time>2010-09-15T09:18:26Z</time>
      </trkpt>
      <trkpt lat="48.11279" lon="7.69751">
        <ele>471.1833496</ele>
        <time>2010-09-15T09:18:29Z</time>
      </trkpt>
      <trkpt lat="48.11276" lon="7.69742">
        <ele>470.2219238</ele>
        <time>2010-09-15T09:18:36Z</time>
      </trkpt>
      <trkpt lat="48.11275" lon="7.69726">
        <ele>469.2607422</ele>
        <time>2010-09-15T09:18:48Z</time>
      </trkpt>
      <trkpt lat="48.11274" lon="7.69716">
        <ele>469.2607422</ele>
        <time>2010-09-15T09:18:56Z</time>
      </trkpt>
      <trkpt lat="48.11272" lon="7.69709">
        <ele>468.7800293</ele>
        <time>2010-09-15T09:19:03Z</time>
      </trkpt>
      <trkpt lat="48.11269" lon="7.69698">
        <ele>468.7800293</ele>
        <time>2010-09-15T09:19:13Z</time>
      </trkpt>
      <trkpt lat="48.11266" lon="7.69693">
        <ele>467.3381348</ele>
        <time>2010-09-15T09:19:19Z</time>
      </trkpt>
      <trkpt lat="48.11261" lon="7.6968">
        <ele>467.8187256</ele>
        <time>2010-09-15T09:19:27Z</time>
      </trkpt>
      <trkpt lat="48.11256" lon="7.69668">
        <ele>467.8187256</ele>
        <time>2010-09-15T09:19:35Z</time>
      </trkpt>
      <trkpt lat="48.11252" lon="7.6966">
        <ele>467.8187256</ele>
        <time>2010-09-15T09:19:42Z</time>
      </trkpt>
      <trkpt lat="48.11248" lon="7.69651">
        <ele>466.8574219</ele>
        <time>2010-09-15T09:19:48Z</time>
      </trkpt>
      <trkpt lat="48.11244" lon="7.69644">
        <ele>466.8574219</ele>
        <time>2010-09-15T09:19:56Z</time>
      </trkpt>
      <trkpt lat="48.1124" lon="7.69636">
        <ele>466.376709</ele>
        <time>2010-09-15T09:20:04Z</time>
      </trkpt>
      <trkpt lat="48.11233" lon="7.69627">
        <ele>464.9348145</ele>
        <time>2010-09-15T09:20:13Z</time>
      </trkpt>
      <trkpt lat="48.11228" lon="7.69622">
        <ele>463.4927979</ele>
        <time>2010-09-15T09:20:21Z</time>
      </trkpt>
      <trkpt lat="48.11225" lon="7.69619">
        <ele>464.4541016</ele>
        <time>2010-09-15T09:20:34Z</time>
      </trkpt>
      <trkpt lat="48.1122" lon="7.69613">
        <ele>463.4927979</ele>
        <time>2010-09-15T09:20:43Z</time>
      </trkpt>
      <trkpt lat="48.11219" lon="7.69604">
        <ele>463.4927979</ele>
        <time>2010-09-15T09:20:51Z</time>
      </trkpt>
      <trkpt lat="48.11221" lon="7.69592">
        <ele>463.012085</ele>
        <time>2010-09-15T09:21:00Z</time>
      </trkpt>
      <trkpt lat="48.11242" lon="7.69493">
        <ele>444.2664795</ele>
        <time>2010-09-15T09:22:40Z</time>
      </trkpt>
      <trkpt lat="48.11247" lon="7.6948">
        <ele>443.3050537</ele>
        <time>2010-09-15T09:24:19Z</time>
      </trkpt>
      <trkpt lat="48.11247" lon="7.69469">
        <ele>442.8244629</ele>
        <time>2010-09-15T09:25:00Z</time>
      </trkpt>
      <trkpt lat="48.11245" lon="7.69462">
        <ele>441.8631592</ele>
        <time>2010-09-15T09:25:09Z</time>
      </trkpt>
      <trkpt lat="48.11235" lon="7.69429">
        <ele>440.4212646</ele>
        <time>2010-09-15T09:25:30Z</time>
      </trkpt>
      <trkpt lat="48.11236" lon="7.69414">
        <ele>439.9404297</ele>
        <time>2010-09-15T09:25:39Z</time>
      </trkpt>
      <trkpt lat="48.11241" lon="7.69389">
        <ele>438.979126</ele>
        <time>2010-09-15T09:25:54Z</time>
      </trkpt>
      <trkpt lat="48.1125" lon="7.69375">
        <ele>440.9018555</ele>
        <time>2010-09-15T09:26:05Z</time>
      </trkpt>
      <trkpt lat="48.11246" lon="7.6937">
        <ele>438.4985352</ele>
        <time>2010-09-15T09:26:12Z</time>
      </trkpt>
      <trkpt lat="48.11246" lon="7.69368">
        <ele>438.0178223</ele>
        <time>2010-09-15T09:26:13Z</time>
      </trkpt>
      <trkpt lat="48.11244" lon="7.69362">
        <ele>439.9404297</ele>
        <time>2010-09-15T09:26:17Z</time>
      </trkpt>
      <trkpt lat="48.11243" lon="7.69361">
        <ele>440.4212646</ele>
        <time>2010-09-15T09:26:18Z</time>
      </trkpt>
      <trkpt lat="48.11234" lon="7.69342">
        <ele>440.9018555</ele>
        <time>2010-09-15T09:26:33Z</time>
      </trkpt>
      <trkpt lat="48.1123" lon="7.69336">
        <ele>441.8631592</ele>
        <time>2010-09-15T09:26:37Z</time>
      </trkpt>
      <trkpt lat="48.11211" lon="7.69315">
        <ele>442.3438721</ele>
        <time>2010-09-15T09:26:49Z</time>
      </trkpt>
      <trkpt lat="48.11202" lon="7.69294">
        <ele>442.8244629</ele>
        <time>2010-09-15T09:27:04Z</time>
      </trkpt>
      <trkpt lat="48.11196" lon="7.69281">
        <ele>444.2664795</ele>
        <time>2010-09-15T09:27:15Z</time>
      </trkpt>
      <trkpt lat="48.1119" lon="7.69267">
        <ele>444.2664795</ele>
        <time>2010-09-15T09:27:26Z</time>
      </trkpt>
      <trkpt lat="48.11187" lon="7.69256">
        <ele>445.708374</ele>
        <time>2010-09-15T09:27:36Z</time>
      </trkpt>
      <trkpt lat="48.11185" lon="7.69244">
        <ele>447.1502686</ele>
        <time>2010-09-15T09:27:47Z</time>
      </trkpt>
      <trkpt lat="48.11189" lon="7.69237">
        <ele>449.072998</ele>
        <time>2010-09-15T09:27:56Z</time>
      </trkpt>
      <trkpt lat="48.11194" lon="7.69235">
        <ele>449.072998</ele>
        <time>2010-09-15T09:28:05Z</time>
      </trkpt>
      <trkpt lat="48.11195" lon="7.69233">
        <ele>449.5537109</ele>
        <time>2010-09-15T09:28:14Z</time>
      </trkpt>
      <trkpt lat="48.112" lon="7.69228">
        <ele>450.5150146</ele>
        <time>2010-09-15T09:28:22Z</time>
      </trkpt>
      <trkpt lat="48.11204" lon="7.69221">
        <ele>450.9956055</ele>
        <time>2010-09-15T09:28:30Z</time>
      </trkpt>
      <trkpt lat="48.11208" lon="7.69211">
        <ele>451.9570313</ele>
        <time>2010-09-15T09:28:39Z</time>
      </trkpt>
      <trkpt lat="48.11213" lon="7.69201">
        <ele>452.4376221</ele>
        <time>2010-09-15T09:28:49Z</time>
      </trkpt>
      <trkpt lat="48.11215" lon="7.69193">
        <ele>453.3989258</ele>
        <time>2010-09-15T09:28:58Z</time>
      </trkpt>
      <trkpt lat="48.11216" lon="7.69181">
        <ele>454.3602295</ele>
        <time>2010-09-15T09:29:07Z</time>
      </trkpt>
      <trkpt lat="48.11218" lon="7.69171">
        <ele>454.8408203</ele>
        <time>2010-09-15T09:29:14Z</time>
      </trkpt>
      <trkpt lat="48.1122" lon="7.6916">
        <ele>456.282959</ele>
        <time>2010-09-15T09:29:22Z</time>
      </trkpt>
      <trkpt lat="48.11222" lon="7.69151">
        <ele>456.282959</ele>
        <time>2010-09-15T09:29:30Z</time>
      </trkpt>
      <trkpt lat="48.11224" lon="7.6914">
        <ele>459.1668701</ele>
        <time>2010-09-15T09:29:38Z</time>
      </trkpt>
      <trkpt lat="48.11227" lon="7.69132">
        <ele>459.647583</ele>
        <time>2010-09-15T09:29:47Z</time>
      </trkpt>
      <trkpt lat="48.11231" lon="7.69121">
        <ele>461.5701904</ele>
        <time>2010-09-15T09:29:57Z</time>
      </trkpt>
      <trkpt lat="48.11233" lon="7.69111">
        <ele>461.5701904</ele>
        <time>2010-09-15T09:30:06Z</time>
      </trkpt>
      <trkpt lat="48.11239" lon="7.69103">
        <ele>463.012085</ele>
        <time>2010-09-15T09:30:13Z</time>
      </trkpt>
      <trkpt lat="48.11244" lon="7.69091">
        <ele>463.4927979</ele>
        <time>2010-09-15T09:30:22Z</time>
      </trkpt>
      <trkpt lat="48.11251" lon="7.69082">
        <ele>464.4541016</ele>
        <time>2010-09-15T09:30:32Z</time>
      </trkpt>
      <trkpt lat="48.11257" lon="7.69073">
        <ele>465.8961182</ele>
        <time>2010-09-15T09:30:43Z</time>
      </trkpt>
      <trkpt lat="48.11268" lon="7.69069">
        <ele>467.3381348</ele>
        <time>2010-09-15T09:30:53Z</time>
      </trkpt>
      <trkpt lat="48.11277" lon="7.69069">
        <ele>468.2993164</ele>
        <time>2010-09-15T09:30:59Z</time>
      </trkpt>
      <trkpt lat="48.11287" lon="7.69069">
        <ele>468.7800293</ele>
        <time>2010-09-15T09:31:07Z</time>
      </trkpt>
      <trkpt lat="48.11297" lon="7.6907">
        <ele>470.7026367</ele>
        <time>2010-09-15T09:31:18Z</time>
      </trkpt>
      <trkpt lat="48.11305" lon="7.6907">
        <ele>471.6639404</ele>
        <time>2010-09-15T09:31:26Z</time>
      </trkpt>
      <trkpt lat="48.11313" lon="7.69072">
        <ele>471.6639404</ele>
        <time>2010-09-15T09:31:34Z</time>
      </trkpt>
      <trkpt lat="48.1132" lon="7.69072">
        <ele>472.1446533</ele>
        <time>2010-09-15T09:31:44Z</time>
      </trkpt>
      <trkpt lat="48.11327" lon="7.69073">
        <ele>472.1446533</ele>
        <time>2010-09-15T09:31:55Z</time>
      </trkpt>
      <trkpt lat="48.11332" lon="7.69073">
        <ele>471.1833496</ele>
        <time>2010-09-15T09:32:03Z</time>
      </trkpt>
      <trkpt lat="48.11338" lon="7.69072">
        <ele>470.7026367</ele>
        <time>2010-09-15T09:32:11Z</time>
      </trkpt>
      <trkpt lat="48.11342" lon="7.6907">
        <ele>470.2219238</ele>
        <time>2010-09-15T09:32:19Z</time>
      </trkpt>
      <trkpt lat="48.1135" lon="7.69068">
        <ele>469.741333</ele>
        <time>2010-09-15T09:32:26Z</time>
      </trkpt>
      <trkpt lat="48.11358" lon="7.69065">
        <ele>469.2607422</ele>
        <time>2010-09-15T09:32:35Z</time>
      </trkpt>
      <trkpt lat="48.11367" lon="7.69063">
        <ele>468.7800293</ele>
        <time>2010-09-15T09:32:44Z</time>
      </trkpt>
      <trkpt lat="48.11376" lon="7.69059">
        <ele>468.7800293</ele>
        <time>2010-09-15T09:32:52Z</time>
      </trkpt>
      <trkpt lat="48.11382" lon="7.69054">
        <ele>468.7800293</ele>
        <time>2010-09-15T09:33:02Z</time>
      </trkpt>
      <trkpt lat="48.11386" lon="7.69048">
        <ele>468.7800293</ele>
        <time>2010-09-15T09:33:13Z</time>
      </trkpt>
      <trkpt lat="48.11394" lon="7.69044">
        <ele>470.2219238</ele>
        <time>2010-09-15T09:33:24Z</time>
      </trkpt>
      <trkpt lat="48.114" lon="7.69039">
        <ele>470.7026367</ele>
        <time>2010-09-15T09:33:32Z</time>
      </trkpt>
      <trkpt lat="48.11409" lon="7.69034">
        <ele>472.1446533</ele>
        <time>2010-09-15T09:33:41Z</time>
      </trkpt>
      <trkpt lat="48.11417" lon="7.69027">
        <ele>474.0672607</ele>
        <time>2010-09-15T09:33:49Z</time>
      </trkpt>
      <trkpt lat="48.11427" lon="7.6902">
        <ele>474.5479736</ele>
        <time>2010-09-15T09:33:59Z</time>
      </trkpt>
      <trkpt lat="48.11435" lon="7.69013">
        <ele>477.4318848</ele>
        <time>2010-09-15T09:34:11Z</time>
      </trkpt>
      <trkpt lat="48.1144" lon="7.69006">
        <ele>477.9124756</ele>
        <time>2010-09-15T09:34:20Z</time>
      </trkpt>
      <trkpt lat="48.11448" lon="7.69">
        <ele>478.8739014</ele>
        <time>2010-09-15T09:34:30Z</time>
      </trkpt>
      <trkpt lat="48.11462" lon="7.68992">
        <ele>479.835083</ele>
        <time>2010-09-15T09:34:39Z</time>
      </trkpt>
      <trkpt lat="48.11469" lon="7.68982">
        <ele>480.315918</ele>
        <time>2010-09-15T09:34:49Z</time>
      </trkpt>
      <trkpt lat="48.11472" lon="7.68976">
        <ele>481.2772217</ele>
        <time>2010-09-15T09:34:56Z</time>
      </trkpt>
      <trkpt lat="48.11479" lon="7.68969">
        <ele>480.315918</ele>
        <time>2010-09-15T09:35:04Z</time>
      </trkpt>
      <trkpt lat="48.11481" lon="7.68967">
        <ele>480.7966309</ele>
        <time>2010-09-15T09:35:12Z</time>
      </trkpt>
      <trkpt lat="48.11482" lon="7.68967">
        <ele>480.315918</ele>
        <time>2010-09-15T09:35:24Z</time>
      </trkpt>
      <trkpt lat="48.11492" lon="7.68965">
        <ele>480.7966309</ele>
        <time>2010-09-15T09:35:32Z</time>
      </trkpt>
      <trkpt lat="48.11497" lon="7.68962">
        <ele>481.2772217</ele>
        <time>2010-09-15T09:35:40Z</time>
      </trkpt>
      <trkpt lat="48.11504" lon="7.68958">
        <ele>480.7966309</ele>
        <time>2010-09-15T09:35:49Z</time>
      </trkpt>
      <trkpt lat="48.11516" lon="7.68955">
        <ele>481.2772217</ele>
        <time>2010-09-15T09:35:57Z</time>
      </trkpt>
      <trkpt lat="48.11526" lon="7.68953">
        <ele>481.2772217</ele>
        <time>2010-09-15T09:36:04Z</time>
      </trkpt>
      <trkpt lat="48.11535" lon="7.68951">
        <ele>482.2385254</ele>
        <time>2010-09-15T09:36:13Z</time>
      </trkpt>
      <trkpt lat="48.11542" lon="7.68948">
        <ele>482.7192383</ele>
        <time>2010-09-15T09:36:22Z</time>
      </trkpt>
      <trkpt lat="48.11551" lon="7.68944">
        <ele>484.6418457</ele>
        <time>2010-09-15T09:36:33Z</time>
      </trkpt>
      <trkpt lat="48.11562" lon="7.68942">
        <ele>485.6030273</ele>
        <time>2010-09-15T09:36:40Z</time>
      </trkpt>
      <trkpt lat="48.1157" lon="7.68942">
        <ele>486.0837402</ele>
        <time>2010-09-15T09:36:48Z</time>
      </trkpt>
      <trkpt lat="48.11579" lon="7.68939">
        <ele>486.0837402</ele>
        <time>2010-09-15T09:36:57Z</time>
      </trkpt>
      <trkpt lat="48.11586" lon="7.68937">
        <ele>487.0450439</ele>
        <time>2010-09-15T09:37:06Z</time>
      </trkpt>
      <trkpt lat="48.11593" lon="7.68934">
        <ele>487.5256348</ele>
        <time>2010-09-15T09:37:14Z</time>
      </trkpt>
      <trkpt lat="48.11598" lon="7.68932">
        <ele>490.8903809</ele>
        <time>2010-09-15T09:37:22Z</time>
      </trkpt>
      <trkpt lat="48.11601" lon="7.68928">
        <ele>491.3709717</ele>
        <time>2010-09-15T09:37:30Z</time>
      </trkpt>
      <trkpt lat="48.11607" lon="7.68924">
        <ele>492.8129883</ele>
        <time>2010-09-15T09:37:38Z</time>
      </trkpt>
      <trkpt lat="48.1161" lon="7.68921">
        <ele>494.2550049</ele>
        <time>2010-09-15T09:37:47Z</time>
      </trkpt>
      <trkpt lat="48.11619" lon="7.68922">
        <ele>495.6968994</ele>
        <time>2010-09-15T09:37:58Z</time>
      </trkpt>
      <trkpt lat="48.1163" lon="7.68921">
        <ele>498.1003418</ele>
        <time>2010-09-15T09:38:09Z</time>
      </trkpt>
      <trkpt lat="48.11637" lon="7.68921">
        <ele>499.5422363</ele>
        <time>2010-09-15T09:38:20Z</time>
      </trkpt>
      <trkpt lat="48.1164" lon="7.68919">
        <ele>499.5422363</ele>
        <time>2010-09-15T09:38:29Z</time>
      </trkpt>
      <trkpt lat="48.11644" lon="7.68915">
        <ele>501.9455566</ele>
        <time>2010-09-15T09:38:39Z</time>
      </trkpt>
      <trkpt lat="48.11647" lon="7.68911">
        <ele>504.8294678</ele>
        <time>2010-09-15T09:38:49Z</time>
      </trkpt>
      <trkpt lat="48.1165" lon="7.68906">
        <ele>505.3101807</ele>
        <time>2010-09-15T09:38:58Z</time>
      </trkpt>
      <trkpt lat="48.11657" lon="7.68902">
        <ele>507.2327881</ele>
        <time>2010-09-15T09:39:08Z</time>
      </trkpt>
      <trkpt lat="48.11663" lon="7.68904">
        <ele>507.713501</ele>
        <time>2010-09-15T09:39:15Z</time>
      </trkpt>
      <trkpt lat="48.11666" lon="7.68912">
        <ele>508.1940918</ele>
        <time>2010-09-15T09:39:24Z</time>
      </trkpt>
      <trkpt lat="48.11675" lon="7.68924">
        <ele>506.2714844</ele>
        <time>2010-09-15T09:41:35Z</time>
      </trkpt>
      <trkpt lat="48.11682" lon="7.68933">
        <ele>505.7908936</ele>
        <time>2010-09-15T09:42:01Z</time>
      </trkpt>
      <trkpt lat="48.11689" lon="7.68915">
        <ele>499.5422363</ele>
        <time>2010-09-15T10:20:59Z</time>
      </trkpt>
      <trkpt lat="48.11686" lon="7.68904">
        <ele>499.5422363</ele>
        <time>2010-09-15T10:21:17Z</time>
      </trkpt>
      <trkpt lat="48.11686" lon="7.68898">
        <ele>500.0229492</ele>
        <time>2010-09-15T10:21:29Z</time>
      </trkpt>
      <trkpt lat="48.11685" lon="7.6889">
        <ele>500.0229492</ele>
        <time>2010-09-15T10:21:52Z</time>
      </trkpt>
      <trkpt lat="48.11675" lon="7.68883">
        <ele>499.0615234</ele>
        <time>2010-09-15T10:22:28Z</time>
      </trkpt>
      <trkpt lat="48.11666" lon="7.68868">
        <ele>496.6583252</ele>
        <time>2010-09-15T10:23:53Z</time>
      </trkpt>
      <trkpt lat="48.11662" lon="7.68861">
        <ele>494.2550049</ele>
        <time>2010-09-15T10:24:02Z</time>
      </trkpt>
      <trkpt lat="48.11661" lon="7.68853">
        <ele>494.2550049</ele>
        <time>2010-09-15T10:24:09Z</time>
      </trkpt>
      <trkpt lat="48.11659" lon="7.68845">
        <ele>491.8516846</ele>
        <time>2010-09-15T10:24:18Z</time>
      </trkpt>
      <trkpt lat="48.11658" lon="7.68838">
        <ele>490.8903809</ele>
        <time>2010-09-15T10:24:24Z</time>
      </trkpt>
      <trkpt lat="48.11659" lon="7.68831">
        <ele>489.4483643</ele>
        <time>2010-09-15T10:24:31Z</time>
      </trkpt>
      <trkpt lat="48.11657" lon="7.68824">
        <ele>488.4871826</ele>
        <time>2010-09-15T10:24:40Z</time>
      </trkpt>
      <trkpt lat="48.11655" lon="7.68819">
        <ele>486.5644531</ele>
        <time>2010-09-15T10:24:48Z</time>
      </trkpt>
      <trkpt lat="48.11654" lon="7.68811">
        <ele>484.6418457</ele>
        <time>2010-09-15T10:24:57Z</time>
      </trkpt>
      <trkpt lat="48.11653" lon="7.68802">
        <ele>482.2385254</ele>
        <time>2010-09-15T10:25:06Z</time>
      </trkpt>
      <trkpt lat="48.11654" lon="7.68792">
        <ele>480.315918</ele>
        <time>2010-09-15T10:25:15Z</time>
      </trkpt>
      <trkpt lat="48.11653" lon="7.68781">
        <ele>478.8739014</ele>
        <time>2010-09-15T10:25:26Z</time>
      </trkpt>
      <trkpt lat="48.11649" lon="7.68772">
        <ele>475.0286865</ele>
        <time>2010-09-15T10:25:34Z</time>
      </trkpt>
      <trkpt lat="48.11649" lon="7.68766">
        <ele>473.5866699</ele>
        <time>2010-09-15T10:25:42Z</time>
      </trkpt>
      <trkpt lat="48.11646" lon="7.68758">
        <ele>472.1446533</ele>
        <time>2010-09-15T10:25:52Z</time>
      </trkpt>
      <trkpt lat="48.11645" lon="7.6875">
        <ele>469.741333</ele>
        <time>2010-09-15T10:26:01Z</time>
      </trkpt>
      <trkpt lat="48.11643" lon="7.68743">
        <ele>467.8187256</ele>
        <time>2010-09-15T10:26:10Z</time>
      </trkpt>
      <trkpt lat="48.11639" lon="7.68737">
        <ele>465.8961182</ele>
        <time>2010-09-15T10:26:17Z</time>
      </trkpt>
      <trkpt lat="48.11638" lon="7.68728">
        <ele>464.9348145</ele>
        <time>2010-09-15T10:26:26Z</time>
      </trkpt>
      <trkpt lat="48.11635" lon="7.68719">
        <ele>463.012085</ele>
        <time>2010-09-15T10:26:32Z</time>
      </trkpt>
      <trkpt lat="48.11633" lon="7.68714">
        <ele>461.0894775</ele>
        <time>2010-09-15T10:26:39Z</time>
      </trkpt>
      <trkpt lat="48.11633" lon="7.68709">
        <ele>460.6087646</ele>
        <time>2010-09-15T10:26:45Z</time>
      </trkpt>
      <trkpt lat="48.11633" lon="7.68695">
        <ele>456.7635498</ele>
        <time>2010-09-15T10:27:10Z</time>
      </trkpt>
      <trkpt lat="48.11628" lon="7.6869">
        <ele>453.3989258</ele>
        <time>2010-09-15T10:27:18Z</time>
      </trkpt>
      <trkpt lat="48.11623" lon="7.68684">
        <ele>451.9570313</ele>
        <time>2010-09-15T10:27:26Z</time>
      </trkpt>
      <trkpt lat="48.11618" lon="7.68678">
        <ele>450.5150146</ele>
        <time>2010-09-15T10:27:33Z</time>
      </trkpt>
      <trkpt lat="48.11609" lon="7.68665">
        <ele>450.0344238</ele>
        <time>2010-09-15T10:27:42Z</time>
      </trkpt>
      <trkpt lat="48.11604" lon="7.68655">
        <ele>449.072998</ele>
        <time>2010-09-15T10:27:50Z</time>
      </trkpt>
      <trkpt lat="48.116" lon="7.68648">
        <ele>447.6309814</ele>
        <time>2010-09-15T10:27:56Z</time>
      </trkpt>
      <trkpt lat="48.11598" lon="7.68635">
        <ele>446.6696777</ele>
        <time>2010-09-15T10:28:06Z</time>
      </trkpt>
      <trkpt lat="48.11598" lon="7.68629">
        <ele>446.1890869</ele>
        <time>2010-09-15T10:28:11Z</time>
      </trkpt>
      <trkpt lat="48.11592" lon="7.68619">
        <ele>445.708374</ele>
        <time>2010-09-15T10:28:18Z</time>
      </trkpt>
      <trkpt lat="48.11587" lon="7.68612">
        <ele>446.1890869</ele>
        <time>2010-09-15T10:28:26Z</time>
      </trkpt>
      <trkpt lat="48.1158" lon="7.68602">
        <ele>446.1890869</ele>
        <time>2010-09-15T10:28:35Z</time>
      </trkpt>
      <trkpt lat="48.11576" lon="7.68592">
        <ele>445.2276611</ele>
        <time>2010-09-15T10:28:44Z</time>
      </trkpt>
      <trkpt lat="48.1157" lon="7.68576">
        <ele>447.1502686</ele>
        <time>2010-09-15T10:28:55Z</time>
      </trkpt>
      <trkpt lat="48.11568" lon="7.6857">
        <ele>450.0344238</ele>
        <time>2010-09-15T10:28:59Z</time>
      </trkpt>
      <trkpt lat="48.11565" lon="7.68562">
        <ele>450.0344238</ele>
        <time>2010-09-15T10:29:07Z</time>
      </trkpt>
      <trkpt lat="48.1156" lon="7.68547">
        <ele>451.4763184</ele>
        <time>2010-09-15T10:29:18Z</time>
      </trkpt>
      <trkpt lat="48.11558" lon="7.68542">
        <ele>450.5150146</ele>
        <time>2010-09-15T10:29:25Z</time>
      </trkpt>
      <trkpt lat="48.11553" lon="7.68524">
        <ele>451.4763184</ele>
        <time>2010-09-15T10:29:36Z</time>
      </trkpt>
      <trkpt lat="48.1155" lon="7.68508">
        <ele>452.4376221</ele>
        <time>2010-09-15T10:29:46Z</time>
      </trkpt>
      <trkpt lat="48.11549" lon="7.6849">
        <ele>454.3602295</ele>
        <time>2010-09-15T10:29:58Z</time>
      </trkpt>
      <trkpt lat="48.1155" lon="7.68482">
        <ele>455.3215332</ele>
        <time>2010-09-15T10:30:04Z</time>
      </trkpt>
      <trkpt lat="48.11551" lon="7.68464">
        <ele>457.2442627</ele>
        <time>2010-09-15T10:30:15Z</time>
      </trkpt>
      <trkpt lat="48.11553" lon="7.68453">
        <ele>455.8022461</ele>
        <time>2010-09-15T10:30:24Z</time>
      </trkpt>
      <trkpt lat="48.11554" lon="7.68449">
        <ele>458.6861572</ele>
        <time>2010-09-15T10:30:33Z</time>
      </trkpt>
      <trkpt lat="48.11554" lon="7.6844">
        <ele>456.7635498</ele>
        <time>2010-09-15T10:30:42Z</time>
      </trkpt>
      <trkpt lat="48.11555" lon="7.68426">
        <ele>456.7635498</ele>
        <time>2010-09-15T10:30:53Z</time>
      </trkpt>
      <trkpt lat="48.11557" lon="7.68414">
        <ele>456.7635498</ele>
        <time>2010-09-15T10:31:03Z</time>
      </trkpt>
      <trkpt lat="48.11557" lon="7.68401">
        <ele>456.7635498</ele>
        <time>2010-09-15T10:31:11Z</time>
      </trkpt>
      <trkpt lat="48.11558" lon="7.68388">
        <ele>457.2442627</ele>
        <time>2010-09-15T10:31:19Z</time>
      </trkpt>
      <trkpt lat="48.1156" lon="7.6838">
        <ele>457.2442627</ele>
        <time>2010-09-15T10:31:23Z</time>
      </trkpt>
      <trkpt lat="48.11562" lon="7.68375">
        <ele>458.2055664</ele>
        <time>2010-09-15T10:31:26Z</time>
      </trkpt>
      <trkpt lat="48.11561" lon="7.6836">
        <ele>458.6861572</ele>
        <time>2010-09-15T10:31:36Z</time>
      </trkpt>
      <trkpt lat="48.1156" lon="7.68345">
        <ele>457.2442627</ele>
        <time>2010-09-15T10:31:46Z</time>
      </trkpt>
      <trkpt lat="48.1156" lon="7.68342">
        <ele>458.6861572</ele>
        <time>2010-09-15T10:31:48Z</time>
      </trkpt>
      <trkpt lat="48.11562" lon="7.68325">
        <ele>458.2055664</ele>
        <time>2010-09-15T10:31:59Z</time>
      </trkpt>
      <trkpt lat="48.11563" lon="7.68317">
        <ele>458.6861572</ele>
        <time>2010-09-15T10:32:07Z</time>
      </trkpt>
      <trkpt lat="48.11566" lon="7.68306">
        <ele>458.2055664</ele>
        <time>2010-09-15T10:32:18Z</time>
      </trkpt>
      <trkpt lat="48.11567" lon="7.68301">
        <ele>458.6861572</ele>
        <time>2010-09-15T10:32:28Z</time>
      </trkpt>
      <trkpt lat="48.11568" lon="7.68296">
        <ele>458.2055664</ele>
        <time>2010-09-15T10:32:36Z</time>
      </trkpt>
      <trkpt lat="48.11568" lon="7.68286">
        <ele>458.6861572</ele>
        <time>2010-09-15T10:32:45Z</time>
      </trkpt>
      <trkpt lat="48.11568" lon="7.68276">
        <ele>461.0894775</ele>
        <time>2010-09-15T10:32:53Z</time>
      </trkpt>
      <trkpt lat="48.11567" lon="7.68265">
        <ele>462.0507813</ele>
        <time>2010-09-15T10:33:03Z</time>
      </trkpt>
      <trkpt lat="48.11565" lon="7.68255">
        <ele>463.4927979</ele>
        <time>2010-09-15T10:33:12Z</time>
      </trkpt>
      <trkpt lat="48.11563" lon="7.68242">
        <ele>464.4541016</ele>
        <time>2010-09-15T10:33:22Z</time>
      </trkpt>
      <trkpt lat="48.11563" lon="7.68235">
        <ele>464.9348145</ele>
        <time>2010-09-15T10:33:30Z</time>
      </trkpt>
      <trkpt lat="48.11561" lon="7.68223">
        <ele>466.8574219</ele>
        <time>2010-09-15T10:33:41Z</time>
      </trkpt>
      <trkpt lat="48.1156" lon="7.68215">
        <ele>467.8187256</ele>
        <time>2010-09-15T10:33:48Z</time>
      </trkpt>
      <trkpt lat="48.11558" lon="7.68211">
        <ele>468.2993164</ele>
        <time>2010-09-15T10:33:53Z</time>
      </trkpt>
      <trkpt lat="48.11556" lon="7.68199">
        <ele>470.2219238</ele>
        <time>2010-09-15T10:34:04Z</time>
      </trkpt>
      <trkpt lat="48.11552" lon="7.68192">
        <ele>470.7026367</ele>
        <time>2010-09-15T10:34:14Z</time>
      </trkpt>
      <trkpt lat="48.11549" lon="7.68187">
        <ele>471.6639404</ele>
        <time>2010-09-15T10:34:21Z</time>
      </trkpt>
      <trkpt lat="48.11549" lon="7.68186">
        <ele>472.6253662</ele>
        <time>2010-09-15T10:34:23Z</time>
      </trkpt>
      <trkpt lat="48.11547" lon="7.68179">
        <ele>473.5866699</ele>
        <time>2010-09-15T10:34:30Z</time>
      </trkpt>
      <trkpt lat="48.11544" lon="7.68174">
        <ele>473.5866699</ele>
        <time>2010-09-15T10:34:35Z</time>
      </trkpt>
      <trkpt lat="48.11538" lon="7.68164">
        <ele>474.5479736</ele>
        <time>2010-09-15T10:34:45Z</time>
      </trkpt>
      <trkpt lat="48.11533" lon="7.68156">
        <ele>474.5479736</ele>
        <time>2010-09-15T10:34:52Z</time>
      </trkpt>
      <trkpt lat="48.11526" lon="7.68145">
        <ele>474.5479736</ele>
        <time>2010-09-15T10:35:02Z</time>
      </trkpt>
      <trkpt lat="48.11519" lon="7.68136">
        <ele>474.5479736</ele>
        <time>2010-09-15T10:35:10Z</time>
      </trkpt>
      <trkpt lat="48.11512" lon="7.68128">
        <ele>474.5479736</ele>
        <time>2010-09-15T10:35:19Z</time>
      </trkpt>
      <trkpt lat="48.11505" lon="7.68122">
        <ele>475.0286865</ele>
        <time>2010-09-15T10:35:26Z</time>
      </trkpt>
      <trkpt lat="48.11498" lon="7.68116">
        <ele>476.4705811</ele>
        <time>2010-09-15T10:35:35Z</time>
      </trkpt>
      <trkpt lat="48.1149" lon="7.68109">
        <ele>476.4705811</ele>
        <time>2010-09-15T10:35:46Z</time>
      </trkpt>
      <trkpt lat="48.11484" lon="7.68104">
        <ele>476.4705811</ele>
        <time>2010-09-15T10:35:53Z</time>
      </trkpt>
      <trkpt lat="48.11481" lon="7.68098">
        <ele>476.4705811</ele>
        <time>2010-09-15T10:36:00Z</time>
      </trkpt>
      <trkpt lat="48.11475" lon="7.68089">
        <ele>475.9898682</ele>
        <time>2010-09-15T10:36:10Z</time>
      </trkpt>
      <trkpt lat="48.1147" lon="7.68082">
        <ele>474.5479736</ele>
        <time>2010-09-15T10:36:18Z</time>
      </trkpt>
      <trkpt lat="48.11467" lon="7.68078">
        <ele>474.0672607</ele>
        <time>2010-09-15T10:36:24Z</time>
      </trkpt>
      <trkpt lat="48.11462" lon="7.6807">
        <ele>472.1446533</ele>
        <time>2010-09-15T10:36:33Z</time>
      </trkpt>
      <trkpt lat="48.11455" lon="7.68061">
        <ele>470.7026367</ele>
        <time>2010-09-15T10:36:42Z</time>
      </trkpt>
      <trkpt lat="48.11449" lon="7.68055">
        <ele>470.7026367</ele>
        <time>2010-09-15T10:36:49Z</time>
      </trkpt>
      <trkpt lat="48.11441" lon="7.68047">
        <ele>468.2993164</ele>
        <time>2010-09-15T10:37:00Z</time>
      </trkpt>
      <trkpt lat="48.11436" lon="7.68042">
        <ele>466.8574219</ele>
        <time>2010-09-15T10:37:07Z</time>
      </trkpt>
      <trkpt lat="48.11426" lon="7.68032">
        <ele>465.8961182</ele>
        <time>2010-09-15T10:37:16Z</time>
      </trkpt>
      <trkpt lat="48.11416" lon="7.68019">
        <ele>464.4541016</ele>
        <time>2010-09-15T10:37:27Z</time>
      </trkpt>
      <trkpt lat="48.1141" lon="7.68007">
        <ele>462.5313721</ele>
        <time>2010-09-15T10:37:37Z</time>
      </trkpt>
      <trkpt lat="48.11406" lon="7.67996">
        <ele>462.0507813</ele>
        <time>2010-09-15T10:37:46Z</time>
      </trkpt>
      <trkpt lat="48.11401" lon="7.67985">
        <ele>460.6087646</ele>
        <time>2010-09-15T10:37:56Z</time>
      </trkpt>
      <trkpt lat="48.11397" lon="7.67967">
        <ele>458.2055664</ele>
        <time>2010-09-15T10:38:07Z</time>
      </trkpt>
      <trkpt lat="48.11397" lon="7.67962">
        <ele>458.2055664</ele>
        <time>2010-09-15T10:38:10Z</time>
      </trkpt>
      <trkpt lat="48.11395" lon="7.67945">
        <ele>457.2442627</ele>
        <time>2010-09-15T10:38:22Z</time>
      </trkpt>
      <trkpt lat="48.11394" lon="7.67943">
        <ele>457.2442627</ele>
        <time>2010-09-15T10:38:24Z</time>
      </trkpt>
      <trkpt lat="48.11391" lon="7.67934">
        <ele>456.7635498</ele>
        <time>2010-09-15T10:38:33Z</time>
      </trkpt>
      <trkpt lat="48.11396" lon="7.67928">
        <ele>456.282959</ele>
        <time>2010-09-15T10:38:43Z</time>
      </trkpt>
      <trkpt lat="48.11399" lon="7.67922">
        <ele>456.282959</ele>
        <time>2010-09-15T10:38:52Z</time>
      </trkpt>
      <trkpt lat="48.114" lon="7.67916">
        <ele>456.7635498</ele>
        <time>2010-09-15T10:39:00Z</time>
      </trkpt>
      <trkpt lat="48.11398" lon="7.67906">
        <ele>456.282959</ele>
        <time>2010-09-15T10:39:08Z</time>
      </trkpt>
      <trkpt lat="48.11397" lon="7.67894">
        <ele>455.8022461</ele>
        <time>2010-09-15T10:39:18Z</time>
      </trkpt>
      <trkpt lat="48.11394" lon="7.67881">
        <ele>454.8408203</ele>
        <time>2010-09-15T10:39:28Z</time>
      </trkpt>
      <trkpt lat="48.11394" lon="7.67871">
        <ele>454.3602295</ele>
        <time>2010-09-15T10:39:37Z</time>
      </trkpt>
      <trkpt lat="48.1139" lon="7.67865">
        <ele>453.8796387</ele>
        <time>2010-09-15T10:39:45Z</time>
      </trkpt>
      <trkpt lat="48.11384" lon="7.67854">
        <ele>454.8408203</ele>
        <time>2010-09-15T10:39:54Z</time>
      </trkpt>
      <trkpt lat="48.11383" lon="7.67852">
        <ele>454.8408203</ele>
        <time>2010-09-15T10:39:56Z</time>
      </trkpt>
      <trkpt lat="48.1138" lon="7.67842">
        <ele>454.3602295</ele>
        <time>2010-09-15T10:40:03Z</time>
      </trkpt>
      <trkpt lat="48.11377" lon="7.67834">
        <ele>453.3989258</ele>
        <time>2010-09-15T10:40:08Z</time>
      </trkpt>
      <trkpt lat="48.1137" lon="7.67823">
        <ele>453.8796387</ele>
        <time>2010-09-15T10:40:19Z</time>
      </trkpt>
      <trkpt lat="48.11365" lon="7.67815">
        <ele>453.3989258</ele>
        <time>2010-09-15T10:40:28Z</time>
      </trkpt>
      <trkpt lat="48.1136" lon="7.67808">
        <ele>452.4376221</ele>
        <time>2010-09-15T10:40:36Z</time>
      </trkpt>
      <trkpt lat="48.11355" lon="7.678">
        <ele>452.4376221</ele>
        <time>2010-09-15T10:40:45Z</time>
      </trkpt>
      <trkpt lat="48.11349" lon="7.67792">
        <ele>453.3989258</ele>
        <time>2010-09-15T10:40:54Z</time>
      </trkpt>
      <trkpt lat="48.11343" lon="7.67785">
        <ele>453.3989258</ele>
        <time>2010-09-15T10:41:01Z</time>
      </trkpt>
      <trkpt lat="48.11338" lon="7.67778">
        <ele>454.3602295</ele>
        <time>2010-09-15T10:41:09Z</time>
      </trkpt>
      <trkpt lat="48.11332" lon="7.6777">
        <ele>454.8408203</ele>
        <time>2010-09-15T10:41:18Z</time>
      </trkpt>
      <trkpt lat="48.11326" lon="7.67762">
        <ele>455.8022461</ele>
        <time>2010-09-15T10:41:29Z</time>
      </trkpt>
      <trkpt lat="48.11321" lon="7.67755">
        <ele>455.8022461</ele>
        <time>2010-09-15T10:41:38Z</time>
      </trkpt>
      <trkpt lat="48.11322" lon="7.67745">
        <ele>455.8022461</ele>
        <time>2010-09-15T10:41:56Z</time>
      </trkpt>
      <trkpt lat="48.1132" lon="7.67738">
        <ele>455.8022461</ele>
        <time>2010-09-15T10:42:09Z</time>
      </trkpt>
      <trkpt lat="48.11317" lon="7.67732">
        <ele>455.8022461</ele>
        <time>2010-09-15T10:42:17Z</time>
      </trkpt>
      <trkpt lat="48.11312" lon="7.67724">
        <ele>456.7635498</ele>
        <time>2010-09-15T10:42:26Z</time>
      </trkpt>
      <trkpt lat="48.11305" lon="7.67714">
        <ele>458.6861572</ele>
        <time>2010-09-15T10:42:35Z</time>
      </trkpt>
      <trkpt lat="48.11294" lon="7.67698">
        <ele>458.6861572</ele>
        <time>2010-09-15T10:42:49Z</time>
      </trkpt>
      <trkpt lat="48.11287" lon="7.67687">
        <ele>458.6861572</ele>
        <time>2010-09-15T10:43:00Z</time>
      </trkpt>
      <trkpt lat="48.11281" lon="7.67673">
        <ele>459.647583</ele>
        <time>2010-09-15T10:43:10Z</time>
      </trkpt>
      <trkpt lat="48.11275" lon="7.6766">
        <ele>460.1281738</ele>
        <time>2010-09-15T10:43:20Z</time>
      </trkpt>
      <trkpt lat="48.11272" lon="7.67653">
        <ele>460.1281738</ele>
        <time>2010-09-15T10:43:25Z</time>
      </trkpt>
      <trkpt lat="48.11264" lon="7.6764">
        <ele>460.6087646</ele>
        <time>2010-09-15T10:43:36Z</time>
      </trkpt>
      <trkpt lat="48.11258" lon="7.67628">
        <ele>461.0894775</ele>
        <time>2010-09-15T10:43:49Z</time>
      </trkpt>
      <trkpt lat="48.11252" lon="7.67617">
        <ele>461.0894775</ele>
        <time>2010-09-15T10:43:59Z</time>
      </trkpt>
      <trkpt lat="48.11252" lon="7.67612">
        <ele>461.5701904</ele>
        <time>2010-09-15T10:44:08Z</time>
      </trkpt>
      <trkpt lat="48.11247" lon="7.67609">
        <ele>461.0894775</ele>
        <time>2010-09-15T10:44:14Z</time>
      </trkpt>
      <trkpt lat="48.11241" lon="7.67605">
        <ele>461.5701904</ele>
        <time>2010-09-15T10:44:21Z</time>
      </trkpt>
      <trkpt lat="48.11232" lon="7.67599">
        <ele>462.0507813</ele>
        <time>2010-09-15T10:44:30Z</time>
      </trkpt>
      <trkpt lat="48.11226" lon="7.67595">
        <ele>461.5701904</ele>
        <time>2010-09-15T10:44:37Z</time>
      </trkpt>
      <trkpt lat="48.11215" lon="7.67582">
        <ele>461.0894775</ele>
        <time>2010-09-15T10:44:49Z</time>
      </trkpt>
      <trkpt lat="48.11209" lon="7.67574">
        <ele>460.6087646</ele>
        <time>2010-09-15T10:44:58Z</time>
      </trkpt>
      <trkpt lat="48.11204" lon="7.67567">
        <ele>461.0894775</ele>
        <time>2010-09-15T10:45:05Z</time>
      </trkpt>
      <trkpt lat="48.11198" lon="7.6756">
        <ele>459.647583</ele>
        <time>2010-09-15T10:45:13Z</time>
      </trkpt>
      <trkpt lat="48.11191" lon="7.67553">
        <ele>459.1668701</ele>
        <time>2010-09-15T10:45:21Z</time>
      </trkpt>
      <trkpt lat="48.11186" lon="7.67545">
        <ele>458.2055664</ele>
        <time>2010-09-15T10:45:29Z</time>
      </trkpt>
      <trkpt lat="48.11181" lon="7.67536">
        <ele>456.282959</ele>
        <time>2010-09-15T10:45:38Z</time>
      </trkpt>
      <trkpt lat="48.11176" lon="7.67528">
        <ele>454.8408203</ele>
        <time>2010-09-15T10:45:46Z</time>
      </trkpt>
      <trkpt lat="48.11171" lon="7.67518">
        <ele>453.3989258</ele>
        <time>2010-09-15T10:45:57Z</time>
      </trkpt>
      <trkpt lat="48.11164" lon="7.6751">
        <ele>453.3989258</ele>
        <time>2010-09-15T10:46:05Z</time>
      </trkpt>
      <trkpt lat="48.11159" lon="7.67501">
        <ele>452.4376221</ele>
        <time>2010-09-15T10:46:13Z</time>
      </trkpt>
      <trkpt lat="48.11155" lon="7.67494">
        <ele>451.4763184</ele>
        <time>2010-09-15T10:46:21Z</time>
      </trkpt>
      <trkpt lat="48.11149" lon="7.67486">
        <ele>450.5150146</ele>
        <time>2010-09-15T10:46:29Z</time>
      </trkpt>
      <trkpt lat="48.11146" lon="7.67479">
        <ele>449.072998</ele>
        <time>2010-09-15T10:46:36Z</time>
      </trkpt>
      <trkpt lat="48.11137" lon="7.67467">
        <ele>447.6309814</ele>
        <time>2010-09-15T10:46:46Z</time>
      </trkpt>
      <trkpt lat="48.11133" lon="7.67459">
        <ele>447.1502686</ele>
        <time>2010-09-15T10:46:56Z</time>
      </trkpt>
      <trkpt lat="48.11128" lon="7.67452">
        <ele>446.1890869</ele>
        <time>2010-09-15T10:47:04Z</time>
      </trkpt>
      <trkpt lat="48.11123" lon="7.67444">
        <ele>446.1890869</ele>
        <time>2010-09-15T10:47:13Z</time>
      </trkpt>
      <trkpt lat="48.11116" lon="7.67435">
        <ele>447.1502686</ele>
        <time>2010-09-15T10:47:23Z</time>
      </trkpt>
      <trkpt lat="48.11114" lon="7.6743">
        <ele>446.6696777</ele>
        <time>2010-09-15T10:47:30Z</time>
      </trkpt>
      <trkpt lat="48.11105" lon="7.67421">
        <ele>447.1502686</ele>
        <time>2010-09-15T10:47:39Z</time>
      </trkpt>
      <trkpt lat="48.11097" lon="7.67412">
        <ele>446.6696777</ele>
        <time>2010-09-15T10:47:47Z</time>
      </trkpt>
      <trkpt lat="48.11091" lon="7.67402">
        <ele>446.1890869</ele>
        <time>2010-09-15T10:47:55Z</time>
      </trkpt>
      <trkpt lat="48.1109" lon="7.67394">
        <ele>446.1890869</ele>
        <time>2010-09-15T10:48:02Z</time>
      </trkpt>
      <trkpt lat="48.11087" lon="7.67388">
        <ele>446.1890869</ele>
        <time>2010-09-15T10:48:09Z</time>
      </trkpt>
      <trkpt lat="48.11082" lon="7.67382">
        <ele>445.2276611</ele>
        <time>2010-09-15T10:48:18Z</time>
      </trkpt>
      <trkpt lat="48.11079" lon="7.67381">
        <ele>445.708374</ele>
        <time>2010-09-15T10:48:26Z</time>
      </trkpt>
      <trkpt lat="48.11077" lon="7.67376">
        <ele>445.708374</ele>
        <time>2010-09-15T10:48:43Z</time>
      </trkpt>
      <trkpt lat="48.11076" lon="7.67375">
        <ele>445.708374</ele>
        <time>2010-09-15T10:48:52Z</time>
      </trkpt>
      <trkpt lat="48.11072" lon="7.67372">
        <ele>445.708374</ele>
        <time>2010-09-15T10:49:11Z</time>
      </trkpt>
      <trkpt lat="48.11068" lon="7.67368">
        <ele>445.708374</ele>
        <time>2010-09-15T10:49:30Z</time>
      </trkpt>
      <trkpt lat="48.11067" lon="7.67362">
        <ele>444.2664795</ele>
        <time>2010-09-15T10:49:39Z</time>
      </trkpt>
      <trkpt lat="48.11065" lon="7.67353">
        <ele>442.8244629</ele>
        <time>2010-09-15T10:49:49Z</time>
      </trkpt>
      <trkpt lat="48.11064" lon="7.67344">
        <ele>441.8631592</ele>
        <time>2010-09-15T10:49:59Z</time>
      </trkpt>
      <trkpt lat="48.1106" lon="7.67332">
        <ele>439.4597168</ele>
        <time>2010-09-15T10:50:10Z</time>
      </trkpt>
      <trkpt lat="48.11058" lon="7.6732">
        <ele>438.979126</ele>
        <time>2010-09-15T10:50:19Z</time>
      </trkpt>
      <trkpt lat="48.11055" lon="7.6731">
        <ele>438.0178223</ele>
        <time>2010-09-15T10:50:28Z</time>
      </trkpt>
      <trkpt lat="48.11054" lon="7.67299">
        <ele>435.614502</ele>
        <time>2010-09-15T10:50:37Z</time>
      </trkpt>
      <trkpt lat="48.11054" lon="7.67289">
        <ele>435.1339111</ele>
        <time>2010-09-15T10:50:44Z</time>
      </trkpt>
      <trkpt lat="48.11054" lon="7.6728">
        <ele>433.6918945</ele>
        <time>2010-09-15T10:50:52Z</time>
      </trkpt>
      <trkpt lat="48.11056" lon="7.6727">
        <ele>433.2113037</ele>
        <time>2010-09-15T10:50:59Z</time>
      </trkpt>
      <trkpt lat="48.11056" lon="7.67261">
        <ele>432.7307129</ele>
        <time>2010-09-15T10:51:04Z</time>
      </trkpt>
      <trkpt lat="48.11058" lon="7.67251">
        <ele>431.769165</ele>
        <time>2010-09-15T10:51:10Z</time>
      </trkpt>
      <trkpt lat="48.11063" lon="7.67238">
        <ele>429.3659668</ele>
        <time>2010-09-15T10:51:21Z</time>
      </trkpt>
      <trkpt lat="48.11068" lon="7.67228">
        <ele>428.4046631</ele>
        <time>2010-09-15T10:51:28Z</time>
      </trkpt>
      <trkpt lat="48.1107" lon="7.67213">
        <ele>427.9239502</ele>
        <time>2010-09-15T10:51:37Z</time>
      </trkpt>
      <trkpt lat="48.1107" lon="7.67204">
        <ele>427.4433594</ele>
        <time>2010-09-15T10:51:44Z</time>
      </trkpt>
      <trkpt lat="48.11069" lon="7.67192">
        <ele>427.4433594</ele>
        <time>2010-09-15T10:51:52Z</time>
      </trkpt>
      <trkpt lat="48.1107" lon="7.6718">
        <ele>427.9239502</ele>
        <time>2010-09-15T10:52:01Z</time>
      </trkpt>
      <trkpt lat="48.11076" lon="7.67175">
        <ele>427.4433594</ele>
        <time>2010-09-15T10:52:09Z</time>
      </trkpt>
      <trkpt lat="48.1108" lon="7.67172">
        <ele>427.9239502</ele>
        <time>2010-09-15T10:52:24Z</time>
      </trkpt>
      <trkpt lat="48.11082" lon="7.67169">
        <ele>427.4433594</ele>
        <time>2010-09-15T10:52:43Z</time>
      </trkpt>
      <trkpt lat="48.11083" lon="7.67168">
        <ele>427.4433594</ele>
        <time>2010-09-15T10:52:56Z</time>
      </trkpt>
      <trkpt lat="48.11087" lon="7.67162">
        <ele>427.4433594</ele>
        <time>2010-09-15T10:53:50Z</time>
      </trkpt>
      <trkpt lat="48.11087" lon="7.67153">
        <ele>426.4820557</ele>
        <time>2010-09-15T10:53:59Z</time>
      </trkpt>
      <trkpt lat="48.11087" lon="7.67152">
        <ele>427.4433594</ele>
        <time>2010-09-15T10:54:01Z</time>
      </trkpt>
      <trkpt lat="48.11091" lon="7.67138">
        <ele>426.9627686</ele>
        <time>2010-09-15T10:54:11Z</time>
      </trkpt>
      <trkpt lat="48.11095" lon="7.6713">
        <ele>427.9239502</ele>
        <time>2010-09-15T10:54:17Z</time>
      </trkpt>
      <trkpt lat="48.11099" lon="7.67121">
        <ele>429.8465576</ele>
        <time>2010-09-15T10:54:24Z</time>
      </trkpt>
      <trkpt lat="48.11103" lon="7.67109">
        <ele>432.25</ele>
        <time>2010-09-15T10:54:34Z</time>
      </trkpt>
      <trkpt lat="48.11106" lon="7.67099">
        <ele>431.769165</ele>
        <time>2010-09-15T10:54:44Z</time>
      </trkpt>
      <trkpt lat="48.11108" lon="7.67095">
        <ele>433.2113037</ele>
        <time>2010-09-15T10:54:47Z</time>
      </trkpt>
      <trkpt lat="48.11112" lon="7.67086">
        <ele>434.1726074</ele>
        <time>2010-09-15T10:54:56Z</time>
      </trkpt>
      <trkpt lat="48.11116" lon="7.67075">
        <ele>437.0565186</ele>
        <time>2010-09-15T10:55:06Z</time>
      </trkpt>
      <trkpt lat="48.11121" lon="7.67068">
        <ele>438.0178223</ele>
        <time>2010-09-15T10:55:15Z</time>
      </trkpt>
      <trkpt lat="48.11128" lon="7.67059">
        <ele>438.4985352</ele>
        <time>2010-09-15T10:55:25Z</time>
      </trkpt>
      <trkpt lat="48.11133" lon="7.67048">
        <ele>440.9018555</ele>
        <time>2010-09-15T10:55:35Z</time>
      </trkpt>
      <trkpt lat="48.11138" lon="7.67036">
        <ele>440.9018555</ele>
        <time>2010-09-15T10:55:44Z</time>
      </trkpt>
      <trkpt lat="48.11141" lon="7.67023">
        <ele>441.3824463</ele>
        <time>2010-09-15T10:55:56Z</time>
      </trkpt>
      <trkpt lat="48.11145" lon="7.67012">
        <ele>441.3824463</ele>
        <time>2010-09-15T10:56:04Z</time>
      </trkpt>
      <trkpt lat="48.11147" lon="7.67002">
        <ele>441.3824463</ele>
        <time>2010-09-15T10:56:12Z</time>
      </trkpt>
      <trkpt lat="48.11152" lon="7.66985">
        <ele>442.8244629</ele>
        <time>2010-09-15T10:56:23Z</time>
      </trkpt>
      <trkpt lat="48.11155" lon="7.66974">
        <ele>444.7470703</ele>
        <time>2010-09-15T10:56:33Z</time>
      </trkpt>
      <trkpt lat="48.11155" lon="7.66963">
        <ele>447.1502686</ele>
        <time>2010-09-15T10:56:43Z</time>
      </trkpt>
      <trkpt lat="48.11156" lon="7.66954">
        <ele>449.072998</ele>
        <time>2010-09-15T10:56:51Z</time>
      </trkpt>
      <trkpt lat="48.11157" lon="7.66949">
        <ele>450.0344238</ele>
        <time>2010-09-15T10:56:55Z</time>
      </trkpt>
      <trkpt lat="48.11161" lon="7.66938">
        <ele>450.5150146</ele>
        <time>2010-09-15T10:57:05Z</time>
      </trkpt>
      <trkpt lat="48.1116" lon="7.66926">
        <ele>451.4763184</ele>
        <time>2010-09-15T10:57:14Z</time>
      </trkpt>
      <trkpt lat="48.11156" lon="7.66916">
        <ele>451.4763184</ele>
        <time>2010-09-15T10:57:24Z</time>
      </trkpt>
      <trkpt lat="48.1115" lon="7.66908">
        <ele>452.9182129</ele>
        <time>2010-09-15T10:57:34Z</time>
      </trkpt>
      <trkpt lat="48.11148" lon="7.66906">
        <ele>452.4376221</ele>
        <time>2010-09-15T10:57:36Z</time>
      </trkpt>
      <trkpt lat="48.11142" lon="7.66897">
        <ele>451.9570313</ele>
        <time>2010-09-15T10:57:45Z</time>
      </trkpt>
      <trkpt lat="48.11134" lon="7.66889">
        <ele>452.4376221</ele>
        <time>2010-09-15T10:57:55Z</time>
      </trkpt>
      <trkpt lat="48.11126" lon="7.66879">
        <ele>452.9182129</ele>
        <time>2010-09-15T10:58:05Z</time>
      </trkpt>
      <trkpt lat="48.11121" lon="7.66873">
        <ele>453.3989258</ele>
        <time>2010-09-15T10:58:13Z</time>
      </trkpt>
      <trkpt lat="48.11112" lon="7.66865">
        <ele>453.8796387</ele>
        <time>2010-09-15T10:58:22Z</time>
      </trkpt>
      <trkpt lat="48.11106" lon="7.66859">
        <ele>454.8408203</ele>
        <time>2010-09-15T10:58:29Z</time>
      </trkpt>
      <trkpt lat="48.11099" lon="7.66854">
        <ele>455.3215332</ele>
        <time>2010-09-15T10:58:36Z</time>
      </trkpt>
      <trkpt lat="48.11092" lon="7.66845">
        <ele>455.8022461</ele>
        <time>2010-09-15T10:58:46Z</time>
      </trkpt>
      <trkpt lat="48.11088" lon="7.66839">
        <ele>455.3215332</ele>
        <time>2010-09-15T10:58:57Z</time>
      </trkpt>
      <trkpt lat="48.11083" lon="7.66836">
        <ele>455.8022461</ele>
        <time>2010-09-15T10:59:06Z</time>
      </trkpt>
      <trkpt lat="48.11076" lon="7.66831">
        <ele>455.3215332</ele>
        <time>2010-09-15T10:59:15Z</time>
      </trkpt>
      <trkpt lat="48.11074" lon="7.6683">
        <ele>455.3215332</ele>
        <time>2010-09-15T10:59:25Z</time>
      </trkpt>
      <trkpt lat="48.11071" lon="7.66829">
        <ele>455.3215332</ele>
        <time>2010-09-15T10:59:37Z</time>
      </trkpt>
      <trkpt lat="48.11064" lon="7.66823">
        <ele>455.3215332</ele>
        <time>2010-09-15T10:59:46Z</time>
      </trkpt>
      <trkpt lat="48.11057" lon="7.66816">
        <ele>455.3215332</ele>
        <time>2010-09-15T10:59:56Z</time>
      </trkpt>
      <trkpt lat="48.11051" lon="7.6681">
        <ele>455.8022461</ele>
        <time>2010-09-15T11:00:04Z</time>
      </trkpt>
      <trkpt lat="48.11045" lon="7.66801">
        <ele>455.3215332</ele>
        <time>2010-09-15T11:00:14Z</time>
      </trkpt>
      <trkpt lat="48.1104" lon="7.66796">
        <ele>455.8022461</ele>
        <time>2010-09-15T11:00:22Z</time>
      </trkpt>
      <trkpt lat="48.11034" lon="7.66792">
        <ele>456.7635498</ele>
        <time>2010-09-15T11:00:30Z</time>
      </trkpt>
      <trkpt lat="48.11025" lon="7.66787">
        <ele>457.2442627</ele>
        <time>2010-09-15T11:00:37Z</time>
      </trkpt>
      <trkpt lat="48.11017" lon="7.66779">
        <ele>458.6861572</ele>
        <time>2010-09-15T11:00:45Z</time>
      </trkpt>
      <trkpt lat="48.1101" lon="7.66779">
        <ele>458.6861572</ele>
        <time>2010-09-15T11:00:52Z</time>
      </trkpt>
      <trkpt lat="48.11003" lon="7.66777">
        <ele>458.2055664</ele>
        <time>2010-09-15T11:01:00Z</time>
      </trkpt>
      <trkpt lat="48.10998" lon="7.66777">
        <ele>457.7249756</ele>
        <time>2010-09-15T11:01:10Z</time>
      </trkpt>
      <trkpt lat="48.10995" lon="7.6677">
        <ele>458.6861572</ele>
        <time>2010-09-15T11:08:05Z</time>
      </trkpt>
      <trkpt lat="48.10994" lon="7.66768">
        <ele>458.6861572</ele>
        <time>2010-09-15T11:08:39Z</time>
      </trkpt>
      <trkpt lat="48.1099" lon="7.6676">
        <ele>458.6861572</ele>
        <time>2010-09-15T11:08:51Z</time>
      </trkpt>
      <trkpt lat="48.10988" lon="7.66751">
        <ele>458.6861572</ele>
        <time>2010-09-15T11:09:00Z</time>
      </trkpt>
      <trkpt lat="48.10983" lon="7.66743">
        <ele>459.1668701</ele>
        <time>2010-09-15T11:09:11Z</time>
      </trkpt>
      <trkpt lat="48.10979" lon="7.66734">
        <ele>456.7635498</ele>
        <time>2010-09-15T11:09:21Z</time>
      </trkpt>
      <trkpt lat="48.10975" lon="7.66727">
        <ele>455.8022461</ele>
        <time>2010-09-15T11:09:29Z</time>
      </trkpt>
      <trkpt lat="48.10974" lon="7.66723">
        <ele>455.8022461</ele>
        <time>2010-09-15T11:09:33Z</time>
      </trkpt>
      <trkpt lat="48.10972" lon="7.66711">
        <ele>454.8408203</ele>
        <time>2010-09-15T11:09:44Z</time>
      </trkpt>
      <trkpt lat="48.10971" lon="7.66706">
        <ele>453.3989258</ele>
        <time>2010-09-15T11:09:49Z</time>
      </trkpt>
      <trkpt lat="48.10972" lon="7.66697">
        <ele>452.4376221</ele>
        <time>2010-09-15T11:09:57Z</time>
      </trkpt>
      <trkpt lat="48.10972" lon="7.66686">
        <ele>451.9570313</ele>
        <time>2010-09-15T11:10:06Z</time>
      </trkpt>
      <trkpt lat="48.10971" lon="7.66676">
        <ele>450.9956055</ele>
        <time>2010-09-15T11:10:14Z</time>
      </trkpt>
      <trkpt lat="48.10965" lon="7.66662">
        <ele>447.6309814</ele>
        <time>2010-09-15T11:10:27Z</time>
      </trkpt>
      <trkpt lat="48.10962" lon="7.66654">
        <ele>446.1890869</ele>
        <time>2010-09-15T11:10:36Z</time>
      </trkpt>
      <trkpt lat="48.1096" lon="7.66644">
        <ele>446.1890869</ele>
        <time>2010-09-15T11:10:45Z</time>
      </trkpt>
      <trkpt lat="48.1096" lon="7.66634">
        <ele>445.708374</ele>
        <time>2010-09-15T11:10:53Z</time>
      </trkpt>
      <trkpt lat="48.1096" lon="7.66621">
        <ele>445.708374</ele>
        <time>2010-09-15T11:11:02Z</time>
      </trkpt>
      <trkpt lat="48.1096" lon="7.66606">
        <ele>445.708374</ele>
        <time>2010-09-15T11:11:10Z</time>
      </trkpt>
      <trkpt lat="48.10959" lon="7.66593">
        <ele>446.1890869</ele>
        <time>2010-09-15T11:11:18Z</time>
      </trkpt>
      <trkpt lat="48.10958" lon="7.66583">
        <ele>446.6696777</ele>
        <time>2010-09-15T11:11:25Z</time>
      </trkpt>
      <trkpt lat="48.10959" lon="7.66578">
        <ele>447.1502686</ele>
        <time>2010-09-15T11:11:28Z</time>
      </trkpt>
      <trkpt lat="48.10959" lon="7.6656">
        <ele>447.6309814</ele>
        <time>2010-09-15T11:11:39Z</time>
      </trkpt>
      <trkpt lat="48.10958" lon="7.66546">
        <ele>446.6696777</ele>
        <time>2010-09-15T11:11:49Z</time>
      </trkpt>
      <trkpt lat="48.10956" lon="7.66532">
        <ele>449.5537109</ele>
        <time>2010-09-15T11:11:57Z</time>
      </trkpt>
      <trkpt lat="48.10956" lon="7.66515">
        <ele>449.5537109</ele>
        <time>2010-09-15T11:12:07Z</time>
      </trkpt>
      <trkpt lat="48.10957" lon="7.66499">
        <ele>449.072998</ele>
        <time>2010-09-15T11:12:17Z</time>
      </trkpt>
      <trkpt lat="48.10958" lon="7.6648">
        <ele>449.5537109</ele>
        <time>2010-09-15T11:12:27Z</time>
      </trkpt>
      <trkpt lat="48.10961" lon="7.66466">
        <ele>450.5150146</ele>
        <time>2010-09-15T11:12:37Z</time>
      </trkpt>
      <trkpt lat="48.1096" lon="7.66452">
        <ele>451.9570313</ele>
        <time>2010-09-15T11:12:47Z</time>
      </trkpt>
      <trkpt lat="48.10961" lon="7.66439">
        <ele>452.4376221</ele>
        <time>2010-09-15T11:12:54Z</time>
      </trkpt>
      <trkpt lat="48.10958" lon="7.66425">
        <ele>453.3989258</ele>
        <time>2010-09-15T11:13:04Z</time>
      </trkpt>
      <trkpt lat="48.10959" lon="7.66412">
        <ele>452.4376221</ele>
        <time>2010-09-15T11:13:14Z</time>
      </trkpt>
      <trkpt lat="48.1096" lon="7.66399">
        <ele>452.4376221</ele>
        <time>2010-09-15T11:13:23Z</time>
      </trkpt>
      <trkpt lat="48.1096" lon="7.66388">
        <ele>450.0344238</ele>
        <time>2010-09-15T11:13:33Z</time>
      </trkpt>
      <trkpt lat="48.1096" lon="7.66381">
        <ele>448.5924072</ele>
        <time>2010-09-15T11:13:40Z</time>
      </trkpt>
      <trkpt lat="48.10961" lon="7.66372">
        <ele>446.6696777</ele>
        <time>2010-09-15T11:13:51Z</time>
      </trkpt>
      <trkpt lat="48.10961" lon="7.66364">
        <ele>445.708374</ele>
        <time>2010-09-15T11:14:02Z</time>
      </trkpt>
      <trkpt lat="48.10962" lon="7.66355">
        <ele>442.8244629</ele>
        <time>2010-09-15T11:14:11Z</time>
      </trkpt>
      <trkpt lat="48.10963" lon="7.66348">
        <ele>441.8631592</ele>
        <time>2010-09-15T11:14:19Z</time>
      </trkpt>
      <trkpt lat="48.10964" lon="7.66342">
        <ele>438.979126</ele>
        <time>2010-09-15T11:14:27Z</time>
      </trkpt>
      <trkpt lat="48.10964" lon="7.66334">
        <ele>437.0565186</ele>
        <time>2010-09-15T11:14:36Z</time>
      </trkpt>
      <trkpt lat="48.10966" lon="7.66329">
        <ele>435.1339111</ele>
        <time>2010-09-15T11:14:45Z</time>
      </trkpt>
      <trkpt lat="48.10968" lon="7.66312">
        <ele>431.2885742</ele>
        <time>2010-09-15T11:15:03Z</time>
      </trkpt>
      <trkpt lat="48.1097" lon="7.663">
        <ele>427.4433594</ele>
        <time>2010-09-15T11:15:19Z</time>
      </trkpt>
      <trkpt lat="48.10972" lon="7.66289">
        <ele>425.520752</ele>
        <time>2010-09-15T11:15:30Z</time>
      </trkpt>
      <trkpt lat="48.10972" lon="7.66281">
        <ele>423.5980225</ele>
        <time>2010-09-15T11:15:37Z</time>
      </trkpt>
      <trkpt lat="48.10973" lon="7.6627">
        <ele>422.6367188</ele>
        <time>2010-09-15T11:15:44Z</time>
      </trkpt>
      <trkpt lat="48.1098" lon="7.66254">
        <ele>422.1560059</ele>
        <time>2010-09-15T11:15:52Z</time>
      </trkpt>
      <trkpt lat="48.10986" lon="7.66242">
        <ele>422.6367188</ele>
        <time>2010-09-15T11:15:59Z</time>
      </trkpt>
      <trkpt lat="48.10989" lon="7.66233">
        <ele>421.1948242</ele>
        <time>2010-09-15T11:16:07Z</time>
      </trkpt>
      <trkpt lat="48.10988" lon="7.66225">
        <ele>420.2333984</ele>
        <time>2010-09-15T11:16:15Z</time>
      </trkpt>
      <trkpt lat="48.10989" lon="7.66217">
        <ele>418.7915039</ele>
        <time>2010-09-15T11:16:23Z</time>
      </trkpt>
      <trkpt lat="48.10989" lon="7.66216">
        <ele>418.7915039</ele>
        <time>2010-09-15T11:16:24Z</time>
      </trkpt>
      <trkpt lat="48.10986" lon="7.66205">
        <ele>417.8302002</ele>
        <time>2010-09-15T11:16:32Z</time>
      </trkpt>
      <trkpt lat="48.10987" lon="7.66191">
        <ele>417.3496094</ele>
        <time>2010-09-15T11:16:39Z</time>
      </trkpt>
      <trkpt lat="48.10987" lon="7.66181">
        <ele>416.8688965</ele>
        <time>2010-09-15T11:16:45Z</time>
      </trkpt>
      <trkpt lat="48.1099" lon="7.6617">
        <ele>415.4268799</ele>
        <time>2010-09-15T11:16:52Z</time>
      </trkpt>
      <trkpt lat="48.10988" lon="7.66157">
        <ele>414.4654541</ele>
        <time>2010-09-15T11:16:59Z</time>
      </trkpt>
      <trkpt lat="48.10988" lon="7.66146">
        <ele>414.4654541</ele>
        <time>2010-09-15T11:17:07Z</time>
      </trkpt>
      <trkpt lat="48.10985" lon="7.66132">
        <ele>412.5428467</ele>
        <time>2010-09-15T11:17:19Z</time>
      </trkpt>
      <trkpt lat="48.1098" lon="7.6612">
        <ele>412.5428467</ele>
        <time>2010-09-15T11:17:26Z</time>
      </trkpt>
      <trkpt lat="48.10976" lon="7.66109">
        <ele>412.5428467</ele>
        <time>2010-09-15T11:17:33Z</time>
      </trkpt>
      <trkpt lat="48.10972" lon="7.66094">
        <ele>412.0622559</ele>
        <time>2010-09-15T11:17:42Z</time>
      </trkpt>
      <trkpt lat="48.10969" lon="7.66083">
        <ele>411.581665</ele>
        <time>2010-09-15T11:17:50Z</time>
      </trkpt>
      <trkpt lat="48.10965" lon="7.66073">
        <ele>411.1009521</ele>
        <time>2010-09-15T11:17:57Z</time>
      </trkpt>
      <trkpt lat="48.1096" lon="7.66057">
        <ele>410.1396484</ele>
        <time>2010-09-15T11:18:08Z</time>
      </trkpt>
      <trkpt lat="48.10956" lon="7.66046">
        <ele>408.217041</ele>
        <time>2010-09-15T11:18:17Z</time>
      </trkpt>
      <trkpt lat="48.10954" lon="7.66032">
        <ele>407.7363281</ele>
        <time>2010-09-15T11:18:26Z</time>
      </trkpt>
      <trkpt lat="48.10951" lon="7.66025">
        <ele>407.7363281</ele>
        <time>2010-09-15T11:18:35Z</time>
      </trkpt>
      <trkpt lat="48.10955" lon="7.66021">
        <ele>407.7363281</ele>
        <time>2010-09-15T11:18:48Z</time>
      </trkpt>
      <trkpt lat="48.10957" lon="7.66016">
        <ele>407.7363281</ele>
        <time>2010-09-15T11:18:58Z</time>
      </trkpt>
      <trkpt lat="48.10957" lon="7.66012">
        <ele>407.7363281</ele>
        <time>2010-09-15T11:19:09Z</time>
      </trkpt>
      <trkpt lat="48.10954" lon="7.66007">
        <ele>407.2556152</ele>
        <time>2010-09-15T11:19:27Z</time>
      </trkpt>
      <trkpt lat="48.1095" lon="7.65993">
        <ele>407.2556152</ele>
        <time>2010-09-15T11:19:36Z</time>
      </trkpt>
      <trkpt lat="48.10945" lon="7.65982">
        <ele>407.2556152</ele>
        <time>2010-09-15T11:19:44Z</time>
      </trkpt>
      <trkpt lat="48.10941" lon="7.65971">
        <ele>408.217041</ele>
        <time>2010-09-15T11:19:53Z</time>
      </trkpt>
      <trkpt lat="48.10934" lon="7.65963">
        <ele>409.1783447</ele>
        <time>2010-09-15T11:19:59Z</time>
      </trkpt>
      <trkpt lat="48.10925" lon="7.65952">
        <ele>408.6976318</ele>
        <time>2010-09-15T11:20:08Z</time>
      </trkpt>
      <trkpt lat="48.10921" lon="7.65942">
        <ele>408.217041</ele>
        <time>2010-09-15T11:20:17Z</time>
      </trkpt>
      <trkpt lat="48.1091" lon="7.65918">
        <ele>406.2943115</ele>
        <time>2010-09-15T11:20:38Z</time>
      </trkpt>
      <trkpt lat="48.10914" lon="7.65875">
        <ele>407.7363281</ele>
        <time>2010-09-15T11:21:54Z</time>
      </trkpt>
      <trkpt lat="48.10914" lon="7.65875">
        <ele>407.2556152</ele>
        <time>2010-09-15T11:22:18Z</time>
      </trkpt>
      <trkpt lat="48.10916" lon="7.65867">
        <ele>408.217041</ele>
        <time>2010-09-15T11:22:30Z</time>
      </trkpt>
      <trkpt lat="48.10924" lon="7.65842">
        <ele>408.6976318</ele>
        <time>2010-09-15T11:22:44Z</time>
      </trkpt>
      <trkpt lat="48.10928" lon="7.65827">
        <ele>409.6590576</ele>
        <time>2010-09-15T11:22:53Z</time>
      </trkpt>
      <trkpt lat="48.10934" lon="7.65809">
        <ele>410.1396484</ele>
        <time>2010-09-15T11:23:04Z</time>
      </trkpt>
      <trkpt lat="48.10938" lon="7.65796">
        <ele>411.581665</ele>
        <time>2010-09-15T11:23:14Z</time>
      </trkpt>
      <trkpt lat="48.10946" lon="7.65782">
        <ele>412.0622559</ele>
        <time>2010-09-15T11:23:28Z</time>
      </trkpt>
      <trkpt lat="48.10953" lon="7.65772">
        <ele>413.9848633</ele>
        <time>2010-09-15T11:23:39Z</time>
      </trkpt>
      <trkpt lat="48.10959" lon="7.65761">
        <ele>414.946167</ele>
        <time>2010-09-15T11:23:48Z</time>
      </trkpt>
      <trkpt lat="48.10966" lon="7.65754">
        <ele>416.8688965</ele>
        <time>2010-09-15T11:23:58Z</time>
      </trkpt>
      <trkpt lat="48.10973" lon="7.65747">
        <ele>417.3496094</ele>
        <time>2010-09-15T11:24:07Z</time>
      </trkpt>
      <trkpt lat="48.10978" lon="7.65741">
        <ele>419.7528076</ele>
        <time>2010-09-15T11:24:15Z</time>
      </trkpt>
      <trkpt lat="48.10985" lon="7.65729">
        <ele>420.7141113</ele>
        <time>2010-09-15T11:24:24Z</time>
      </trkpt>
      <trkpt lat="48.10987" lon="7.65714">
        <ele>421.1948242</ele>
        <time>2010-09-15T11:24:33Z</time>
      </trkpt>
      <trkpt lat="48.10988" lon="7.65706">
        <ele>421.1948242</ele>
        <time>2010-09-15T11:24:43Z</time>
      </trkpt>
      <trkpt lat="48.1099" lon="7.65695">
        <ele>421.1948242</ele>
        <time>2010-09-15T11:24:51Z</time>
      </trkpt>
      <trkpt lat="48.1099" lon="7.65683">
        <ele>420.7141113</ele>
        <time>2010-09-15T11:25:00Z</time>
      </trkpt>
      <trkpt lat="48.10991" lon="7.65672">
        <ele>421.1948242</ele>
        <time>2010-09-15T11:25:07Z</time>
      </trkpt>
      <trkpt lat="48.10996" lon="7.65656">
        <ele>420.2333984</ele>
        <time>2010-09-15T11:25:14Z</time>
      </trkpt>
      <trkpt lat="48.10999" lon="7.65645">
        <ele>418.310791</ele>
        <time>2010-09-15T11:25:20Z</time>
      </trkpt>
      <trkpt lat="48.11002" lon="7.65631">
        <ele>417.3496094</ele>
        <time>2010-09-15T11:25:29Z</time>
      </trkpt>
      <trkpt lat="48.11003" lon="7.65627">
        <ele>417.8302002</ele>
        <time>2010-09-15T11:25:32Z</time>
      </trkpt>
      <trkpt lat="48.11003" lon="7.65623">
        <ele>416.8688965</ele>
        <time>2010-09-15T11:25:35Z</time>
      </trkpt>
      <trkpt lat="48.11008" lon="7.65605">
        <ele>416.8688965</ele>
        <time>2010-09-15T11:25:47Z</time>
      </trkpt>
      <trkpt lat="48.11008" lon="7.65604">
        <ele>415.9074707</ele>
        <time>2010-09-15T11:25:48Z</time>
      </trkpt>
      <trkpt lat="48.11008" lon="7.65595">
        <ele>415.9074707</ele>
        <time>2010-09-15T11:25:53Z</time>
      </trkpt>
      <trkpt lat="48.11013" lon="7.65572">
        <ele>413.9848633</ele>
        <time>2010-09-15T11:26:06Z</time>
      </trkpt>
      <trkpt lat="48.11013" lon="7.65552">
        <ele>414.4654541</ele>
        <time>2010-09-15T11:26:19Z</time>
      </trkpt>
      <trkpt lat="48.11014" lon="7.65549">
        <ele>413.0235596</ele>
        <time>2010-09-15T11:26:31Z</time>
      </trkpt>
      <trkpt lat="48.11014" lon="7.65536">
        <ele>413.0235596</ele>
        <time>2010-09-15T11:26:40Z</time>
      </trkpt>
      <trkpt lat="48.11015" lon="7.65519">
        <ele>411.1009521</ele>
        <time>2010-09-15T11:26:51Z</time>
      </trkpt>
      <trkpt lat="48.11016" lon="7.65499">
        <ele>412.0622559</ele>
        <time>2010-09-15T11:27:03Z</time>
      </trkpt>
      <trkpt lat="48.11017" lon="7.65491">
        <ele>412.5428467</ele>
        <time>2010-09-15T11:27:13Z</time>
      </trkpt>
      <trkpt lat="48.11018" lon="7.65481">
        <ele>412.5428467</ele>
        <time>2010-09-15T11:27:32Z</time>
      </trkpt>
      <trkpt lat="48.11019" lon="7.65476">
        <ele>413.5042725</ele>
        <time>2010-09-15T11:27:36Z</time>
      </trkpt>
      <trkpt lat="48.11019" lon="7.65466">
        <ele>414.946167</ele>
        <time>2010-09-15T11:27:42Z</time>
      </trkpt>
      <trkpt lat="48.11019" lon="7.65461">
        <ele>414.4654541</ele>
        <time>2010-09-15T11:27:45Z</time>
      </trkpt>
      <trkpt lat="48.11012" lon="7.65448">
        <ele>413.9848633</ele>
        <time>2010-09-15T11:27:57Z</time>
      </trkpt>
      <trkpt lat="48.11002" lon="7.6544">
        <ele>412.5428467</ele>
        <time>2010-09-15T11:28:10Z</time>
      </trkpt>
      <trkpt lat="48.10994" lon="7.65437">
        <ele>412.0622559</ele>
        <time>2010-09-15T11:28:22Z</time>
      </trkpt>
      <trkpt lat="48.10989" lon="7.6543">
        <ele>411.1009521</ele>
        <time>2010-09-15T11:28:30Z</time>
      </trkpt>
      <trkpt lat="48.10981" lon="7.65423">
        <ele>410.1396484</ele>
        <time>2010-09-15T11:28:41Z</time>
      </trkpt>
      <trkpt lat="48.10979" lon="7.65417">
        <ele>409.6590576</ele>
        <time>2010-09-15T11:28:45Z</time>
      </trkpt>
      <trkpt lat="48.10985" lon="7.65406">
        <ele>410.1396484</ele>
        <time>2010-09-15T11:28:54Z</time>
      </trkpt>
      <trkpt lat="48.10995" lon="7.65408">
        <ele>411.581665</ele>
        <time>2010-09-15T11:29:05Z</time>
      </trkpt>
      <trkpt lat="48.11003" lon="7.65407">
        <ele>414.4654541</ele>
        <time>2010-09-15T11:29:16Z</time>
      </trkpt>
      <trkpt lat="48.11012" lon="7.65409">
        <ele>414.4654541</ele>
        <time>2010-09-15T11:29:24Z</time>
      </trkpt>
      <trkpt lat="48.11023" lon="7.6541">
        <ele>415.9074707</ele>
        <time>2010-09-15T11:29:46Z</time>
      </trkpt>
      <trkpt lat="48.11023" lon="7.65408">
        <ele>414.946167</ele>
        <time>2010-09-15T11:29:50Z</time>
      </trkpt>
      <trkpt lat="48.11023" lon="7.65396">
        <ele>417.3496094</ele>
        <time>2010-09-15T11:29:58Z</time>
      </trkpt>
      <trkpt lat="48.11023" lon="7.65394">
        <ele>416.3881836</ele>
        <time>2010-09-15T11:29:59Z</time>
      </trkpt>
      <trkpt lat="48.11019" lon="7.65381">
        <ele>417.8302002</ele>
        <time>2010-09-15T11:30:09Z</time>
      </trkpt>
      <trkpt lat="48.11015" lon="7.65369">
        <ele>418.7915039</ele>
        <time>2010-09-15T11:30:18Z</time>
      </trkpt>
      <trkpt lat="48.11011" lon="7.65355">
        <ele>420.2333984</ele>
        <time>2010-09-15T11:30:29Z</time>
      </trkpt>
      <trkpt lat="48.11006" lon="7.65336">
        <ele>422.1560059</ele>
        <time>2010-09-15T11:30:43Z</time>
      </trkpt>
      <trkpt lat="48.11001" lon="7.65322">
        <ele>423.5980225</ele>
        <time>2010-09-15T11:30:55Z</time>
      </trkpt>
      <trkpt lat="48.10998" lon="7.65312">
        <ele>425.0401611</ele>
        <time>2010-09-15T11:31:06Z</time>
      </trkpt>
      <trkpt lat="48.10993" lon="7.65297">
        <ele>426.0013428</ele>
        <time>2010-09-15T11:31:16Z</time>
      </trkpt>
      <trkpt lat="48.10988" lon="7.65283">
        <ele>426.4820557</ele>
        <time>2010-09-15T11:31:27Z</time>
      </trkpt>
      <trkpt lat="48.10982" lon="7.65265">
        <ele>427.4433594</ele>
        <time>2010-09-15T11:31:40Z</time>
      </trkpt>
      <trkpt lat="48.10981" lon="7.65259">
        <ele>428.4046631</ele>
        <time>2010-09-15T11:31:44Z</time>
      </trkpt>
      <trkpt lat="48.1098" lon="7.65255">
        <ele>426.9627686</ele>
        <time>2010-09-15T11:31:47Z</time>
      </trkpt>
      <trkpt lat="48.10976" lon="7.65238">
        <ele>427.4433594</ele>
        <time>2010-09-15T11:31:59Z</time>
      </trkpt>
      <trkpt lat="48.10974" lon="7.6523">
        <ele>427.4433594</ele>
        <time>2010-09-15T11:32:06Z</time>
      </trkpt>
      <trkpt lat="48.1097" lon="7.65214">
        <ele>426.4820557</ele>
        <time>2010-09-15T11:32:17Z</time>
      </trkpt>
      <trkpt lat="48.10966" lon="7.65202">
        <ele>427.4433594</ele>
        <time>2010-09-15T11:32:26Z</time>
      </trkpt>
      <trkpt lat="48.10964" lon="7.65184">
        <ele>424.5594482</ele>
        <time>2010-09-15T11:32:42Z</time>
      </trkpt>
      <trkpt lat="48.10964" lon="7.65173">
        <ele>424.0787354</ele>
        <time>2010-09-15T11:32:48Z</time>
      </trkpt>
      <trkpt lat="48.10965" lon="7.65157">
        <ele>423.5980225</ele>
        <time>2010-09-15T11:32:59Z</time>
      </trkpt>
      <trkpt lat="48.10965" lon="7.65146">
        <ele>423.1174316</ele>
        <time>2010-09-15T11:33:08Z</time>
      </trkpt>
      <trkpt lat="48.10964" lon="7.65135">
        <ele>423.5980225</ele>
        <time>2010-09-15T11:33:17Z</time>
      </trkpt>
      <trkpt lat="48.10964" lon="7.65125">
        <ele>424.0787354</ele>
        <time>2010-09-15T11:34:36Z</time>
      </trkpt>
      <trkpt lat="48.1096" lon="7.65115">
        <ele>423.1174316</ele>
        <time>2010-09-15T11:34:45Z</time>
      </trkpt>
      <trkpt lat="48.10959" lon="7.65114">
        <ele>423.5980225</ele>
        <time>2010-09-15T11:34:46Z</time>
      </trkpt>
      <trkpt lat="48.10948" lon="7.65105">
        <ele>424.0787354</ele>
        <time>2010-09-15T11:34:57Z</time>
      </trkpt>
      <trkpt lat="48.10932" lon="7.65096">
        <ele>423.5980225</ele>
        <time>2010-09-15T11:35:08Z</time>
      </trkpt>
      <trkpt lat="48.10922" lon="7.6509">
        <ele>423.1174316</ele>
        <time>2010-09-15T11:35:18Z</time>
      </trkpt>
      <trkpt lat="48.10913" lon="7.65084">
        <ele>423.5980225</ele>
        <time>2010-09-15T11:35:26Z</time>
      </trkpt>
      <trkpt lat="48.10907" lon="7.6508">
        <ele>423.1174316</ele>
        <time>2010-09-15T11:35:33Z</time>
      </trkpt>
      <trkpt lat="48.10903" lon="7.65078">
        <ele>422.6367188</ele>
        <time>2010-09-15T11:35:37Z</time>
      </trkpt>
      <trkpt lat="48.10894" lon="7.65072">
        <ele>422.1560059</ele>
        <time>2010-09-15T11:35:46Z</time>
      </trkpt>
      <trkpt lat="48.10886" lon="7.65068">
        <ele>422.1560059</ele>
        <time>2010-09-15T11:35:53Z</time>
      </trkpt>
      <trkpt lat="48.10876" lon="7.6506">
        <ele>421.675415</ele>
        <time>2010-09-15T11:36:01Z</time>
      </trkpt>
      <trkpt lat="48.10869" lon="7.65056">
        <ele>421.1948242</ele>
        <time>2010-09-15T11:36:07Z</time>
      </trkpt>
      <trkpt lat="48.1086" lon="7.65051">
        <ele>422.1560059</ele>
        <time>2010-09-15T11:36:17Z</time>
      </trkpt>
      <trkpt lat="48.10854" lon="7.65046">
        <ele>422.1560059</ele>
        <time>2010-09-15T11:36:26Z</time>
      </trkpt>
      <trkpt lat="48.1085" lon="7.65045">
        <ele>422.1560059</ele>
        <time>2010-09-15T11:36:31Z</time>
      </trkpt>
      <trkpt lat="48.10834" lon="7.6504">
        <ele>421.675415</ele>
        <time>2010-09-15T11:36:42Z</time>
      </trkpt>
      <trkpt lat="48.10824" lon="7.65037">
        <ele>422.1560059</ele>
        <time>2010-09-15T11:36:51Z</time>
      </trkpt>
      <trkpt lat="48.10814" lon="7.65032">
        <ele>421.1948242</ele>
        <time>2010-09-15T11:37:00Z</time>
      </trkpt>
      <trkpt lat="48.10807" lon="7.6503">
        <ele>420.7141113</ele>
        <time>2010-09-15T11:37:07Z</time>
      </trkpt>
      <trkpt lat="48.10798" lon="7.65025">
        <ele>420.7141113</ele>
        <time>2010-09-15T11:37:14Z</time>
      </trkpt>
      <trkpt lat="48.10791" lon="7.65019">
        <ele>420.7141113</ele>
        <time>2010-09-15T11:37:20Z</time>
      </trkpt>
      <trkpt lat="48.10787" lon="7.65016">
        <ele>420.7141113</ele>
        <time>2010-09-15T11:37:23Z</time>
      </trkpt>
      <trkpt lat="48.10777" lon="7.65005">
        <ele>419.7528076</ele>
        <time>2010-09-15T11:37:33Z</time>
      </trkpt>
      <trkpt lat="48.10774" lon="7.65001">
        <ele>419.7528076</ele>
        <time>2010-09-15T11:37:38Z</time>
      </trkpt>
      <trkpt lat="48.10764" lon="7.64986">
        <ele>418.7915039</ele>
        <time>2010-09-15T11:38:07Z</time>
      </trkpt>
      <trkpt lat="48.10762" lon="7.64981">
        <ele>417.8302002</ele>
        <time>2010-09-15T11:37:55Z</time>
      </trkpt>
      <trkpt lat="48.10759" lon="7.64975">
        <ele>417.3496094</ele>
        <time>2010-09-15T11:38:00Z</time>
      </trkpt>
      <trkpt lat="48.10752" lon="7.64962">
        <ele>416.3881836</ele>
        <time>2010-09-15T11:38:09Z</time>
      </trkpt>
      <trkpt lat="48.1075" lon="7.64959">
        <ele>415.9074707</ele>
        <time>2010-09-15T11:38:12Z</time>
      </trkpt>
      <trkpt lat="48.10745" lon="7.64955">
        <ele>415.9074707</ele>
        <time>2010-09-15T11:38:17Z</time>
      </trkpt>
      <trkpt lat="48.10734" lon="7.64941">
        <ele>416.3881836</ele>
        <time>2010-09-15T11:38:29Z</time>
      </trkpt>
      <trkpt lat="48.10725" lon="7.64931">
        <ele>414.946167</ele>
        <time>2010-09-15T11:38:39Z</time>
      </trkpt>
      <trkpt lat="48.1072" lon="7.6492">
        <ele>415.4268799</ele>
        <time>2010-09-15T11:38:48Z</time>
      </trkpt>
      <trkpt lat="48.10717" lon="7.64913">
        <ele>414.946167</ele>
        <time>2010-09-15T11:38:55Z</time>
      </trkpt>
      <trkpt lat="48.10707" lon="7.64905">
        <ele>415.4268799</ele>
        <time>2010-09-15T11:39:05Z</time>
      </trkpt>
      <trkpt lat="48.10701" lon="7.64899">
        <ele>414.4654541</ele>
        <time>2010-09-15T11:39:12Z</time>
      </trkpt>
      <trkpt lat="48.10694" lon="7.6489">
        <ele>413.9848633</ele>
        <time>2010-09-15T11:39:22Z</time>
      </trkpt>
      <trkpt lat="48.10687" lon="7.64877">
        <ele>414.4654541</ele>
        <time>2010-09-15T11:39:32Z</time>
      </trkpt>
      <trkpt lat="48.10681" lon="7.64862">
        <ele>415.9074707</ele>
        <time>2010-09-15T11:39:42Z</time>
      </trkpt>
      <trkpt lat="48.10676" lon="7.64852">
        <ele>418.7915039</ele>
        <time>2010-09-15T11:39:52Z</time>
      </trkpt>
      <trkpt lat="48.10669" lon="7.6484">
        <ele>419.7528076</ele>
        <time>2010-09-15T11:40:03Z</time>
      </trkpt>
      <trkpt lat="48.10663" lon="7.6483">
        <ele>421.675415</ele>
        <time>2010-09-15T11:40:13Z</time>
      </trkpt>
      <trkpt lat="48.10658" lon="7.64819">
        <ele>422.1560059</ele>
        <time>2010-09-15T11:40:22Z</time>
      </trkpt>
      <trkpt lat="48.10658" lon="7.64803">
        <ele>423.1174316</ele>
        <time>2010-09-15T11:40:29Z</time>
      </trkpt>
      <trkpt lat="48.10654" lon="7.64792">
        <ele>425.0401611</ele>
        <time>2010-09-15T11:40:36Z</time>
      </trkpt>
      <trkpt lat="48.10649" lon="7.64782">
        <ele>426.0013428</ele>
        <time>2010-09-15T11:40:45Z</time>
      </trkpt>
      <trkpt lat="48.1064" lon="7.64768">
        <ele>426.0013428</ele>
        <time>2010-09-15T11:40:58Z</time>
      </trkpt>
      <trkpt lat="48.10631" lon="7.64765">
        <ele>426.9627686</ele>
        <time>2010-09-15T11:41:09Z</time>
      </trkpt>
      <trkpt lat="48.10625" lon="7.64766">
        <ele>427.4433594</ele>
        <time>2010-09-15T11:41:18Z</time>
      </trkpt>
      <trkpt lat="48.10618" lon="7.64772">
        <ele>427.4433594</ele>
        <time>2010-09-15T11:41:28Z</time>
      </trkpt>
      <trkpt lat="48.10601" lon="7.64777">
        <ele>428.4046631</ele>
        <time>2010-09-15T11:41:41Z</time>
      </trkpt>
      <trkpt lat="48.10589" lon="7.64779">
        <ele>428.885376</ele>
        <time>2010-09-15T11:41:51Z</time>
      </trkpt>
      <trkpt lat="48.10577" lon="7.64776">
        <ele>428.885376</ele>
        <time>2010-09-15T11:42:01Z</time>
      </trkpt>
      <trkpt lat="48.10569" lon="7.64769">
        <ele>428.4046631</ele>
        <time>2010-09-15T11:43:01Z</time>
      </trkpt>
      <trkpt lat="48.10568" lon="7.64768">
        <ele>427.9239502</ele>
        <time>2010-09-15T11:43:02Z</time>
      </trkpt>
      <trkpt lat="48.10561" lon="7.64748">
        <ele>427.9239502</ele>
        <time>2010-09-15T11:43:16Z</time>
      </trkpt>
      <trkpt lat="48.10554" lon="7.6474">
        <ele>428.4046631</ele>
        <time>2010-09-15T11:43:25Z</time>
      </trkpt>
      <trkpt lat="48.10548" lon="7.64724">
        <ele>428.4046631</ele>
        <time>2010-09-15T11:43:37Z</time>
      </trkpt>
      <trkpt lat="48.10539" lon="7.64715">
        <ele>429.3659668</ele>
        <time>2010-09-15T11:43:48Z</time>
      </trkpt>
      <trkpt lat="48.10528" lon="7.6471">
        <ele>429.8465576</ele>
        <time>2010-09-15T11:44:10Z</time>
      </trkpt>
      <trkpt lat="48.10518" lon="7.64706">
        <ele>430.8079834</ele>
        <time>2010-09-15T11:44:20Z</time>
      </trkpt>
      <trkpt lat="48.10502" lon="7.64702">
        <ele>430.8079834</ele>
        <time>2010-09-15T11:44:36Z</time>
      </trkpt>
      <trkpt lat="48.10489" lon="7.64701">
        <ele>432.25</ele>
        <time>2010-09-15T11:44:48Z</time>
      </trkpt>
      <trkpt lat="48.10474" lon="7.64695">
        <ele>431.769165</ele>
        <time>2010-09-15T11:45:54Z</time>
      </trkpt>
      <trkpt lat="48.10444" lon="7.64686">
        <ele>427.4433594</ele>
        <time>2010-09-15T11:47:58Z</time>
      </trkpt>
      <trkpt lat="48.10436" lon="7.64682">
        <ele>426.0013428</ele>
        <time>2010-09-15T11:48:08Z</time>
      </trkpt>
      <trkpt lat="48.10429" lon="7.64675">
        <ele>426.0013428</ele>
        <time>2010-09-15T11:48:17Z</time>
      </trkpt>
      <trkpt lat="48.10424" lon="7.64669">
        <ele>425.520752</ele>
        <time>2010-09-15T11:48:25Z</time>
      </trkpt>
      <trkpt lat="48.10416" lon="7.64663">
        <ele>425.0401611</ele>
        <time>2010-09-15T11:48:34Z</time>
      </trkpt>
      <trkpt lat="48.10413" lon="7.64659">
        <ele>425.0401611</ele>
        <time>2010-09-15T11:48:38Z</time>
      </trkpt>
      <trkpt lat="48.1041" lon="7.64655">
        <ele>425.0401611</ele>
        <time>2010-09-15T11:48:42Z</time>
      </trkpt>
      <trkpt lat="48.10402" lon="7.64644">
        <ele>424.5594482</ele>
        <time>2010-09-15T11:48:52Z</time>
      </trkpt>
      <trkpt lat="48.10393" lon="7.64629">
        <ele>423.5980225</ele>
        <time>2010-09-15T11:49:03Z</time>
      </trkpt>
      <trkpt lat="48.10393" lon="7.6462">
        <ele>423.5980225</ele>
        <time>2010-09-15T11:49:15Z</time>
      </trkpt>
      <trkpt lat="48.10392" lon="7.64619">
        <ele>423.5980225</ele>
        <time>2010-09-15T11:49:22Z</time>
      </trkpt>
      <trkpt lat="48.10391" lon="7.64618">
        <ele>423.5980225</ele>
        <time>2010-09-15T11:49:24Z</time>
      </trkpt>
      <trkpt lat="48.10386" lon="7.64611">
        <ele>424.0787354</ele>
        <time>2010-09-15T11:49:30Z</time>
      </trkpt>
      <trkpt lat="48.10377" lon="7.64599">
        <ele>423.5980225</ele>
        <time>2010-09-15T11:49:40Z</time>
      </trkpt>
      <trkpt lat="48.10372" lon="7.64588">
        <ele>424.0787354</ele>
        <time>2010-09-15T11:49:48Z</time>
      </trkpt>
      <trkpt lat="48.10367" lon="7.64574">
        <ele>424.0787354</ele>
        <time>2010-09-15T11:49:57Z</time>
      </trkpt>
      <trkpt lat="48.10366" lon="7.64567">
        <ele>423.1174316</ele>
        <time>2010-09-15T11:50:01Z</time>
      </trkpt>
      <trkpt lat="48.10364" lon="7.64547">
        <ele>422.6367188</ele>
        <time>2010-09-15T11:50:10Z</time>
      </trkpt>
      <trkpt lat="48.10361" lon="7.64526">
        <ele>420.7141113</ele>
        <time>2010-09-15T11:50:20Z</time>
      </trkpt>
      <trkpt lat="48.10354" lon="7.64511">
        <ele>420.7141113</ele>
        <time>2010-09-15T11:50:30Z</time>
      </trkpt>
      <trkpt lat="48.10347" lon="7.64493">
        <ele>419.7528076</ele>
        <time>2010-09-15T11:51:42Z</time>
      </trkpt>
      <trkpt lat="48.10342" lon="7.64481">
        <ele>419.7528076</ele>
        <time>2010-09-15T11:51:51Z</time>
      </trkpt>
      <trkpt lat="48.10335" lon="7.64469">
        <ele>419.2722168</ele>
        <time>2010-09-15T11:52:01Z</time>
      </trkpt>
      <trkpt lat="48.10328" lon="7.64457">
        <ele>419.7528076</ele>
        <time>2010-09-15T11:52:10Z</time>
      </trkpt>
      <trkpt lat="48.10321" lon="7.64447">
        <ele>419.2722168</ele>
        <time>2010-09-15T11:52:19Z</time>
      </trkpt>
      <trkpt lat="48.10317" lon="7.64436">
        <ele>418.310791</ele>
        <time>2010-09-15T11:52:28Z</time>
      </trkpt>
      <trkpt lat="48.10313" lon="7.64423">
        <ele>418.310791</ele>
        <time>2010-09-15T11:52:37Z</time>
      </trkpt>
      <trkpt lat="48.10305" lon="7.64407">
        <ele>418.310791</ele>
        <time>2010-09-15T11:52:50Z</time>
      </trkpt>
      <trkpt lat="48.10301" lon="7.64395">
        <ele>417.8302002</ele>
        <time>2010-09-15T11:52:59Z</time>
      </trkpt>
      <trkpt lat="48.10288" lon="7.64366">
        <ele>419.2722168</ele>
        <time>2010-09-15T11:53:27Z</time>
      </trkpt>
      <trkpt lat="48.10273" lon="7.64332">
        <ele>423.1174316</ele>
        <time>2010-09-15T11:56:30Z</time>
      </trkpt>
      <trkpt lat="48.10271" lon="7.64324">
        <ele>424.5594482</ele>
        <time>2010-09-15T11:56:37Z</time>
      </trkpt>
      <trkpt lat="48.10264" lon="7.64314">
        <ele>424.5594482</ele>
        <time>2010-09-15T11:56:47Z</time>
      </trkpt>
      <trkpt lat="48.10261" lon="7.64307">
        <ele>425.0401611</ele>
        <time>2010-09-15T11:56:54Z</time>
      </trkpt>
      <trkpt lat="48.10257" lon="7.643">
        <ele>423.5980225</ele>
        <time>2010-09-15T11:57:02Z</time>
      </trkpt>
      <trkpt lat="48.10247" lon="7.6429">
        <ele>424.0787354</ele>
        <time>2010-09-15T11:57:11Z</time>
      </trkpt>
      <trkpt lat="48.10238" lon="7.6428">
        <ele>424.0787354</ele>
        <time>2010-09-15T11:57:20Z</time>
      </trkpt>
      <trkpt lat="48.10232" lon="7.64269">
        <ele>423.5980225</ele>
        <time>2010-09-15T11:57:27Z</time>
      </trkpt>
      <trkpt lat="48.10224" lon="7.64255">
        <ele>423.5980225</ele>
        <time>2010-09-15T11:57:36Z</time>
      </trkpt>
      <trkpt lat="48.10219" lon="7.64242">
        <ele>422.1560059</ele>
        <time>2010-09-15T11:57:46Z</time>
      </trkpt>
      <trkpt lat="48.10212" lon="7.64231">
        <ele>423.5980225</ele>
        <time>2010-09-15T11:57:53Z</time>
      </trkpt>
      <trkpt lat="48.10206" lon="7.64223">
        <ele>425.0401611</ele>
        <time>2010-09-15T11:58:00Z</time>
      </trkpt>
      <trkpt lat="48.10197" lon="7.64212">
        <ele>424.5594482</ele>
        <time>2010-09-15T11:58:08Z</time>
      </trkpt>
      <trkpt lat="48.10188" lon="7.642">
        <ele>425.520752</ele>
        <time>2010-09-15T11:58:17Z</time>
      </trkpt>
      <trkpt lat="48.1018" lon="7.6419">
        <ele>424.0787354</ele>
        <time>2010-09-15T11:58:26Z</time>
      </trkpt>
      <trkpt lat="48.10173" lon="7.6418">
        <ele>423.5980225</ele>
        <time>2010-09-15T11:58:34Z</time>
      </trkpt>
      <trkpt lat="48.10165" lon="7.6417">
        <ele>421.1948242</ele>
        <time>2010-09-15T11:58:44Z</time>
      </trkpt>
      <trkpt lat="48.10156" lon="7.6416">
        <ele>421.675415</ele>
        <time>2010-09-15T11:58:53Z</time>
      </trkpt>
      <trkpt lat="48.10148" lon="7.64152">
        <ele>419.7528076</ele>
        <time>2010-09-15T11:59:02Z</time>
      </trkpt>
      <trkpt lat="48.10136" lon="7.64144">
        <ele>417.8302002</ele>
        <time>2010-09-15T11:59:12Z</time>
      </trkpt>
      <trkpt lat="48.10125" lon="7.64138">
        <ele>417.3496094</ele>
        <time>2010-09-15T11:59:22Z</time>
      </trkpt>
      <trkpt lat="48.10117" lon="7.64127">
        <ele>416.3881836</ele>
        <time>2010-09-15T11:59:33Z</time>
      </trkpt>
      <trkpt lat="48.10111" lon="7.64117">
        <ele>413.5042725</ele>
        <time>2010-09-15T11:59:43Z</time>
      </trkpt>
      <trkpt lat="48.10105" lon="7.64111">
        <ele>412.5428467</ele>
        <time>2010-09-15T11:59:52Z</time>
      </trkpt>
      <trkpt lat="48.10098" lon="7.64104">
        <ele>411.581665</ele>
        <time>2010-09-15T12:00:01Z</time>
      </trkpt>
      <trkpt lat="48.1009" lon="7.64097">
        <ele>410.1396484</ele>
        <time>2010-09-15T12:00:10Z</time>
      </trkpt>
      <trkpt lat="48.10078" lon="7.64086">
        <ele>407.2556152</ele>
        <time>2010-09-15T12:00:25Z</time>
      </trkpt>
      <trkpt lat="48.10069" lon="7.64081">
        <ele>404.3717041</ele>
        <time>2010-09-15T12:00:36Z</time>
      </trkpt>
      <trkpt lat="48.1006" lon="7.64076">
        <ele>401.487793</ele>
        <time>2010-09-15T12:00:48Z</time>
      </trkpt>
      <trkpt lat="48.10051" lon="7.64071">
        <ele>401.0070801</ele>
        <time>2010-09-15T12:00:59Z</time>
      </trkpt>
      <trkpt lat="48.10041" lon="7.64067">
        <ele>399.5650635</ele>
        <time>2010-09-15T12:01:07Z</time>
      </trkpt>
      <trkpt lat="48.1003" lon="7.64061">
        <ele>397.6424561</ele>
        <time>2010-09-15T12:01:17Z</time>
      </trkpt>
      <trkpt lat="48.1002" lon="7.64056">
        <ele>395.7198486</ele>
        <time>2010-09-15T12:01:27Z</time>
      </trkpt>
      <trkpt lat="48.10007" lon="7.64051">
        <ele>395.2391357</ele>
        <time>2010-09-15T12:01:38Z</time>
      </trkpt>
      <trkpt lat="48.09995" lon="7.64048">
        <ele>392.8359375</ele>
        <time>2010-09-15T12:01:49Z</time>
      </trkpt>
      <trkpt lat="48.09991" lon="7.64047">
        <ele>392.8359375</ele>
        <time>2010-09-15T12:01:58Z</time>
      </trkpt>
      <trkpt lat="48.09987" lon="7.64048">
        <ele>392.8359375</ele>
        <time>2010-09-15T12:02:05Z</time>
      </trkpt>
      <trkpt lat="48.09984" lon="7.64045">
        <ele>392.3553467</ele>
        <time>2010-09-15T12:02:09Z</time>
      </trkpt>
      <trkpt lat="48.09972" lon="7.64043">
        <ele>392.3553467</ele>
        <time>2010-09-15T12:02:19Z</time>
      </trkpt>
      <trkpt lat="48.09956" lon="7.64039">
        <ele>391.8745117</ele>
        <time>2010-09-15T12:02:32Z</time>
      </trkpt>
      <trkpt lat="48.09944" lon="7.64038">
        <ele>391.8745117</ele>
        <time>2010-09-15T12:02:43Z</time>
      </trkpt>
      <trkpt lat="48.09939" lon="7.64037">
        <ele>390.913208</ele>
        <time>2010-09-15T12:02:49Z</time>
      </trkpt>
      <trkpt lat="48.09923" lon="7.64033">
        <ele>390.913208</ele>
        <time>2010-09-15T12:03:02Z</time>
      </trkpt>
      <trkpt lat="48.09913" lon="7.6403">
        <ele>390.913208</ele>
        <time>2010-09-15T12:03:11Z</time>
      </trkpt>
      <trkpt lat="48.09899" lon="7.64023">
        <ele>390.913208</ele>
        <time>2010-09-15T12:03:23Z</time>
      </trkpt>
      <trkpt lat="48.09886" lon="7.64019">
        <ele>392.3553467</ele>
        <time>2010-09-15T12:03:36Z</time>
      </trkpt>
      <trkpt lat="48.09883" lon="7.64018">
        <ele>392.3553467</ele>
        <time>2010-09-15T12:03:44Z</time>
      </trkpt>
      <trkpt lat="48.09876" lon="7.64016">
        <ele>393.3165283</ele>
        <time>2010-09-15T12:03:54Z</time>
      </trkpt>
      <trkpt lat="48.09871" lon="7.64014">
        <ele>392.8359375</ele>
        <time>2010-09-15T12:04:05Z</time>
      </trkpt>
      <trkpt lat="48.09862" lon="7.64012">
        <ele>391.8745117</ele>
        <time>2010-09-15T12:04:15Z</time>
      </trkpt>
      <trkpt lat="48.09858" lon="7.64011">
        <ele>391.8745117</ele>
        <time>2010-09-15T12:04:20Z</time>
      </trkpt>
      <trkpt lat="48.09853" lon="7.64012">
        <ele>390.913208</ele>
        <time>2010-09-15T12:04:26Z</time>
      </trkpt>
      <trkpt lat="48.09845" lon="7.64008">
        <ele>390.913208</ele>
        <time>2010-09-15T12:04:35Z</time>
      </trkpt>
      <trkpt lat="48.0984" lon="7.64005">
        <ele>389.4711914</ele>
        <time>2010-09-15T12:04:42Z</time>
      </trkpt>
      <trkpt lat="48.09834" lon="7.64">
        <ele>389.4711914</ele>
        <time>2010-09-15T12:04:49Z</time>
      </trkpt>
      <trkpt lat="48.09827" lon="7.63993">
        <ele>389.4711914</ele>
        <time>2010-09-15T12:04:57Z</time>
      </trkpt>
      <trkpt lat="48.09824" lon="7.6399">
        <ele>388.5100098</ele>
        <time>2010-09-15T12:05:06Z</time>
      </trkpt>
      <trkpt lat="48.09815" lon="7.63985">
        <ele>387.0679932</ele>
        <time>2010-09-15T12:05:16Z</time>
      </trkpt>
      <trkpt lat="48.09801" lon="7.6397">
        <ele>386.5874023</ele>
        <time>2010-09-15T12:05:29Z</time>
      </trkpt>
      <trkpt lat="48.09788" lon="7.63958">
        <ele>386.5874023</ele>
        <time>2010-09-15T12:05:42Z</time>
      </trkpt>
      <trkpt lat="48.09774" lon="7.63945">
        <ele>386.5874023</ele>
        <time>2010-09-15T12:05:56Z</time>
      </trkpt>
      <trkpt lat="48.09766" lon="7.63944">
        <ele>386.5874023</ele>
        <time>2010-09-15T12:06:06Z</time>
      </trkpt>
      <trkpt lat="48.09762" lon="7.6395">
        <ele>384.6647949</ele>
        <time>2010-09-15T12:06:16Z</time>
      </trkpt>
      <trkpt lat="48.09758" lon="7.63948">
        <ele>383.7032471</ele>
        <time>2010-09-15T12:06:23Z</time>
      </trkpt>
      <trkpt lat="48.09753" lon="7.63941">
        <ele>384.184082</ele>
        <time>2010-09-15T12:06:30Z</time>
      </trkpt>
      <trkpt lat="48.09746" lon="7.63927">
        <ele>384.6647949</ele>
        <time>2010-09-15T12:06:42Z</time>
      </trkpt>
      <trkpt lat="48.09741" lon="7.6392">
        <ele>384.184082</ele>
        <time>2010-09-15T12:09:18Z</time>
      </trkpt>
      <trkpt lat="48.09733" lon="7.63917">
        <ele>384.184082</ele>
        <time>2010-09-15T12:09:29Z</time>
      </trkpt>
      <trkpt lat="48.09733" lon="7.63917">
        <ele>384.184082</ele>
        <time>2010-09-15T12:09:55Z</time>
      </trkpt>
      <trkpt lat="48.09732" lon="7.63919">
        <ele>383.7032471</ele>
        <time>2010-09-15T12:12:20Z</time>
      </trkpt>
      <trkpt lat="48.09739" lon="7.6394">
        <ele>382.7420654</ele>
        <time>2010-09-15T12:12:55Z</time>
      </trkpt>
      <trkpt lat="48.09748" lon="7.63956">
        <ele>382.7420654</ele>
        <time>2010-09-15T12:13:08Z</time>
      </trkpt>
      <trkpt lat="48.09752" lon="7.63964">
        <ele>382.7420654</ele>
        <time>2010-09-15T12:13:17Z</time>
      </trkpt>
      <trkpt lat="48.09753" lon="7.63963">
        <ele>383.2226563</ele>
        <time>2010-09-15T12:13:22Z</time>
      </trkpt>
      <trkpt lat="48.0976" lon="7.63947">
        <ele>382.7420654</ele>
        <time>2010-09-15T12:13:33Z</time>
      </trkpt>
      <trkpt lat="48.09762" lon="7.63942">
        <ele>384.6647949</ele>
        <time>2010-09-15T12:13:39Z</time>
      </trkpt>
      <trkpt lat="48.09767" lon="7.63939">
        <ele>384.6647949</ele>
        <time>2010-09-15T12:13:46Z</time>
      </trkpt>
      <trkpt lat="48.09778" lon="7.63948">
        <ele>385.1453857</ele>
        <time>2010-09-15T12:13:58Z</time>
      </trkpt>
      <trkpt lat="48.0979" lon="7.63959">
        <ele>385.1453857</ele>
        <time>2010-09-15T12:14:11Z</time>
      </trkpt>
      <trkpt lat="48.09804" lon="7.63972">
        <ele>386.1066895</ele>
        <time>2010-09-15T12:14:25Z</time>
      </trkpt>
      <trkpt lat="48.09816" lon="7.63982">
        <ele>386.1066895</ele>
        <time>2010-09-15T12:14:39Z</time>
      </trkpt>
      <trkpt lat="48.09818" lon="7.63984">
        <ele>388.0292969</ele>
        <time>2010-09-15T12:14:46Z</time>
      </trkpt>
      <trkpt lat="48.09823" lon="7.6399">
        <ele>389.4711914</ele>
        <time>2010-09-15T12:14:56Z</time>
      </trkpt>
      <trkpt lat="48.0983" lon="7.63995">
        <ele>389.9519043</ele>
        <time>2010-09-15T12:15:03Z</time>
      </trkpt>
      <trkpt lat="48.09838" lon="7.64002">
        <ele>390.4326172</ele>
        <time>2010-09-15T12:15:12Z</time>
      </trkpt>
      <trkpt lat="48.09842" lon="7.64006">
        <ele>390.4326172</ele>
        <time>2010-09-15T12:15:20Z</time>
      </trkpt>
      <trkpt lat="48.09847" lon="7.6401">
        <ele>388.9906006</ele>
        <time>2010-09-15T12:15:28Z</time>
      </trkpt>
      <trkpt lat="48.09846" lon="7.64017">
        <ele>388.9906006</ele>
        <time>2010-09-15T12:15:34Z</time>
      </trkpt>
      <trkpt lat="48.0984" lon="7.6402">
        <ele>387.548584</ele>
        <time>2010-09-15T12:15:41Z</time>
      </trkpt>
      <trkpt lat="48.09833" lon="7.64026">
        <ele>387.0679932</ele>
        <time>2010-09-15T12:15:49Z</time>
      </trkpt>
      <trkpt lat="48.09827" lon="7.64037">
        <ele>385.1453857</ele>
        <time>2010-09-15T12:15:59Z</time>
      </trkpt>
      <trkpt lat="48.09833" lon="7.64054">
        <ele>383.7032471</ele>
        <time>2010-09-15T12:16:12Z</time>
      </trkpt>
      <trkpt lat="48.0984" lon="7.6407">
        <ele>381.7806396</ele>
        <time>2010-09-15T12:16:25Z</time>
      </trkpt>
      <trkpt lat="48.09846" lon="7.64084">
        <ele>380.3387451</ele>
        <time>2010-09-15T12:16:36Z</time>
      </trkpt>
      <trkpt lat="48.09857" lon="7.641">
        <ele>378.4161377</ele>
        <time>2010-09-15T12:16:52Z</time>
      </trkpt>
      <trkpt lat="48.09865" lon="7.64107">
        <ele>376.0128174</ele>
        <time>2010-09-15T12:17:02Z</time>
      </trkpt>
      <trkpt lat="48.09874" lon="7.6411">
        <ele>374.5708008</ele>
        <time>2010-09-15T12:17:12Z</time>
      </trkpt>
      <trkpt lat="48.09885" lon="7.64112">
        <ele>372.6481934</ele>
        <time>2010-09-15T12:17:24Z</time>
      </trkpt>
      <trkpt lat="48.09897" lon="7.64113">
        <ele>369.7642822</ele>
        <time>2010-09-15T12:17:36Z</time>
      </trkpt>
      <trkpt lat="48.09898" lon="7.64113">
        <ele>369.2836914</ele>
        <time>2010-09-15T12:17:37Z</time>
      </trkpt>
      <trkpt lat="48.09907" lon="7.64114">
        <ele>367.8415527</ele>
        <time>2010-09-15T12:17:47Z</time>
      </trkpt>
      <trkpt lat="48.09917" lon="7.64114">
        <ele>365.9189453</ele>
        <time>2010-09-15T12:17:58Z</time>
      </trkpt>
      <trkpt lat="48.09931" lon="7.64117">
        <ele>364.9576416</ele>
        <time>2010-09-15T12:18:12Z</time>
      </trkpt>
      <trkpt lat="48.0994" lon="7.64121">
        <ele>363.5157471</ele>
        <time>2010-09-15T12:18:23Z</time>
      </trkpt>
      <trkpt lat="48.09946" lon="7.64125">
        <ele>362.5543213</ele>
        <time>2010-09-15T12:18:32Z</time>
      </trkpt>
      <trkpt lat="48.09951" lon="7.64125">
        <ele>362.0737305</ele>
        <time>2010-09-15T12:18:41Z</time>
      </trkpt>
      <trkpt lat="48.09965" lon="7.64131">
        <ele>359.6704102</ele>
        <time>2010-09-15T12:18:54Z</time>
      </trkpt>
      <trkpt lat="48.09975" lon="7.64136">
        <ele>358.7089844</ele>
        <time>2010-09-15T12:19:05Z</time>
      </trkpt>
      <trkpt lat="48.09975" lon="7.64144">
        <ele>357.7478027</ele>
        <time>2010-09-15T12:19:14Z</time>
      </trkpt>
      <trkpt lat="48.09973" lon="7.64146">
        <ele>357.2670898</ele>
        <time>2010-09-15T12:19:23Z</time>
      </trkpt>
      <trkpt lat="48.0997" lon="7.64144">
        <ele>356.786377</ele>
        <time>2010-09-15T12:19:32Z</time>
      </trkpt>
      <trkpt lat="48.09969" lon="7.64144">
        <ele>356.786377</ele>
        <time>2010-09-15T12:19:42Z</time>
      </trkpt>
      <trkpt lat="48.09968" lon="7.64145">
        <ele>357.2670898</ele>
        <time>2010-09-15T12:19:48Z</time>
      </trkpt>
      <trkpt lat="48.09963" lon="7.64145">
        <ele>356.3057861</ele>
        <time>2010-09-15T12:19:54Z</time>
      </trkpt>
      <trkpt lat="48.09952" lon="7.64147">
        <ele>354.3831787</ele>
        <time>2010-09-15T12:20:06Z</time>
      </trkpt>
      <trkpt lat="48.09946" lon="7.64148">
        <ele>352.4605713</ele>
        <time>2010-09-15T12:20:12Z</time>
      </trkpt>
      <trkpt lat="48.09934" lon="7.64152">
        <ele>351.4991455</ele>
        <time>2010-09-15T12:20:24Z</time>
      </trkpt>
      <trkpt lat="48.09921" lon="7.6416">
        <ele>349.0958252</ele>
        <time>2010-09-15T12:20:38Z</time>
      </trkpt>
      <trkpt lat="48.0992" lon="7.64165">
        <ele>348.6152344</ele>
        <time>2010-09-15T12:20:42Z</time>
      </trkpt>
      <trkpt lat="48.09922" lon="7.64174">
        <ele>348.1346436</ele>
        <time>2010-09-15T12:20:50Z</time>
      </trkpt>
      <trkpt lat="48.09928" lon="7.6419">
        <ele>344.2894287</ele>
        <time>2010-09-15T12:21:02Z</time>
      </trkpt>
      <trkpt lat="48.09936" lon="7.64206">
        <ele>341.8859863</ele>
        <time>2010-09-15T12:21:14Z</time>
      </trkpt>
      <trkpt lat="48.09942" lon="7.64221">
        <ele>340.9246826</ele>
        <time>2010-09-15T12:21:25Z</time>
      </trkpt>
      <trkpt lat="48.09947" lon="7.64233">
        <ele>340.4440918</ele>
        <time>2010-09-15T12:21:34Z</time>
      </trkpt>
      <trkpt lat="48.09951" lon="7.64251">
        <ele>339.9633789</ele>
        <time>2010-09-15T12:21:46Z</time>
      </trkpt>
      <trkpt lat="48.09946" lon="7.64268">
        <ele>339.482666</ele>
        <time>2010-09-15T12:21:57Z</time>
      </trkpt>
      <trkpt lat="48.09938" lon="7.64279">
        <ele>339.482666</ele>
        <time>2010-09-15T12:22:07Z</time>
      </trkpt>
      <trkpt lat="48.0993" lon="7.64288">
        <ele>339.0020752</ele>
        <time>2010-09-15T12:22:17Z</time>
      </trkpt>
      <trkpt lat="48.09921" lon="7.64298">
        <ele>336.598877</ele>
        <time>2010-09-15T12:22:28Z</time>
      </trkpt>
      <trkpt lat="48.09913" lon="7.64306">
        <ele>335.1567383</ele>
        <time>2010-09-15T12:22:38Z</time>
      </trkpt>
      <trkpt lat="48.09907" lon="7.64313">
        <ele>334.1954346</ele>
        <time>2010-09-15T12:22:46Z</time>
      </trkpt>
      <trkpt lat="48.09897" lon="7.64322">
        <ele>331.7921143</ele>
        <time>2010-09-15T12:22:57Z</time>
      </trkpt>
      <trkpt lat="48.09889" lon="7.64329">
        <ele>330.3502197</ele>
        <time>2010-09-15T12:23:07Z</time>
      </trkpt>
      <trkpt lat="48.09879" lon="7.64336">
        <ele>328.4276123</ele>
        <time>2010-09-15T12:23:17Z</time>
      </trkpt>
      <trkpt lat="48.0987" lon="7.64345">
        <ele>327.9467773</ele>
        <time>2010-09-15T12:23:27Z</time>
      </trkpt>
      <trkpt lat="48.09864" lon="7.6435">
        <ele>328.9083252</ele>
        <time>2010-09-15T12:23:35Z</time>
      </trkpt>
      <trkpt lat="48.09854" lon="7.64362">
        <ele>330.3502197</ele>
        <time>2010-09-15T12:23:47Z</time>
      </trkpt>
      <trkpt lat="48.09844" lon="7.64374">
        <ele>333.7147217</ele>
        <time>2010-09-15T12:24:00Z</time>
      </trkpt>
      <trkpt lat="48.09836" lon="7.64386">
        <ele>333.7147217</ele>
        <time>2010-09-15T12:24:11Z</time>
      </trkpt>
      <trkpt lat="48.09828" lon="7.64399">
        <ele>333.7147217</ele>
        <time>2010-09-15T12:24:22Z</time>
      </trkpt>
      <trkpt lat="48.09816" lon="7.64409">
        <ele>335.1567383</ele>
        <time>2010-09-15T12:24:37Z</time>
      </trkpt>
      <trkpt lat="48.09809" lon="7.64414">
        <ele>337.0794678</ele>
        <time>2010-09-15T12:24:45Z</time>
      </trkpt>
      <trkpt lat="48.098" lon="7.64421">
        <ele>338.0407715</ele>
        <time>2010-09-15T12:24:56Z</time>
      </trkpt>
      <trkpt lat="48.09793" lon="7.64426">
        <ele>338.5214844</ele>
        <time>2010-09-15T12:25:05Z</time>
      </trkpt>
      <trkpt lat="48.09787" lon="7.6443">
        <ele>339.9633789</ele>
        <time>2010-09-15T12:25:13Z</time>
      </trkpt>
      <trkpt lat="48.09779" lon="7.64436">
        <ele>341.4052734</ele>
        <time>2010-09-15T12:25:23Z</time>
      </trkpt>
      <trkpt lat="48.09771" lon="7.64441">
        <ele>344.2894287</ele>
        <time>2010-09-15T12:25:34Z</time>
      </trkpt>
      <trkpt lat="48.09765" lon="7.6445">
        <ele>344.2894287</ele>
        <time>2010-09-15T12:25:44Z</time>
      </trkpt>
      <trkpt lat="48.09766" lon="7.64457">
        <ele>344.7700195</ele>
        <time>2010-09-15T12:25:50Z</time>
      </trkpt>
      <trkpt lat="48.09773" lon="7.64474">
        <ele>345.2506104</ele>
        <time>2010-09-15T12:26:04Z</time>
      </trkpt>
      <trkpt lat="48.09783" lon="7.64493">
        <ele>345.2506104</ele>
        <time>2010-09-15T12:26:20Z</time>
      </trkpt>
      <trkpt lat="48.09793" lon="7.64512">
        <ele>346.2120361</ele>
        <time>2010-09-15T12:26:35Z</time>
      </trkpt>
      <trkpt lat="48.09801" lon="7.64527">
        <ele>347.1732178</ele>
        <time>2010-09-15T12:26:47Z</time>
      </trkpt>
      <trkpt lat="48.0981" lon="7.64546">
        <ele>347.1732178</ele>
        <time>2010-09-15T12:27:01Z</time>
      </trkpt>
      <trkpt lat="48.09817" lon="7.64558">
        <ele>347.6539307</ele>
        <time>2010-09-15T12:27:11Z</time>
      </trkpt>
      <trkpt lat="48.09824" lon="7.64573">
        <ele>348.6152344</ele>
        <time>2010-09-15T12:27:22Z</time>
      </trkpt>
      <trkpt lat="48.09832" lon="7.64587">
        <ele>348.6152344</ele>
        <time>2010-09-15T12:27:34Z</time>
      </trkpt>
      <trkpt lat="48.0984" lon="7.64594">
        <ele>349.0958252</ele>
        <time>2010-09-15T12:27:42Z</time>
      </trkpt>
      <trkpt lat="48.09848" lon="7.64597">
        <ele>349.5765381</ele>
        <time>2010-09-15T12:27:52Z</time>
      </trkpt>
      <trkpt lat="48.0985" lon="7.64597">
        <ele>350.057251</ele>
        <time>2010-09-15T12:27:59Z</time>
      </trkpt>
      <trkpt lat="48.09857" lon="7.64597">
        <ele>349.5765381</ele>
        <time>2010-09-15T12:28:05Z</time>
      </trkpt>
      <trkpt lat="48.09871" lon="7.64593">
        <ele>350.5378418</ele>
        <time>2010-09-15T12:28:17Z</time>
      </trkpt>
      <trkpt lat="48.09881" lon="7.64583">
        <ele>350.5378418</ele>
        <time>2010-09-15T12:28:27Z</time>
      </trkpt>
      <trkpt lat="48.09888" lon="7.64571">
        <ele>350.5378418</ele>
        <time>2010-09-15T12:28:36Z</time>
      </trkpt>
      <trkpt lat="48.09897" lon="7.6456">
        <ele>350.5378418</ele>
        <time>2010-09-15T12:28:47Z</time>
      </trkpt>
      <trkpt lat="48.09909" lon="7.64546">
        <ele>350.5378418</ele>
        <time>2010-09-15T12:29:00Z</time>
      </trkpt>
      <trkpt lat="48.09918" lon="7.64533">
        <ele>351.0184326</ele>
        <time>2010-09-15T12:29:11Z</time>
      </trkpt>
      <trkpt lat="48.0993" lon="7.64518">
        <ele>350.5378418</ele>
        <time>2010-09-15T12:29:25Z</time>
      </trkpt>
      <trkpt lat="48.09939" lon="7.64505">
        <ele>350.057251</ele>
        <time>2010-09-15T12:29:36Z</time>
      </trkpt>
      <trkpt lat="48.09948" lon="7.64493">
        <ele>350.5378418</ele>
        <time>2010-09-15T12:29:47Z</time>
      </trkpt>
      <trkpt lat="48.09959" lon="7.6448">
        <ele>349.5765381</ele>
        <time>2010-09-15T12:30:00Z</time>
      </trkpt>
      <trkpt lat="48.0997" lon="7.64473">
        <ele>349.5765381</ele>
        <time>2010-09-15T12:30:12Z</time>
      </trkpt>
      <trkpt lat="48.09976" lon="7.64471">
        <ele>348.6152344</ele>
        <time>2010-09-15T12:30:19Z</time>
      </trkpt>
      <trkpt lat="48.09985" lon="7.64483">
        <ele>347.6539307</ele>
        <time>2010-09-15T12:30:37Z</time>
      </trkpt>
      <trkpt lat="48.09997" lon="7.64497">
        <ele>345.2506104</ele>
        <time>2010-09-15T12:30:51Z</time>
      </trkpt>
      <trkpt lat="48.1" lon="7.64515">
        <ele>344.7700195</ele>
        <time>2010-09-15T12:31:03Z</time>
      </trkpt>
      <trkpt lat="48.09996" lon="7.64537">
        <ele>341.4052734</ele>
        <time>2010-09-15T12:31:17Z</time>
      </trkpt>
      <trkpt lat="48.09992" lon="7.64552">
        <ele>340.9246826</ele>
        <time>2010-09-15T12:31:27Z</time>
      </trkpt>
      <trkpt lat="48.09988" lon="7.6457">
        <ele>338.0407715</ele>
        <time>2010-09-15T12:31:39Z</time>
      </trkpt>
      <trkpt lat="48.09985" lon="7.64592">
        <ele>336.598877</ele>
        <time>2010-09-15T12:31:53Z</time>
      </trkpt>
      <trkpt lat="48.09983" lon="7.64606">
        <ele>335.1567383</ele>
        <time>2010-09-15T12:32:02Z</time>
      </trkpt>
      <trkpt lat="48.0998" lon="7.64627">
        <ele>332.75354</ele>
        <time>2010-09-15T12:32:16Z</time>
      </trkpt>
      <trkpt lat="48.09979" lon="7.64649">
        <ele>331.7921143</ele>
        <time>2010-09-15T12:32:30Z</time>
      </trkpt>
      <trkpt lat="48.09977" lon="7.64672">
        <ele>328.9083252</ele>
        <time>2010-09-15T12:32:45Z</time>
      </trkpt>
      <trkpt lat="48.09976" lon="7.64691">
        <ele>328.4276123</ele>
        <time>2010-09-15T12:32:57Z</time>
      </trkpt>
      <trkpt lat="48.09974" lon="7.64712">
        <ele>326.5048828</ele>
        <time>2010-09-15T12:33:12Z</time>
      </trkpt>
      <trkpt lat="48.09974" lon="7.64731">
        <ele>324.5822754</ele>
        <time>2010-09-15T12:33:25Z</time>
      </trkpt>
      <trkpt lat="48.09972" lon="7.64751">
        <ele>323.1403809</ele>
        <time>2010-09-15T12:33:38Z</time>
      </trkpt>
      <trkpt lat="48.09971" lon="7.6477">
        <ele>321.2177734</ele>
        <time>2010-09-15T12:33:51Z</time>
      </trkpt>
      <trkpt lat="48.0997" lon="7.64788">
        <ele>319.7756348</ele>
        <time>2010-09-15T12:34:03Z</time>
      </trkpt>
      <trkpt lat="48.09968" lon="7.64804">
        <ele>317.8530273</ele>
        <time>2010-09-15T12:34:14Z</time>
      </trkpt>
      <trkpt lat="48.09968" lon="7.64806">
        <ele>317.8530273</ele>
        <time>2010-09-15T12:34:15Z</time>
      </trkpt>
      <trkpt lat="48.09968" lon="7.64819">
        <ele>316.4110107</ele>
        <time>2010-09-15T12:34:24Z</time>
      </trkpt>
      <trkpt lat="48.09966" lon="7.64833">
        <ele>314.9691162</ele>
        <time>2010-09-15T12:34:34Z</time>
      </trkpt>
      <trkpt lat="48.09963" lon="7.64848">
        <ele>313.5272217</ele>
        <time>2010-09-15T12:34:44Z</time>
      </trkpt>
      <trkpt lat="48.0996" lon="7.64867">
        <ele>313.5272217</ele>
        <time>2010-09-15T12:34:55Z</time>
      </trkpt>
      <trkpt lat="48.09955" lon="7.64888">
        <ele>312.5657959</ele>
        <time>2010-09-15T12:35:08Z</time>
      </trkpt>
      <trkpt lat="48.09952" lon="7.64907">
        <ele>312.5657959</ele>
        <time>2010-09-15T12:35:20Z</time>
      </trkpt>
      <trkpt lat="48.09949" lon="7.64928">
        <ele>312.0852051</ele>
        <time>2010-09-15T12:35:33Z</time>
      </trkpt>
      <trkpt lat="48.09949" lon="7.64933">
        <ele>311.1237793</ele>
        <time>2010-09-15T12:35:36Z</time>
      </trkpt>
      <trkpt lat="48.09952" lon="7.64944">
        <ele>310.6430664</ele>
        <time>2010-09-15T12:35:43Z</time>
      </trkpt>
      <trkpt lat="48.09961" lon="7.64957">
        <ele>309.2011719</ele>
        <time>2010-09-15T12:35:54Z</time>
      </trkpt>
      <trkpt lat="48.09974" lon="7.64968">
        <ele>307.7592773</ele>
        <time>2010-09-15T12:36:07Z</time>
      </trkpt>
      <trkpt lat="48.09984" lon="7.64974">
        <ele>306.3172607</ele>
        <time>2010-09-15T12:36:16Z</time>
      </trkpt>
      <trkpt lat="48.09999" lon="7.64983">
        <ele>303.9139404</ele>
        <time>2010-09-15T12:36:30Z</time>
      </trkpt>
      <trkpt lat="48.10008" lon="7.64993">
        <ele>303.4332275</ele>
        <time>2010-09-15T12:36:40Z</time>
      </trkpt>
      <trkpt lat="48.10017" lon="7.65005">
        <ele>302.9525146</ele>
        <time>2010-09-15T12:36:51Z</time>
      </trkpt>
      <trkpt lat="48.10017" lon="7.65024">
        <ele>303.4332275</ele>
        <time>2010-09-15T12:37:04Z</time>
      </trkpt>
      <trkpt lat="48.10014" lon="7.65042">
        <ele>304.8752441</ele>
        <time>2010-09-15T12:37:15Z</time>
      </trkpt>
      <trkpt lat="48.10011" lon="7.65057">
        <ele>305.8366699</ele>
        <time>2010-09-15T12:37:25Z</time>
      </trkpt>
      <trkpt lat="48.10007" lon="7.6507">
        <ele>305.8366699</ele>
        <time>2010-09-15T12:37:34Z</time>
      </trkpt>
      <trkpt lat="48.10001" lon="7.65084">
        <ele>306.7978516</ele>
        <time>2010-09-15T12:37:44Z</time>
      </trkpt>
      <trkpt lat="48.09992" lon="7.65095">
        <ele>308.2398682</ele>
        <time>2010-09-15T12:37:55Z</time>
      </trkpt>
      <trkpt lat="48.09982" lon="7.651">
        <ele>308.2398682</ele>
        <time>2010-09-15T12:38:04Z</time>
      </trkpt>
      <trkpt lat="48.09978" lon="7.65102">
        <ele>308.2398682</ele>
        <time>2010-09-15T12:38:08Z</time>
      </trkpt>
      <trkpt lat="48.09971" lon="7.65105">
        <ele>308.720459</ele>
        <time>2010-09-15T12:38:15Z</time>
      </trkpt>
      <trkpt lat="48.09965" lon="7.6511">
        <ele>308.720459</ele>
        <time>2010-09-15T12:38:23Z</time>
      </trkpt>
      <trkpt lat="48.09957" lon="7.65114">
        <ele>309.6818848</ele>
        <time>2010-09-15T12:38:31Z</time>
      </trkpt>
      <trkpt lat="48.09949" lon="7.65118">
        <ele>309.2011719</ele>
        <time>2010-09-15T12:38:39Z</time>
      </trkpt>
      <trkpt lat="48.09945" lon="7.6512">
        <ele>310.1624756</ele>
        <time>2010-09-15T12:38:45Z</time>
      </trkpt>
      <trkpt lat="48.09933" lon="7.65121">
        <ele>310.1624756</ele>
        <time>2010-09-15T12:38:54Z</time>
      </trkpt>
      <trkpt lat="48.09922" lon="7.65124">
        <ele>310.6430664</ele>
        <time>2010-09-15T12:39:04Z</time>
      </trkpt>
      <trkpt lat="48.09915" lon="7.6513">
        <ele>310.6430664</ele>
        <time>2010-09-15T12:39:12Z</time>
      </trkpt>
      <trkpt lat="48.09908" lon="7.65139">
        <ele>310.6430664</ele>
        <time>2010-09-15T12:39:21Z</time>
      </trkpt>
      <trkpt lat="48.09905" lon="7.65147">
        <ele>309.6818848</ele>
        <time>2010-09-15T12:39:28Z</time>
      </trkpt>
      <trkpt lat="48.099" lon="7.65154">
        <ele>309.2011719</ele>
        <time>2010-09-15T12:39:36Z</time>
      </trkpt>
      <trkpt lat="48.09894" lon="7.65168">
        <ele>309.2011719</ele>
        <time>2010-09-15T12:39:47Z</time>
      </trkpt>
      <trkpt lat="48.09891" lon="7.65173">
        <ele>308.720459</ele>
        <time>2010-09-15T12:39:51Z</time>
      </trkpt>
      <trkpt lat="48.09884" lon="7.65185">
        <ele>308.720459</ele>
        <time>2010-09-15T12:40:00Z</time>
      </trkpt>
      <trkpt lat="48.0988" lon="7.65192">
        <ele>307.7592773</ele>
        <time>2010-09-15T12:40:05Z</time>
      </trkpt>
      <trkpt lat="48.09872" lon="7.65204">
        <ele>308.2398682</ele>
        <time>2010-09-15T12:40:15Z</time>
      </trkpt>
      <trkpt lat="48.09864" lon="7.65218">
        <ele>307.2785645</ele>
        <time>2010-09-15T12:40:26Z</time>
      </trkpt>
      <trkpt lat="48.09856" lon="7.65233">
        <ele>306.7978516</ele>
        <time>2010-09-15T12:40:38Z</time>
      </trkpt>
      <trkpt lat="48.09848" lon="7.65248">
        <ele>306.3172607</ele>
        <time>2010-09-15T12:40:49Z</time>
      </trkpt>
      <trkpt lat="48.09837" lon="7.65262">
        <ele>306.3172607</ele>
        <time>2010-09-15T12:41:01Z</time>
      </trkpt>
      <trkpt lat="48.09832" lon="7.65273">
        <ele>305.355957</ele>
        <time>2010-09-15T12:41:11Z</time>
      </trkpt>
      <trkpt lat="48.09832" lon="7.65288">
        <ele>304.3946533</ele>
        <time>2010-09-15T12:41:20Z</time>
      </trkpt>
      <trkpt lat="48.09834" lon="7.65312">
        <ele>303.9139404</ele>
        <time>2010-09-15T12:41:36Z</time>
      </trkpt>
      <trkpt lat="48.09837" lon="7.65324">
        <ele>303.4332275</ele>
        <time>2010-09-15T12:41:45Z</time>
      </trkpt>
      <trkpt lat="48.09839" lon="7.65342">
        <ele>302.4719238</ele>
        <time>2010-09-15T12:41:57Z</time>
      </trkpt>
      <trkpt lat="48.09841" lon="7.65351">
        <ele>301.991333</ele>
        <time>2010-09-15T12:42:03Z</time>
      </trkpt>
      <trkpt lat="48.09844" lon="7.65369">
        <ele>302.4719238</ele>
        <time>2010-09-15T12:42:15Z</time>
      </trkpt>
      <trkpt lat="48.09836" lon="7.65384">
        <ele>301.0299072</ele>
        <time>2010-09-15T12:42:28Z</time>
      </trkpt>
      <trkpt lat="48.09833" lon="7.65386">
        <ele>300.5493164</ele>
        <time>2010-09-15T12:42:32Z</time>
      </trkpt>
      <trkpt lat="48.09823" lon="7.65387">
        <ele>298.626709</ele>
        <time>2010-09-15T12:42:43Z</time>
      </trkpt>
      <trkpt lat="48.09812" lon="7.65388">
        <ele>297.1846924</ele>
        <time>2010-09-15T12:42:54Z</time>
      </trkpt>
      <trkpt lat="48.09803" lon="7.65389">
        <ele>295.7426758</ele>
        <time>2010-09-15T12:43:04Z</time>
      </trkpt>
      <trkpt lat="48.098" lon="7.65391">
        <ele>295.2619629</ele>
        <time>2010-09-15T12:43:07Z</time>
      </trkpt>
      <trkpt lat="48.09807" lon="7.65398">
        <ele>294.7813721</ele>
        <time>2010-09-15T12:43:16Z</time>
      </trkpt>
      <trkpt lat="48.09821" lon="7.65401">
        <ele>293.8200684</ele>
        <time>2010-09-15T12:43:29Z</time>
      </trkpt>
      <trkpt lat="48.09836" lon="7.65405">
        <ele>293.3393555</ele>
        <time>2010-09-15T12:43:42Z</time>
      </trkpt>
      <trkpt lat="48.09853" lon="7.65412">
        <ele>291.416748</ele>
        <time>2010-09-15T12:43:57Z</time>
      </trkpt>
      <trkpt lat="48.09866" lon="7.65421">
        <ele>291.416748</ele>
        <time>2010-09-15T12:44:10Z</time>
      </trkpt>
      <trkpt lat="48.09882" lon="7.65432">
        <ele>290.9361572</ele>
        <time>2010-09-15T12:44:25Z</time>
      </trkpt>
      <trkpt lat="48.09898" lon="7.65443">
        <ele>289.0135498</ele>
        <time>2010-09-15T12:44:40Z</time>
      </trkpt>
      <trkpt lat="48.09914" lon="7.65454">
        <ele>288.532959</ele>
        <time>2010-09-15T12:44:56Z</time>
      </trkpt>
      <trkpt lat="48.09933" lon="7.65466">
        <ele>289.0135498</ele>
        <time>2010-09-15T12:45:13Z</time>
      </trkpt>
      <trkpt lat="48.09949" lon="7.65475">
        <ele>288.532959</ele>
        <time>2010-09-15T12:45:28Z</time>
      </trkpt>
      <trkpt lat="48.09964" lon="7.65483">
        <ele>288.532959</ele>
        <time>2010-09-15T12:45:42Z</time>
      </trkpt>
      <trkpt lat="48.09979" lon="7.6549">
        <ele>288.532959</ele>
        <time>2010-09-15T12:45:56Z</time>
      </trkpt>
      <trkpt lat="48.09993" lon="7.65496">
        <ele>287.5714111</ele>
        <time>2010-09-15T12:46:09Z</time>
      </trkpt>
      <trkpt lat="48.10005" lon="7.65503">
        <ele>287.5714111</ele>
        <time>2010-09-15T12:46:21Z</time>
      </trkpt>
      <trkpt lat="48.10017" lon="7.65515">
        <ele>287.5714111</ele>
        <time>2010-09-15T12:46:33Z</time>
      </trkpt>
      <trkpt lat="48.10025" lon="7.65528">
        <ele>288.0522461</ele>
        <time>2010-09-15T12:46:44Z</time>
      </trkpt>
      <trkpt lat="48.10031" lon="7.65543">
        <ele>288.0522461</ele>
        <time>2010-09-15T12:46:55Z</time>
      </trkpt>
      <trkpt lat="48.10039" lon="7.65561">
        <ele>287.5714111</ele>
        <time>2010-09-15T12:47:07Z</time>
      </trkpt>
      <trkpt lat="48.10047" lon="7.65577">
        <ele>287.5714111</ele>
        <time>2010-09-15T12:47:19Z</time>
      </trkpt>
      <trkpt lat="48.10057" lon="7.65591">
        <ele>287.5714111</ele>
        <time>2010-09-15T12:47:31Z</time>
      </trkpt>
      <trkpt lat="48.10068" lon="7.65603">
        <ele>287.0908203</ele>
        <time>2010-09-15T12:47:43Z</time>
      </trkpt>
      <trkpt lat="48.10079" lon="7.65612">
        <ele>287.0908203</ele>
        <time>2010-09-15T12:47:55Z</time>
      </trkpt>
      <trkpt lat="48.10093" lon="7.65621">
        <ele>287.0908203</ele>
        <time>2010-09-15T12:48:07Z</time>
      </trkpt>
      <trkpt lat="48.10106" lon="7.65628">
        <ele>287.0908203</ele>
        <time>2010-09-15T12:48:19Z</time>
      </trkpt>
      <trkpt lat="48.10117" lon="7.65635">
        <ele>286.6102295</ele>
        <time>2010-09-15T12:48:30Z</time>
      </trkpt>
      <trkpt lat="48.10125" lon="7.65645">
        <ele>286.6102295</ele>
        <time>2010-09-15T12:48:41Z</time>
      </trkpt>
      <trkpt lat="48.10126" lon="7.65645">
        <ele>286.1295166</ele>
        <time>2010-09-15T12:48:46Z</time>
      </trkpt>
      <trkpt lat="48.10124" lon="7.65651">
        <ele>286.6102295</ele>
        <time>2010-09-15T12:48:57Z</time>
      </trkpt>
      <trkpt lat="48.10122" lon="7.65658">
        <ele>286.1295166</ele>
        <time>2010-09-15T12:49:02Z</time>
      </trkpt>
      <trkpt lat="48.10119" lon="7.65661">
        <ele>286.1295166</ele>
        <time>2010-09-15T12:49:06Z</time>
      </trkpt>
      <trkpt lat="48.10112" lon="7.65663">
        <ele>286.1295166</ele>
        <time>2010-09-15T12:49:13Z</time>
      </trkpt>
      <trkpt lat="48.10104" lon="7.65676">
        <ele>286.1295166</ele>
        <time>2010-09-15T12:49:25Z</time>
      </trkpt>
      <trkpt lat="48.10101" lon="7.65685">
        <ele>286.1295166</ele>
        <time>2010-09-15T12:49:34Z</time>
      </trkpt>
      <trkpt lat="48.10098" lon="7.65691">
        <ele>285.6488037</ele>
        <time>2010-09-15T12:49:42Z</time>
      </trkpt>
      <trkpt lat="48.10094" lon="7.65707">
        <ele>285.6488037</ele>
        <time>2010-09-15T12:49:53Z</time>
      </trkpt>
      <trkpt lat="48.10091" lon="7.65719">
        <ele>285.6488037</ele>
        <time>2010-09-15T12:50:02Z</time>
      </trkpt>
      <trkpt lat="48.10087" lon="7.65734">
        <ele>285.1682129</ele>
        <time>2010-09-15T12:50:14Z</time>
      </trkpt>
      <trkpt lat="48.10082" lon="7.65744">
        <ele>284.2069092</ele>
        <time>2010-09-15T12:50:23Z</time>
      </trkpt>
      <trkpt lat="48.10077" lon="7.65746">
        <ele>283.2456055</ele>
        <time>2010-09-15T12:50:29Z</time>
      </trkpt>
      <trkpt lat="48.10073" lon="7.65745">
        <ele>283.7261963</ele>
        <time>2010-09-15T12:50:33Z</time>
      </trkpt>
      <trkpt lat="48.10061" lon="7.65735">
        <ele>282.2843018</ele>
        <time>2010-09-15T12:50:45Z</time>
      </trkpt>
      <trkpt lat="48.10049" lon="7.65722">
        <ele>281.322998</ele>
        <time>2010-09-15T12:50:59Z</time>
      </trkpt>
      <trkpt lat="48.10036" lon="7.65708">
        <ele>279.4002686</ele>
        <time>2010-09-15T12:51:14Z</time>
      </trkpt>
      <trkpt lat="48.10024" lon="7.65694">
        <ele>278.4389648</ele>
        <time>2010-09-15T12:51:28Z</time>
      </trkpt>
      <trkpt lat="48.10013" lon="7.65682">
        <ele>276.9970703</ele>
        <time>2010-09-15T12:51:41Z</time>
      </trkpt>
      <trkpt lat="48.10006" lon="7.65676">
        <ele>276.0356445</ele>
        <time>2010-09-15T12:51:48Z</time>
      </trkpt>
      <trkpt lat="48.09996" lon="7.65673">
        <ele>277.4776611</ele>
        <time>2010-09-15T12:51:58Z</time>
      </trkpt>
      <trkpt lat="48.09984" lon="7.65666">
        <ele>277.958252</ele>
        <time>2010-09-15T12:52:10Z</time>
      </trkpt>
      <trkpt lat="48.09974" lon="7.65661">
        <ele>279.4002686</ele>
        <time>2010-09-15T12:52:21Z</time>
      </trkpt>
      <trkpt lat="48.09966" lon="7.65665">
        <ele>280.3616943</ele>
        <time>2010-09-15T12:52:30Z</time>
      </trkpt>
      <trkpt lat="48.09956" lon="7.65675">
        <ele>282.2843018</ele>
        <time>2010-09-15T12:52:42Z</time>
      </trkpt>
      <trkpt lat="48.09947" lon="7.65678">
        <ele>283.2456055</ele>
        <time>2010-09-15T12:52:51Z</time>
      </trkpt>
      <trkpt lat="48.0994" lon="7.65673">
        <ele>283.7261963</ele>
        <time>2010-09-15T12:53:00Z</time>
      </trkpt>
      <trkpt lat="48.09939" lon="7.65672">
        <ele>283.2456055</ele>
        <time>2010-09-15T12:53:01Z</time>
      </trkpt>
      <trkpt lat="48.09927" lon="7.65659">
        <ele>283.2456055</ele>
        <time>2010-09-15T12:53:13Z</time>
      </trkpt>
      <trkpt lat="48.09913" lon="7.65645">
        <ele>284.2069092</ele>
        <time>2010-09-15T12:53:26Z</time>
      </trkpt>
      <trkpt lat="48.09909" lon="7.65645">
        <ele>283.7261963</ele>
        <time>2010-09-15T12:53:33Z</time>
      </trkpt>
      <trkpt lat="48.09893" lon="7.6565">
        <ele>284.2069092</ele>
        <time>2010-09-15T12:53:48Z</time>
      </trkpt>
      <trkpt lat="48.09882" lon="7.65643">
        <ele>284.2069092</ele>
        <time>2010-09-15T12:53:59Z</time>
      </trkpt>
      <trkpt lat="48.09869" lon="7.65639">
        <ele>286.1295166</ele>
        <time>2010-09-15T12:54:12Z</time>
      </trkpt>
      <trkpt lat="48.09862" lon="7.65642">
        <ele>288.0522461</ele>
        <time>2010-09-15T12:54:20Z</time>
      </trkpt>
      <trkpt lat="48.09855" lon="7.65652">
        <ele>288.532959</ele>
        <time>2010-09-15T12:54:30Z</time>
      </trkpt>
      <trkpt lat="48.09851" lon="7.65656">
        <ele>288.532959</ele>
        <time>2010-09-15T12:54:34Z</time>
      </trkpt>
      <trkpt lat="48.09844" lon="7.65666">
        <ele>289.0135498</ele>
        <time>2010-09-15T12:54:43Z</time>
      </trkpt>
      <trkpt lat="48.09835" lon="7.6567">
        <ele>289.0135498</ele>
        <time>2010-09-15T12:54:52Z</time>
      </trkpt>
      <trkpt lat="48.09826" lon="7.65673">
        <ele>289.0135498</ele>
        <time>2010-09-15T12:55:01Z</time>
      </trkpt>
      <trkpt lat="48.09815" lon="7.65675">
        <ele>289.0135498</ele>
        <time>2010-09-15T12:55:11Z</time>
      </trkpt>
      <trkpt lat="48.09804" lon="7.65678">
        <ele>289.4941406</ele>
        <time>2010-09-15T12:55:21Z</time>
      </trkpt>
      <trkpt lat="48.09803" lon="7.65678">
        <ele>289.4941406</ele>
        <time>2010-09-15T12:55:22Z</time>
      </trkpt>
      <trkpt lat="48.09794" lon="7.65688">
        <ele>289.9748535</ele>
        <time>2010-09-15T12:55:32Z</time>
      </trkpt>
      <trkpt lat="48.09783" lon="7.657">
        <ele>289.9748535</ele>
        <time>2010-09-15T12:55:44Z</time>
      </trkpt>
      <trkpt lat="48.09779" lon="7.6571">
        <ele>291.416748</ele>
        <time>2010-09-15T12:55:53Z</time>
      </trkpt>
      <trkpt lat="48.09775" lon="7.6572">
        <ele>290.4555664</ele>
        <time>2010-09-15T12:56:01Z</time>
      </trkpt>
      <trkpt lat="48.09773" lon="7.65725">
        <ele>291.416748</ele>
        <time>2010-09-15T12:56:05Z</time>
      </trkpt>
      <trkpt lat="48.09773" lon="7.65743">
        <ele>291.8974609</ele>
        <time>2010-09-15T12:56:18Z</time>
      </trkpt>
      <trkpt lat="48.09773" lon="7.65763">
        <ele>291.8974609</ele>
        <time>2010-09-15T12:56:31Z</time>
      </trkpt>
      <trkpt lat="48.09776" lon="7.65779">
        <ele>291.8974609</ele>
        <time>2010-09-15T12:56:41Z</time>
      </trkpt>
      <trkpt lat="48.0978" lon="7.65802">
        <ele>292.3781738</ele>
        <time>2010-09-15T12:56:56Z</time>
      </trkpt>
      <trkpt lat="48.09783" lon="7.65816">
        <ele>292.3781738</ele>
        <time>2010-09-15T12:57:06Z</time>
      </trkpt>
      <trkpt lat="48.09785" lon="7.6583">
        <ele>292.3781738</ele>
        <time>2010-09-15T12:57:16Z</time>
      </trkpt>
      <trkpt lat="48.09788" lon="7.65848">
        <ele>292.3781738</ele>
        <time>2010-09-15T12:57:28Z</time>
      </trkpt>
      <trkpt lat="48.0979" lon="7.65865">
        <ele>294.3007813</ele>
        <time>2010-09-15T12:57:40Z</time>
      </trkpt>
      <trkpt lat="48.09795" lon="7.65883">
        <ele>295.2619629</ele>
        <time>2010-09-15T12:57:53Z</time>
      </trkpt>
      <trkpt lat="48.09799" lon="7.65901">
        <ele>295.2619629</ele>
        <time>2010-09-15T12:58:06Z</time>
      </trkpt>
      <trkpt lat="48.09804" lon="7.65921">
        <ele>296.2235107</ele>
        <time>2010-09-15T12:58:19Z</time>
      </trkpt>
      <trkpt lat="48.09806" lon="7.65941">
        <ele>296.2235107</ele>
        <time>2010-09-15T12:58:32Z</time>
      </trkpt>
      <trkpt lat="48.09806" lon="7.65956">
        <ele>295.7426758</ele>
        <time>2010-09-15T12:58:42Z</time>
      </trkpt>
      <trkpt lat="48.09808" lon="7.65973">
        <ele>295.7426758</ele>
        <time>2010-09-15T12:58:53Z</time>
      </trkpt>
      <trkpt lat="48.09812" lon="7.65989">
        <ele>295.7426758</ele>
        <time>2010-09-15T12:59:03Z</time>
      </trkpt>
      <trkpt lat="48.09818" lon="7.66004">
        <ele>296.2235107</ele>
        <time>2010-09-15T12:59:14Z</time>
      </trkpt>
      <trkpt lat="48.09826" lon="7.66013">
        <ele>296.2235107</ele>
        <time>2010-09-15T12:59:23Z</time>
      </trkpt>
      <trkpt lat="48.09837" lon="7.66023">
        <ele>295.7426758</ele>
        <time>2010-09-15T12:59:34Z</time>
      </trkpt>
      <trkpt lat="48.09844" lon="7.66035">
        <ele>295.2619629</ele>
        <time>2010-09-15T12:59:44Z</time>
      </trkpt>
      <trkpt lat="48.09844" lon="7.6604">
        <ele>295.2619629</ele>
        <time>2010-09-15T12:59:47Z</time>
      </trkpt>
      <trkpt lat="48.09838" lon="7.66051">
        <ele>295.2619629</ele>
        <time>2010-09-15T12:59:55Z</time>
      </trkpt>
      <trkpt lat="48.09828" lon="7.66061">
        <ele>295.2619629</ele>
        <time>2010-09-15T13:00:05Z</time>
      </trkpt>
      <trkpt lat="48.0982" lon="7.66073">
        <ele>296.2235107</ele>
        <time>2010-09-15T13:00:16Z</time>
      </trkpt>
      <trkpt lat="48.09815" lon="7.66084">
        <ele>296.7041016</ele>
        <time>2010-09-15T13:00:25Z</time>
      </trkpt>
      <trkpt lat="48.09816" lon="7.66087">
        <ele>295.7426758</ele>
        <time>2010-09-15T13:00:28Z</time>
      </trkpt>
      <trkpt lat="48.09818" lon="7.66093">
        <ele>296.7041016</ele>
        <time>2010-09-15T13:00:32Z</time>
      </trkpt>
      <trkpt lat="48.09821" lon="7.66109">
        <ele>298.1461182</ele>
        <time>2010-09-15T13:00:44Z</time>
      </trkpt>
      <trkpt lat="48.09827" lon="7.66124">
        <ele>299.1072998</ele>
        <time>2010-09-15T13:00:56Z</time>
      </trkpt>
      <trkpt lat="48.09832" lon="7.66134">
        <ele>300.5493164</ele>
        <time>2010-09-15T13:01:06Z</time>
      </trkpt>
      <trkpt lat="48.09836" lon="7.66145">
        <ele>301.0299072</ele>
        <time>2010-09-15T13:01:18Z</time>
      </trkpt>
      <trkpt lat="48.09834" lon="7.66146">
        <ele>301.5106201</ele>
        <time>2010-09-15T13:01:24Z</time>
      </trkpt>
      <trkpt lat="48.09828" lon="7.66135">
        <ele>298.1461182</ele>
        <time>2010-09-15T13:01:36Z</time>
      </trkpt>
      <trkpt lat="48.09823" lon="7.66124">
        <ele>296.7041016</ele>
        <time>2010-09-15T13:01:48Z</time>
      </trkpt>
      <trkpt lat="48.0982" lon="7.66114">
        <ele>294.7813721</ele>
        <time>2010-09-15T13:02:00Z</time>
      </trkpt>
      <trkpt lat="48.09818" lon="7.66106">
        <ele>293.3393555</ele>
        <time>2010-09-15T13:02:14Z</time>
      </trkpt>
      <trkpt lat="48.09813" lon="7.66094">
        <ele>290.9361572</ele>
        <time>2010-09-15T13:02:26Z</time>
      </trkpt>
      <trkpt lat="48.09809" lon="7.66082">
        <ele>288.0522461</ele>
        <time>2010-09-15T13:02:38Z</time>
      </trkpt>
      <trkpt lat="48.09805" lon="7.66073">
        <ele>286.6102295</ele>
        <time>2010-09-15T13:02:50Z</time>
      </trkpt>
      <trkpt lat="48.09803" lon="7.66066">
        <ele>284.2069092</ele>
        <time>2010-09-15T13:02:57Z</time>
      </trkpt>
      <trkpt lat="48.09802" lon="7.6606">
        <ele>282.7650146</ele>
        <time>2010-09-15T13:03:02Z</time>
      </trkpt>
      <trkpt lat="48.09802" lon="7.66049">
        <ele>281.8035889</ele>
        <time>2010-09-15T13:03:14Z</time>
      </trkpt>
      <trkpt lat="48.09799" lon="7.66037">
        <ele>279.8808594</ele>
        <time>2010-09-15T13:03:26Z</time>
      </trkpt>
      <trkpt lat="48.09792" lon="7.66029">
        <ele>278.4389648</ele>
        <time>2010-09-15T13:03:38Z</time>
      </trkpt>
      <trkpt lat="48.09785" lon="7.6602">
        <ele>275.0744629</ele>
        <time>2010-09-15T13:03:50Z</time>
      </trkpt>
      <trkpt lat="48.09782" lon="7.66012">
        <ele>273.6324463</ele>
        <time>2010-09-15T13:04:00Z</time>
      </trkpt>
      <trkpt lat="48.09775" lon="7.65997">
        <ele>272.6711426</ele>
        <time>2010-09-15T13:04:14Z</time>
      </trkpt>
      <trkpt lat="48.09769" lon="7.65983">
        <ele>270.2677002</ele>
        <time>2010-09-15T13:04:27Z</time>
      </trkpt>
      <trkpt lat="48.09768" lon="7.6598">
        <ele>268.8258057</ele>
        <time>2010-09-15T13:04:30Z</time>
      </trkpt>
      <trkpt lat="48.09764" lon="7.65968">
        <ele>267.3839111</ele>
        <time>2010-09-15T13:04:42Z</time>
      </trkpt>
      <trkpt lat="48.09761" lon="7.65961">
        <ele>265.9418945</ele>
        <time>2010-09-15T13:04:51Z</time>
      </trkpt>
      <trkpt lat="48.09758" lon="7.65957">
        <ele>264.9805908</ele>
        <time>2010-09-15T13:05:00Z</time>
      </trkpt>
      <trkpt lat="48.09756" lon="7.65964">
        <ele>264.4998779</ele>
        <time>2010-09-15T13:05:06Z</time>
      </trkpt>
      <trkpt lat="48.09754" lon="7.65983">
        <ele>264.9805908</ele>
        <time>2010-09-15T13:05:19Z</time>
      </trkpt>
      <trkpt lat="48.09754" lon="7.65999">
        <ele>264.9805908</ele>
        <time>2010-09-15T13:05:30Z</time>
      </trkpt>
      <trkpt lat="48.09755" lon="7.66016">
        <ele>266.9031982</ele>
        <time>2010-09-15T13:05:42Z</time>
      </trkpt>
      <trkpt lat="48.09756" lon="7.66033">
        <ele>267.864502</ele>
        <time>2010-09-15T13:05:52Z</time>
      </trkpt>
      <trkpt lat="48.09761" lon="7.66055">
        <ele>267.3839111</ele>
        <time>2010-09-15T13:06:05Z</time>
      </trkpt>
      <trkpt lat="48.09765" lon="7.66072">
        <ele>268.3450928</ele>
        <time>2010-09-15T13:06:15Z</time>
      </trkpt>
      <trkpt lat="48.0977" lon="7.66095">
        <ele>266.9031982</ele>
        <time>2010-09-15T13:06:28Z</time>
      </trkpt>
      <trkpt lat="48.09772" lon="7.66113">
        <ele>266.9031982</ele>
        <time>2010-09-15T13:06:39Z</time>
      </trkpt>
      <trkpt lat="48.09778" lon="7.66128">
        <ele>266.9031982</ele>
        <time>2010-09-15T13:06:48Z</time>
      </trkpt>
      <trkpt lat="48.09775" lon="7.66134">
        <ele>265.9418945</ele>
        <time>2010-09-15T13:06:53Z</time>
      </trkpt>
      <trkpt lat="48.0977" lon="7.66138">
        <ele>265.4613037</ele>
        <time>2010-09-15T13:06:57Z</time>
      </trkpt>
      <trkpt lat="48.09757" lon="7.66143">
        <ele>265.9418945</ele>
        <time>2010-09-15T13:07:07Z</time>
      </trkpt>
      <trkpt lat="48.09746" lon="7.66147">
        <ele>265.9418945</ele>
        <time>2010-09-15T13:07:19Z</time>
      </trkpt>
      <trkpt lat="48.09745" lon="7.66149">
        <ele>265.9418945</ele>
        <time>2010-09-15T13:07:21Z</time>
      </trkpt>
      <trkpt lat="48.0974" lon="7.66157">
        <ele>265.4613037</ele>
        <time>2010-09-15T13:07:27Z</time>
      </trkpt>
      <trkpt lat="48.09741" lon="7.66172">
        <ele>265.9418945</ele>
        <time>2010-09-15T13:07:38Z</time>
      </trkpt>
      <trkpt lat="48.0974" lon="7.66181">
        <ele>265.9418945</ele>
        <time>2010-09-15T13:07:44Z</time>
      </trkpt>
      <trkpt lat="48.0974" lon="7.66186">
        <ele>266.4224854</ele>
        <time>2010-09-15T13:07:47Z</time>
      </trkpt>
      <trkpt lat="48.09743" lon="7.66201">
        <ele>266.4224854</ele>
        <time>2010-09-15T13:07:57Z</time>
      </trkpt>
      <trkpt lat="48.09741" lon="7.6621">
        <ele>266.4224854</ele>
        <time>2010-09-15T13:08:04Z</time>
      </trkpt>
      <trkpt lat="48.09736" lon="7.66214">
        <ele>267.3839111</ele>
        <time>2010-09-15T13:08:08Z</time>
      </trkpt>
      <trkpt lat="48.09722" lon="7.66223">
        <ele>266.9031982</ele>
        <time>2010-09-15T13:08:20Z</time>
      </trkpt>
      <trkpt lat="48.0971" lon="7.6623">
        <ele>266.9031982</ele>
        <time>2010-09-15T13:08:30Z</time>
      </trkpt>
      <trkpt lat="48.09697" lon="7.66242">
        <ele>266.9031982</ele>
        <time>2010-09-15T13:08:44Z</time>
      </trkpt>
      <trkpt lat="48.09686" lon="7.66256">
        <ele>266.9031982</ele>
        <time>2010-09-15T13:08:57Z</time>
      </trkpt>
      <trkpt lat="48.09676" lon="7.66272">
        <ele>267.864502</ele>
        <time>2010-09-15T13:09:11Z</time>
      </trkpt>
      <trkpt lat="48.09668" lon="7.66283">
        <ele>267.864502</ele>
        <time>2010-09-15T13:09:21Z</time>
      </trkpt>
      <trkpt lat="48.0966" lon="7.66298">
        <ele>268.8258057</ele>
        <time>2010-09-15T13:09:33Z</time>
      </trkpt>
      <trkpt lat="48.09654" lon="7.66308">
        <ele>268.8258057</ele>
        <time>2010-09-15T13:09:42Z</time>
      </trkpt>
      <trkpt lat="48.09652" lon="7.66318">
        <ele>269.3065186</ele>
        <time>2010-09-15T13:09:50Z</time>
      </trkpt>
      <trkpt lat="48.09646" lon="7.66331">
        <ele>269.7871094</ele>
        <time>2010-09-15T13:10:00Z</time>
      </trkpt>
      <trkpt lat="48.09646" lon="7.66332">
        <ele>269.7871094</ele>
        <time>2010-09-15T13:10:01Z</time>
      </trkpt>
      <trkpt lat="48.09642" lon="7.66348">
        <ele>269.7871094</ele>
        <time>2010-09-15T13:10:12Z</time>
      </trkpt>
      <trkpt lat="48.09638" lon="7.66361">
        <ele>271.7097168</ele>
        <time>2010-09-15T13:10:21Z</time>
      </trkpt>
      <trkpt lat="48.09637" lon="7.66373">
        <ele>271.229126</ele>
        <time>2010-09-15T13:10:29Z</time>
      </trkpt>
      <trkpt lat="48.09636" lon="7.66387">
        <ele>271.7097168</ele>
        <time>2010-09-15T13:10:38Z</time>
      </trkpt>
      <trkpt lat="48.09633" lon="7.66398">
        <ele>272.6711426</ele>
        <time>2010-09-15T13:10:47Z</time>
      </trkpt>
      <trkpt lat="48.09624" lon="7.66407">
        <ele>272.6711426</ele>
        <time>2010-09-15T13:10:57Z</time>
      </trkpt>
      <trkpt lat="48.09627" lon="7.66419">
        <ele>274.1130371</ele>
        <time>2010-09-15T13:11:05Z</time>
      </trkpt>
      <trkpt lat="48.09635" lon="7.66429">
        <ele>274.59375</ele>
        <time>2010-09-15T13:11:15Z</time>
      </trkpt>
      <trkpt lat="48.09635" lon="7.66435">
        <ele>274.59375</ele>
        <time>2010-09-15T13:11:19Z</time>
      </trkpt>
      <trkpt lat="48.09634" lon="7.66439">
        <ele>274.1130371</ele>
        <time>2010-09-15T13:11:21Z</time>
      </trkpt>
      <trkpt lat="48.0963" lon="7.66442">
        <ele>274.1130371</ele>
        <time>2010-09-15T13:11:25Z</time>
      </trkpt>
      <trkpt lat="48.09621" lon="7.66444">
        <ele>273.6324463</ele>
        <time>2010-09-15T13:11:35Z</time>
      </trkpt>
      <trkpt lat="48.09608" lon="7.66448">
        <ele>273.6324463</ele>
        <time>2010-09-15T13:15:21Z</time>
      </trkpt>
    </trkseg>
  </trk>
</gpx>